[[{"header":{"parameterUnit":"m.s-1","parameterCategory":1,"la1":31.0,"la2":29.5877,"lo1":-88.7671,"lo2":-86.6584,"dy":0.0162,"dx":0.0185,"nx":115,"ny":88,"refTime":"2026-03-21T00:00:00:Z","depth":0,"parameterNumber":2,"parameterNumberName":"U-component_of_WINDS"},"data":[0.0,0.0,0.0,0.0,0.0,0.0,0.0,0.0,0.0,0.0,0.0,0.0,0.0,0.0,0.0,0.0,0.0,0.0,0.0,0.0,0.0,0.0,0.0,0.0,0.0,0.0,0.0,0.0,0.0,0.0,0.0,0.0,0.0,0.0,0.0,0.0,0.0,0.0,0.0,0.0,0.0,0.0,0.0,0.0,0.0,0.0,0.0,0.0,0.0,0.0,0.0,0.0,0.0,0.0,0.0,0.0,0.0,0.0,0.0,0.0,0.0,0.0,0.0,0.0,0.0,0.0,0.0,0.0,0.0,0.0,0.0,0.0,0.0,0.0,0.0,0.0,0.0,0.0,0.0,0.0,0.0,0.0,0.0,0.0,0.0,0.0,0.0,0.0,0.0,0.0,0.0,0.0,0.0,0.0,0.0,0.0,0.0,0.0,0.0,0.0,0.0,0.0,0.0,0.0,0.0,0.0,0.0,0.0,0.0,0.0,0.0,0.0,0.0,0.0,0.0,0.0,0.0,0.0,0.0,0.0,0.0,0.0,0.0,0.0,0.0,0.0,0.0,0.0,0.0,0.0,0.0,0.0,0.0,0.0,0.0,0.0,0.0,0.0,0.0,0.0,0.0,0.0,0.0,0.0,0.0,0.0,0.0,0.0,0.0,0.0,0.0,0.0,0.0,0.0,0.0,0.0,0.0,0.0,0.0,0.0,0.0,0.0,0.0,0.0,0.0,0.0,0.0,0.0,0.0,0.0,0.0,0.0,0.0,0.0,0.0,0.0,0.0,0.0,0.0,0.0,0.0,0.0,0.0,0.0,0.0,0.0,0.0,0.0,0.0,0.0,0.0,0.0,0.0,0.0,0.0,0.0,0.0,0.0,0.0,0.0,0.0,0.0,0.0,0.0,0.0,0.0,0.0,0.0,0.0,0.0,0.0,0.0,0.0,0.0,0.0,0.0,0.0,0.0,0.0,0.0,0.0,0.0,0.0,0.0,0.0,0.0,0.0,0.0,0.0,0.0,0.0,0.0,0.0,0.0,0.0,0.0,0.0,0.0,0.0,0.0,0.0,0.0,0.0,0.0,0.0,0.0,0.0,0.0,0.0,0.0,0.0,0.0,0.0,0.0,0.0,0.0,0.0,0.0,0.0,0.0,0.0,0.0,0.0,0.0,0.0,0.0,0.0,0.0,0.0,0.0,0.0,0.0,0.0,0.0,0.0,0.0,0.0,0.0,0.0,0.0,0.0,0.0,0.0,0.0,0.0,0.0,0.0,0.0,0.0,0.0,0.0,0.0,0.0,0.0,0.0,0.0,0.0,0.0,0.0,0.0,0.0,0.0,0.0,0.0,0.0,0.0,0.0,0.0,0.0,0.0,0.0,0.0,0.0,0.0,0.0,0.0,0.0,0.0,0.0,0.0,0.0,0.0,0.0,0.0,0.0,0.0,0.0,0.0,0.0,0.0,0.0,0.0,0.0,0.0,0.0,0.0,0.0,0.0,0.0,0.0,0.0,0.0,0.0,0.0,0.0,0.0,0.0,0.0,0.0,0.0,0.0,0.0,0.0,0.0,0.0,0.0,0.0,0.0,0.0,0.0,0.0,0.0,0.0,0.0,0.0,0.0,0.0,0.0,0.0,0.0,0.0,0.0,0.0,0.0,0.0,0.0,0.0,0.0,0.0,0.0,0.0,0.0,0.0,0.0,0.0,0.0,0.0,0.0,0.0,0.0,0.0,0.0,0.0,0.0,0.0,0.0,0.0,0.0,0.0,0.0,0.0,0.0,0.0,0.0,0.0,0.0,0.0,0.0,0.0,0.0,0.0,0.0,0.0,0.0,0.0,0.0,0.0,0.0,0.0,0.0,0.0,0.0,0.0,0.0,0.0,0.0,0.0,0.0,0.0,0.0,0.0,0.0,0.0,0.0,0.0,0.0,0.0,0.0,0.0,0.0,0.0,0.0,0.0,0.0,0.0,0.0,0.0,0.0,0.0,0.0,0.0,0.0,0.0,0.0,0.0,0.0,0.0,0.0,0.0,0.0,0.0,0.0,0.0,0.0,0.0,0.0,0.0,0.0,0.0,0.0,0.0,0.0,0.0,0.0,0.0,0.0,0.0,0.0,0.0,0.0,0.0,0.0,0.0,0.0,0.0,0.0,0.0,0.0,0.0,0.0,0.0,0.0,0.0,0.0,0.0,0.0,0.0,0.0,0.0,0.0,0.0,0.0,0.0,0.0,0.0,0.0,0.0,0.0,0.0,0.0,0.0,0.0,0.0,0.0,0.0,0.0,0.0,0.0,0.0,0.0,0.0,0.0,0.0,0.0,0.0,0.0,0.0,0.0,0.0,0.0,0.0,0.0,0.0,0.0,0.0,0.0,0.0,0.0,0.0,0.0,0.0,0.0,0.0,0.0,0.0,0.0,0.0,0.0,0.0,0.0,0.0,0.0,0.0,0.0,0.0,0.0,0.0,0.0,0.0,0.0,0.0,0.0,0.0,0.0,0.0,0.0,0.0,0.0,0.0,0.0,0.0,0.0,0.0,0.0,0.0,0.0,0.0,0.0,0.0,0.0,0.0,0.0,0.0,0.0,0.0,0.0,0.0,0.0,0.0,0.0,0.0,0.0,0.0,0.0,0.0,0.0,0.0,0.0,0.0,0.0,0.0,0.0,0.0,0.0,0.0,0.0,0.0,0.0,0.0,0.0,0.0,0.0,0.0,0.0,0.0,0.0,0.0,0.0,0.0,0.0,0.0,0.0,0.0,0.0,0.0,0.0,0.0,0.0,0.0,0.0,0.0,0.0,0.0,0.0,0.0,0.0,0.0,0.0,0.0,0.0,0.0,0.0,0.0,0.0,0.0,0.0,0.0,0.0,0.0,0.0,0.0,0.0,0.0,0.0,0.0,0.0,0.0,0.0,0.0,0.0,0.0,0.0,0.0,0.0,0.0,0.0,0.0,0.0,0.0,0.0,0.0,0.0,0.0,0.0,0.0,0.0,0.0,0.0,0.0,0.0,0.0,0.0,0.0,0.0,0.0,0.0,0.0,0.0,0.0,0.0,0.0,0.0,0.0,0.0,0.0,0.0,0.0,0.0,0.0,0.0,0.0,0.0,0.0,0.0,0.0,0.0,0.0,0.0,0.0,0.0,0.0,0.0,0.0,0.0,0.0,0.0,0.0,0.0,0.0,0.0,0.0,0.0,0.0,0.0,0.0,0.0,0.0,0.0,0.0,0.0,0.0,0.0,0.0,0.0,0.0,0.0,0.0,0.0,0.0,0.0,0.0,0.0,0.0,0.0,0.0,0.0,0.0,0.0,0.0,0.0,0.0,0.0,0.0,0.0,0.0,0.0,0.0,0.0,0.0,0.0,0.0,0.0,0.0,0.0,0.0,0.0,0.0,0.0,0.0,0.0,0.0,0.0,0.0,0.0,0.0,0.0,0.0,0.0,0.0,0.0,0.0,0.0,0.0,0.0,0.0,0.0,0.0,0.0,0.0,0.0,0.0,0.0,0.0,0.0,0.0,0.0,0.0,0.0,0.0,0.0,0.0,0.0,0.0,0.0,0.0,0.0,0.0,0.0,0.0,0.0,0.0,0.0,0.0,0.0,0.0,0.0,0.0,0.0,0.0,0.0,0.0,0.0,0.0,0.0,0.0,0.0,0.0,0.0,0.0,0.0,0.0,0.0,0.0,0.0,0.0,0.0,0.0,0.0,0.0,0.0,0.0,0.0,0.0,0.0,0.0,0.0,0.0,0.0,0.0,0.0,0.0,0.0,0.0,0.0,0.0,0.0,0.0,0.0,0.0,0.0,0.0,0.0,0.0,0.0,0.0,0.0,0.0,0.0,0.0,0.0,0.0,0.0,0.0,0.0,0.0,0.0,0.0,0.0,0.0,0.0,0.0,0.0,0.0,0.0,0.0,0.0,0.0,0.0,0.0,0.0,0.0,0.0,0.0,0.0,0.0,0.0,0.0,0.0,0.0,0.0,0.0,0.0,0.0,0.0,0.0,0.0,0.0,0.0,0.0,0.0,0.0,0.0,0.0,0.0,0.0,0.0,0.0,0.0,0.0,0.0,0.0,0.0,0.0,0.0,0.0,0.0,0.0,0.0,0.0,0.0,0.0,0.0,0.0,0.0,0.0,0.0,0.0,0.0,0.0,0.0,0.0,0.0,0.0,0.0,0.0,0.0,0.0,0.0,0.0,0.0,0.0,0.0,0.0,0.0,0.0,0.0,0.0,0.0,0.0,0.0,0.0,0.0,0.0,0.0,0.0,0.0,-1.9969,0.0,0.0,0.0,0.0,0.0,0.0,0.0,0.0,0.0,0.0,0.0,0.0,0.0,0.0,0.0,0.0,0.0,0.0,0.0,0.0,0.0,0.0,0.0,0.0,0.0,0.0,0.0,0.0,0.0,0.0,0.0,0.0,0.0,0.0,0.0,0.0,0.0,0.0,0.0,0.0,0.0,0.0,0.0,0.0,0.0,0.0,0.0,0.0,0.0,0.0,0.0,0.0,0.0,0.0,0.0,0.0,0.0,0.0,0.0,0.0,0.0,0.0,0.0,0.0,0.0,0.0,0.0,0.0,0.0,0.0,0.0,0.0,0.0,0.0,0.0,0.0,0.0,0.0,0.0,0.0,0.0,0.0,0.0,0.0,0.0,0.0,0.0,0.0,0.0,0.0,0.0,0.0,0.0,0.0,0.0,0.0,0.0,0.0,0.0,0.0,0.0,0.0,0.0,0.0,0.0,0.0,0.0,0.0,0.0,0.0,-1.9969,-1.9988,-1.9988,-1.9761,-1.9306,0.0,0.0,0.0,0.0,0.0,0.0,0.0,0.0,0.0,0.0,0.0,0.0,0.0,0.0,0.0,0.0,0.0,0.0,0.0,0.0,0.0,0.0,0.0,0.0,0.0,0.0,0.0,0.0,0.0,0.0,0.0,0.0,0.0,0.0,0.0,0.0,0.0,0.0,0.0,0.0,0.0,0.0,0.0,0.0,0.0,0.0,0.0,0.0,0.0,0.0,0.0,0.0,0.0,0.0,0.0,0.0,0.0,0.0,0.0,0.0,0.0,0.0,0.0,0.0,0.0,0.0,0.0,0.0,0.0,0.0,0.0,0.0,0.0,0.0,0.0,0.0,0.0,0.0,0.0,0.0,0.0,0.0,0.0,0.0,0.0,0.0,0.0,0.0,0.0,0.0,0.0,0.0,0.0,0.0,0.0,0.0,0.0,0.0,0.0,0.0,0.0,0.0,0.0,0.0,0.0,0.0,0.0,0.0,0.0,0.0,0.0,0.0,-1.9709,-1.9306,-1.8467,0.0,0.0,0.0,0.0,0.0,0.0,0.0,0.0,0.0,0.0,0.0,0.0,0.0,0.0,0.0,0.0,0.0,0.0,0.0,0.0,0.0,0.0,0.0,0.0,0.0,0.0,0.0,0.0,0.0,0.0,0.0,0.0,0.0,0.0,0.0,0.0,0.0,0.0,0.0,0.0,0.0,0.0,0.0,0.0,0.0,0.0,0.0,0.0,0.0,0.0,0.0,0.0,0.0,0.0,0.0,0.0,0.0,0.0,0.0,0.0,0.0,0.0,0.0,0.0,0.0,0.0,0.0,0.0,0.0,0.0,0.0,0.0,0.0,0.0,0.0,0.0,0.0,0.0,0.0,0.0,0.0,0.0,0.0,0.0,0.0,0.0,0.0,0.0,0.0,0.0,0.0,0.0,0.0,0.0,0.0,0.0,0.0,0.0,0.0,0.0,0.0,0.0,0.0,0.0,0.0,0.0,0.0,0.0,0.0,0.0,-1.9615,-1.8832,-1.8832,0.0,-1.7634,0.0,0.0,0.0,0.0,0.0,0.0,0.0,0.0,0.0,0.0,0.0,0.0,0.0,0.0,0.0,0.0,0.0,0.0,0.0,0.0,0.0,0.0,0.0,0.0,0.0,0.0,0.0,0.0,0.0,0.0,0.0,0.0,0.0,0.0,0.0,0.0,0.0,0.0,0.0,0.0,0.0,0.0,0.0,0.0,0.0,0.0,0.0,0.0,0.0,0.0,0.0,0.0,0.0,0.0,0.0,0.0,0.0,0.0,0.0,0.0,0.0,0.0,0.0,0.0,0.0,0.0,0.0,0.0,0.0,0.0,0.0,0.0,0.0,0.0,0.0,0.0,0.0,0.0,0.0,0.0,0.0,0.0,0.0,0.0,0.0,0.0,0.0,0.0,0.0,0.0,0.0,0.0,0.0,0.0,0.0,0.0,0.0,0.0,0.0,0.0,0.0,0.0,0.0,0.0,0.0,0.0,0.0,0.0,0.0,0.0,-1.8612,-1.87,-1.8221,-1.7601,0.0,0.0,0.0,0.0,0.0,0.0,0.0,0.0,0.0,0.0,0.0,0.0,0.0,0.0,0.0,0.0,0.0,0.0,0.0,0.0,0.0,0.0,0.0,0.0,0.0,0.0,0.0,0.0,0.0,0.0,0.0,0.0,0.0,0.0,0.0,0.0,0.0,0.0,0.0,0.0,0.0,0.0,0.0,0.0,0.0,0.0,0.0,0.0,0.0,0.0,0.0,0.0,0.0,0.0,0.0,0.0,0.0,0.0,0.0,0.0,0.0,0.0,0.0,0.0,0.0,0.0,0.0,0.0,0.0,0.0,0.0,0.0,0.0,0.0,0.0,0.0,0.0,0.0,0.0,0.0,0.0,0.0,0.0,0.0,0.0,0.0,0.0,0.0,0.0,0.0,0.0,0.0,0.0,0.0,0.0,0.0,0.0,0.0,0.0,0.0,0.0,0.0,0.0,0.0,0.0,0.0,0.0,0.0,0.0,0.0,-1.7168,-1.8197,-1.861,-1.7677,-1.6734,-1.5894,0.0,0.0,0.0,0.0,0.0,0.0,0.0,0.0,0.0,0.0,0.0,0.0,0.0,0.0,0.0,0.0,0.0,0.0,0.0,0.0,0.0,0.0,0.0,0.0,0.0,0.0,0.0,0.0,0.0,0.0,0.0,0.0,0.0,0.0,0.0,0.0,0.0,0.0,0.0,0.0,0.0,0.0,0.0,0.0,0.0,0.0,0.0,0.0,0.0,0.0,0.0,0.0,0.0,0.0,0.0,0.0,0.0,0.0,0.0,0.0,0.0,0.0,0.0,0.0,0.0,0.0,0.0,0.0,0.0,0.0,0.0,0.0,0.0,0.0,0.0,0.0,0.0,0.0,0.0,0.0,0.0,0.0,0.0,0.0,0.0,0.0,0.0,0.0,0.0,0.0,0.0,0.0,0.0,0.0,0.0,0.0,0.0,0.0,0.0,0.0,0.0,0.0,0.0,0.0,0.0,0.0,0.0,0.0,-1.428,-1.7148,-1.8768,-1.8605,-1.7098,-1.5871,0.0,0.0,0.0,0.0,0.0,0.0,0.0,0.0,0.0,0.0,0.0,0.0,0.0,0.0,0.0,0.0,0.0,0.0,0.0,0.0,0.0,0.0,0.0,0.0,0.0,0.0,0.0,0.0,0.0,0.0,0.0,0.0,0.0,0.0,0.0,0.0,0.0,0.0,0.0,0.0,0.0,0.0,0.0,0.0,0.0,0.0,0.0,0.0,0.0,0.0,0.0,0.0,0.0,0.0,0.0,0.0,0.0,0.0,0.0,0.0,0.0,0.0,0.0,0.0,0.0,0.0,0.0,0.0,0.0,0.0,0.0,0.0,0.0,0.0,0.0,0.0,0.0,0.0,0.0,0.0,0.0,0.0,0.0,0.0,0.0,0.0,0.0,0.0,0.0,0.0,0.0,0.0,0.0,0.0,0.0,0.0,0.0,0.0,0.0,0.0,0.0,0.0,0.0,0.0,0.0,0.0,0.0,0.0,0.0,-1.4186,-1.6107,-1.6928,-1.6337,-1.5727,-1.452,0.0,0.0,0.0,0.0,0.0,0.0,0.0,0.0,0.0,0.0,0.0,0.0,0.0,0.0,0.0,0.0,0.0,0.0,0.0,0.0,0.0,0.0,0.0,0.0,0.0,0.0,0.0,0.0,0.0,0.0,0.0,0.0,0.0,0.0,0.0,0.0,0.0,0.0,0.0,0.0,0.0,0.0,0.0,0.0,0.0,0.0,0.0,0.0,0.0,0.0,0.0,0.0,0.0,0.0,0.0,0.0,0.0,0.0,0.0,0.0,0.0,0.0,0.0,0.0,0.0,0.0,0.0,0.0,0.0,0.0,0.0,0.0,0.0,0.0,0.0,0.0,0.0,0.0,0.0,0.0,0.0,0.0,0.0,0.0,0.0,0.0,0.0,0.0,0.0,0.0,0.0,0.0,0.0,0.0,0.0,0.0,0.0,0.0,0.0,0.0,0.0,0.0,0.0,0.0,0.0,0.0,0.0,0.0,0.0,-1.565,0.0,-1.6249,-1.6185,-1.5139,-1.3766,0.0,0.0,0.0,0.0,0.0,0.0,0.0,0.0,0.0,0.0,0.0,0.0,0.0,0.0,0.0,0.0,0.0,0.0,0.0,0.0,0.0,0.0,0.0,0.0,0.0,0.0,0.0,0.0,0.0,0.0,0.0,0.0,0.0,0.0,0.0,0.0,0.0,0.0,0.0,0.0,0.0,0.0,0.0,0.0,0.0,0.0,0.0,0.0,0.0,0.0,0.0,0.0,0.0,0.0,0.0,0.0,0.0,0.0,0.0,0.0,0.0,0.0,0.0,0.0,0.0,0.0,0.0,0.0,0.0,0.0,0.0,0.0,0.0,0.0,0.0,0.0,0.0,0.0,0.0,0.0,0.0,0.0,0.0,0.0,0.0,0.0,0.0,0.0,0.0,0.0,0.0,0.0,0.0,0.0,0.0,0.0,0.0,0.0,0.0,0.0,0.0,0.0,0.0,0.0,0.0,0.0,0.0,0.0,-1.8979,-1.877,-1.716,-1.6994,-1.8472,-1.5388,-1.3686,0.0,0.0,0.0,0.0,0.0,0.0,0.0,0.0,0.0,0.0,0.0,0.0,0.0,0.0,0.0,0.0,0.0,0.0,0.0,0.0,0.0,0.0,0.0,0.0,0.0,0.0,0.0,0.0,0.0,0.0,0.0,0.0,0.0,0.0,0.0,0.0,0.0,0.0,0.0,0.0,0.0,0.0,0.0,0.0,0.0,0.0,0.0,0.0,0.0,0.0,0.0,0.0,0.0,0.0,0.0,0.0,0.0,0.0,0.0,0.0,0.0,0.0,0.0,0.0,0.0,0.0,0.0,0.0,0.0,0.0,0.0,0.0,0.0,0.0,0.0,0.0,0.0,0.0,0.0,0.0,0.0,0.0,0.0,0.0,0.0,0.0,0.0,0.0,0.0,0.0,0.0,0.0,0.0,0.0,0.0,0.0,0.0,0.0,0.0,0.0,0.0,0.0,0.0,0.0,0.0,0.0,0.0,0.0,0.0,-1.8079,-1.7457,-1.6804,-1.6147,-1.457,-1.3152,0.0,0.0,0.0,0.0,0.0,0.0,0.0,0.0,0.0,0.0,0.0,0.0,0.0,0.0,0.0,0.0,0.0,0.0,0.0,0.0,0.0,0.0,0.0,0.0,0.0,0.0,0.0,0.0,0.0,0.0,0.0,0.0,0.0,0.0,0.0,0.0,0.0,0.0,0.0,0.0,0.0,0.0,0.0,0.0,0.0,0.0,0.0,0.0,0.0,0.0,0.0,0.0,0.0,0.0,0.0,0.0,0.0,0.0,0.0,0.0,0.0,0.0,0.0,0.0,0.0,0.0,0.0,0.0,0.0,0.0,0.0,0.0,0.0,0.0,0.0,0.0,0.0,0.0,0.0,0.0,0.0,0.0,0.0,0.0,0.0,0.0,0.0,0.0,0.0,0.0,0.0,0.0,0.0,0.0,0.0,0.0,0.0,0.0,0.0,0.0,0.0,0.0,0.0,0.0,0.0,0.0,0.0,0.0,0.0,-1.9079,-1.8662,-1.7941,-1.6883,-1.5135,-1.3538,-1.2189,0.0,0.0,0.0,0.0,0.0,0.0,0.0,0.0,0.0,0.0,0.0,0.0,0.0,0.0,0.0,0.0,0.0,0.0,0.0,0.0,0.0,0.0,0.0,0.0,0.0,0.0,0.0,0.0,0.0,0.0,0.0,0.0,0.0,0.0,0.0,0.0,0.0,0.0,0.0,0.0,0.0,0.0,0.0,0.0,0.0,0.0,0.0,0.0,0.0,0.0,0.0,0.0,0.0,0.0,0.0,0.0,0.0,0.0,0.0,0.0,0.0,0.0,0.0,0.0,0.0,0.0,0.0,0.0,0.0,0.0,0.0,0.0,0.0,0.0,0.0,0.0,0.0,0.0,0.0,0.0,0.0,0.0,0.0,0.0,0.0,0.0,0.0,0.0,0.0,0.0,0.0,0.0,0.0,0.0,0.0,0.0,0.0,0.0,0.0,0.0,0.0,0.0,0.0,0.0,0.0,0.0,0.0,0.0,-2.1578,-2.075,-2.0218,-1.9974,-1.6871,-1.471,0.0,0.0,0.0,0.0,0.0,0.0,0.0,0.0,0.0,0.0,0.0,0.0,0.0,0.0,0.0,0.0,0.0,0.0,0.0,0.0,0.0,0.0,0.0,0.0,0.0,0.0,0.0,0.0,0.0,0.0,0.0,0.0,0.0,0.0,0.0,0.0,0.0,0.0,0.0,0.0,0.0,0.0,0.0,0.0,0.0,0.0,0.0,0.0,0.0,0.0,0.0,0.0,0.0,0.0,0.0,0.0,0.0,0.0,0.0,0.0,0.0,0.0,0.0,0.0,0.0,0.0,0.0,0.0,0.0,0.0,0.0,0.0,0.0,0.0,0.0,0.0,0.0,0.0,0.0,0.0,0.0,0.0,0.0,0.0,0.0,0.0,0.0,0.0,0.0,0.0,0.0,0.0,0.0,0.0,0.0,0.0,0.0,0.0,0.0,0.0,0.0,0.0,0.0,0.0,0.0,0.0,0.0,0.0,0.0,-2.4055,-2.3827,-2.2798,-2.0916,-1.8264,-1.6165,0.0,0.0,0.0,0.0,0.0,0.0,0.0,0.0,0.0,0.0,0.0,0.0,0.0,0.0,0.0,0.0,0.0,0.0,0.0,0.0,0.0,0.0,0.0,0.0,0.0,0.0,0.0,0.0,0.0,0.0,0.0,0.0,0.0,0.0,0.0,0.0,0.0,0.0,0.0,0.0,0.0,0.0,0.0,0.0,0.0,0.0,0.0,0.0,0.0,0.0,0.0,0.0,0.0,0.0,0.0,0.0,0.0,0.0,0.0,0.0,0.0,0.0,0.0,0.0,0.0,0.0,0.0,0.0,0.0,0.0,0.0,0.0,0.0,0.0,0.0,0.0,0.0,0.0,0.0,0.0,0.0,0.0,0.0,0.0,0.0,0.0,0.0,0.0,0.0,0.0,0.0,0.0,0.0,0.0,0.0,0.0,0.0,0.0,0.0,0.0,0.0,0.0,0.0,0.0,0.0,0.0,0.0,0.0,-2.3414,-2.5072,-2.5716,-2.5174,-2.3348,-2.0215,-1.7776,0.0,0.0,0.0,0.0,0.0,0.0,0.0,0.0,0.0,0.0,0.0,0.0,0.0,0.0,0.0,0.0,0.0,0.0,0.0,0.0,0.0,0.0,0.0,0.0,0.0,0.0,0.0,0.0,0.0,0.0,0.0,0.0,0.0,0.0,0.0,0.0,0.0,0.0,0.0,0.0,0.0,0.0,0.0,0.0,0.0,0.0,0.0,0.0,0.0,0.0,0.0,0.0,0.0,0.0,0.0,0.0,0.0,0.0,0.0,0.0,0.0,0.0,0.0,0.0,0.0,0.0,0.0,0.0,0.0,0.0,0.0,0.0,0.0,0.0,0.0,0.0,0.0,0.0,0.0,0.0,0.0,0.0,0.0,0.0,0.0,0.0,0.0,0.0,0.0,0.0,0.0,0.0,0.0,0.0,0.0,0.0,0.0,0.0,0.0,0.0,0.0,0.0,0.0,0.0,0.0,0.0,0.0,0.0,-2.3676,-2.5328,-2.683,-2.7259,-2.6387,-2.2514,-1.9514,0.0,0.0,0.0,0.0,0.0,0.0,0.0,0.0,0.0,0.0,0.0,0.0,0.0,0.0,0.0,0.0,0.0,0.0,0.0,0.0,0.0,0.0,0.0,0.0,0.0,0.0,0.0,0.0,0.0,0.0,0.0,0.0,0.0,0.0,0.0,0.0,0.0,0.0,0.0,0.0,0.0,0.0,0.0,0.0,0.0,0.0,0.0,0.0,0.0,0.0,0.0,0.0,0.0,0.0,0.0,0.0,0.0,0.0,0.0,0.0,0.0,0.0,0.0,0.0,0.0,0.0,0.0,0.0,0.0,0.0,0.0,0.0,0.0,0.0,0.0,0.0,0.0,0.0,0.0,0.0,0.0,0.0,0.0,0.0,0.0,0.0,0.0,0.0,0.0,0.0,0.0,0.0,0.0,0.0,0.0,0.0,0.0,0.0,0.0,0.0,0.0,0.0,0.0,0.0,0.0,0.0,0.0,0.0,-2.5367,-2.6961,-2.7941,-2.8343,-2.8154,-2.475,-2.1528,0.0,0.0,0.0,0.0,0.0,0.0,0.0,0.0,0.0,0.0,0.0,0.0,0.0,0.0,0.0,0.0,0.0,0.0,0.0,0.0,0.0,0.0,0.0,0.0,0.0,0.0,0.0,0.0,0.0,0.0,0.0,0.0,0.0,0.0,0.0,0.0,0.0,0.0,0.0,0.0,0.0,0.0,0.0,0.0,0.0,0.0,0.0,0.0,-1.1568,0.0,0.0,0.0,0.0,0.0,0.0,0.0,0.0,0.0,0.0,0.0,0.0,0.0,0.0,0.0,0.0,0.0,0.0,0.0,0.0,0.0,0.0,0.0,0.0,0.0,0.0,0.0,0.0,0.0,0.0,0.0,0.0,0.0,0.0,0.0,0.0,0.0,0.0,0.0,0.0,0.0,0.0,0.0,0.0,0.0,0.0,0.0,0.0,0.0,0.0,0.0,0.0,0.0,0.0,0.0,0.0,0.0,0.0,0.0,-2.6984,-2.8616,-2.9455,-2.9688,-2.9233,-2.6835,-2.3916,0.0,0.0,0.0,0.0,0.0,0.0,0.0,0.0,0.0,0.0,0.0,0.0,0.0,0.0,0.0,0.0,0.0,0.0,0.0,0.0,0.0,0.0,0.0,0.0,0.0,0.0,0.0,0.0,0.0,0.0,0.0,0.0,0.0,0.0,0.0,0.0,0.0,0.0,0.0,0.0,0.0,0.0,0.0,0.0,0.0,0.0,0.0,0.0,0.0,0.0,0.0,0.0,0.0,0.0,0.0,0.0,0.0,0.0,0.0,0.0,0.0,0.0,0.0,0.0,0.0,0.0,0.0,0.0,0.0,0.0,0.0,0.0,0.0,0.0,0.0,0.0,0.0,0.0,0.0,0.0,0.0,0.0,0.0,0.0,0.0,0.0,0.0,0.0,0.0,0.0,0.0,0.0,0.0,0.0,0.0,0.0,0.0,0.0,0.0,0.0,0.0,0.0,0.0,0.0,0.0,0.0,0.0,-2.621,-2.8226,-2.9921,-3.0768,-3.0789,-2.9948,-2.8203,-2.5816,-2.2723,0.0,0.0,0.0,0.0,0.0,0.0,0.0,0.0,0.0,0.0,0.0,0.0,0.0,0.0,0.0,0.0,0.0,0.0,0.0,0.0,0.0,0.0,0.0,0.0,0.0,0.0,0.0,0.0,0.0,0.0,0.0,0.0,0.0,0.0,0.0,0.0,0.0,0.0,-0.9734,-1.1293,0.0,0.0,0.0,0.0,0.0,0.0,0.0,0.0,-1.1321,0.0,0.0,0.0,0.0,0.0,0.0,0.0,0.0,0.0,0.0,0.0,0.0,0.0,0.0,0.0,0.0,0.0,0.0,0.0,0.0,0.0,0.0,0.0,0.0,0.0,0.0,0.0,0.0,0.0,0.0,0.0,0.0,0.0,0.0,0.0,0.0,0.0,0.0,0.0,0.0,0.0,0.0,0.0,0.0,0.0,0.0,0.0,0.0,0.0,0.0,0.0,0.0,0.0,0.0,0.0,0.0,-2.3769,-2.6109,-2.8145,-2.9796,-3.0627,-3.0628,-2.9725,-2.7452,-2.5329,-2.3335,0.0,0.0,0.0,0.0,0.0,0.0,0.0,0.0,0.0,0.0,0.0,0.0,0.0,0.0,0.0,0.0,0.0,0.0,0.0,0.0,0.0,0.0,0.0,0.0,0.0,0.0,0.0,0.0,0.0,0.0,0.0,0.0,0.0,0.0,0.0,0.0,0.0,0.0,0.0,-1.3286,-1.4227,0.0,0.0,0.0,0.0,0.0,0.0,0.0,0.0,-1.1993,0.0,0.0,0.0,0.0,0.0,0.0,0.0,0.0,0.0,0.0,0.0,0.0,0.0,0.0,0.0,0.0,0.0,0.0,0.0,0.0,0.0,0.0,0.0,0.0,0.0,0.0,0.0,0.0,0.0,0.0,0.0,0.0,0.0,0.0,0.0,0.0,0.0,0.0,0.0,0.0,0.0,0.0,0.0,0.0,0.0,0.0,0.0,0.0,0.0,0.0,0.0,0.0,0.0,0.0,0.0,-2.4129,-2.6621,-2.863,-3.0237,-3.033,-2.9925,-2.9024,-2.6547,-2.4242,0.0,0.0,0.0,0.0,0.0,0.0,0.0,0.0,0.0,0.0,0.0,0.0,0.0,0.0,0.0,0.0,0.0,0.0,0.0,0.0,0.0,0.0,0.0,0.0,0.0,0.0,0.0,0.0,0.0,0.0,0.0,0.0,0.0,0.0,0.0,0.0,0.0,0.0,0.0,0.0,-1.4076,-1.4582,-1.4254,0.0,0.0,0.0,0.0,0.0,0.0,-1.2799,-1.2444,0.0,0.0,0.0,0.0,0.0,0.0,0.0,0.0,0.0,0.0,0.0,0.0,0.0,0.0,0.0,0.0,0.0,0.0,0.0,0.0,0.0,0.0,0.0,0.0,0.0,0.0,0.0,0.0,0.0,0.0,0.0,0.0,0.0,0.0,0.0,0.0,0.0,0.0,0.0,0.0,0.0,0.0,0.0,0.0,0.0,0.0,0.0,0.0,0.0,0.0,0.0,0.0,0.0,0.0,0.0,-2.4655,-2.7105,-2.9082,-3.0665,-3.0039,-2.9157,-2.8117,-2.5606,-2.3115,0.0,0.0,0.0,0.0,0.0,0.0,0.0,0.0,0.0,0.0,0.0,0.0,0.0,0.0,0.0,0.0,0.0,0.0,0.0,0.0,0.0,0.0,0.0,0.0,0.0,0.0,0.0,0.0,0.0,0.0,0.0,0.0,0.0,0.0,0.0,0.0,0.0,0.0,0.0,0.0,0.0,-1.4771,-1.4974,-1.4506,0.0,0.0,0.0,0.0,-1.3974,-1.3765,0.0,0.0,0.0,0.0,0.0,0.0,0.0,0.0,0.0,0.0,0.0,0.0,0.0,0.0,0.0,0.0,0.0,0.0,0.0,0.0,0.0,0.0,0.0,0.0,0.0,0.0,0.0,0.0,0.0,0.0,0.0,0.0,0.0,0.0,0.0,0.0,0.0,0.0,0.0,0.0,0.0,0.0,0.0,0.0,0.0,0.0,0.0,0.0,0.0,0.0,0.0,0.0,0.0,0.0,0.0,0.0,-2.4673,-2.7052,-2.9015,-3.0567,-2.9923,-2.8764,-2.7195,-2.4693,-2.2213,0.0,0.0,0.0,0.0,0.0,0.0,0.0,0.0,0.0,0.0,0.0,0.0,0.0,0.0,0.0,0.0,0.0,0.0,0.0,0.0,0.0,0.0,0.0,0.0,0.0,0.0,0.0,0.0,0.0,0.0,0.0,0.0,0.0,0.0,0.0,0.0,0.0,0.0,0.0,0.0,0.0,-1.5625,-1.6292,-1.626,-1.6185,0.0,0.0,-1.5875,-1.4857,-1.5547,0.0,0.0,0.0,0.0,0.0,0.0,0.0,0.0,0.0,0.0,0.0,0.0,0.0,0.0,0.0,0.0,0.0,0.0,0.0,0.0,0.0,0.0,0.0,0.0,0.0,0.0,0.0,0.0,0.0,0.0,0.0,0.0,0.0,0.0,0.0,0.0,0.0,0.0,0.0,0.0,0.0,0.0,0.0,0.0,0.0,0.0,0.0,0.0,0.0,0.0,0.0,0.0,0.0,0.0,0.0,-1.9756,-2.4561,-2.6102,-2.7596,-2.9104,-2.7978,-2.6777,-2.5559,-2.3486,-2.1269,0.0,0.0,0.0,0.0,0.0,0.0,0.0,0.0,0.0,0.0,0.0,0.0,0.0,0.0,0.0,0.0,0.0,0.0,0.0,0.0,0.0,0.0,0.0,0.0,0.0,0.0,0.0,0.0,0.0,0.0,0.0,0.0,0.0,0.0,0.0,0.0,0.0,0.0,0.0,0.0,0.0,0.0,-1.65,-1.6913,0.0,0.0,0.0,-1.7519,-1.6577,0.0,0.0,0.0,0.0,0.0,0.0,0.0,0.0,0.0,0.0,0.0,0.0,0.0,0.0,0.0,0.0,0.0,0.0,0.0,0.0,0.0,0.0,0.0,0.0,0.0,0.0,0.0,0.0,0.0,0.0,0.0,0.0,0.0,0.0,0.0,0.0,0.0,0.0,0.0,0.0,0.0,0.0,0.0,0.0,0.0,0.0,0.0,0.0,0.0,0.0,0.0,0.0,0.0,0.0,0.0,0.0,0.0,-2.4001,-2.5161,-2.6396,-2.7706,-2.6628,-2.5411,-2.4123,-2.2815,0.0,0.0,0.0,0.0,0.0,0.0,0.0,0.0,0.0,0.0,0.0,0.0,0.0,0.0,0.0,0.0,0.0,0.0,0.0,0.0,0.0,0.0,0.0,0.0,0.0,0.0,0.0,-0.7677,0.0,0.0,0.0,0.0,0.0,0.0,0.0,0.0,0.0,0.0,0.0,0.0,0.0,0.0,-1.6099,-1.6783,-1.7434,-1.7894,0.0,0.0,-1.8909,-1.8087,-1.8087,-1.7474,0.0,0.0,0.0,0.0,0.0,0.0,0.0,0.0,0.0,0.0,0.0,0.0,0.0,0.0,0.0,0.0,0.0,0.0,0.0,0.0,0.0,0.0,0.0,0.0,0.0,0.0,0.0,0.0,0.0,0.0,0.0,0.0,0.0,0.0,0.0,0.0,0.0,0.0,0.0,0.0,0.0,0.0,0.0,0.0,0.0,0.0,0.0,0.0,0.0,0.0,0.0,0.0,0.0,0.0,0.0,-2.2383,-2.4593,-2.6098,-2.6925,-2.6869,-2.569,-2.338,-2.3108,-2.1158,0.0,0.0,0.0,0.0,0.0,0.0,0.0,0.0,0.0,0.0,0.0,0.0,0.0,0.0,0.0,0.0,0.0,0.0,0.0,0.0,0.0,0.0,0.0,0.0,0.0,0.0,0.0,0.0,0.0,0.0,0.0,0.0,0.0,0.0,0.0,0.0,0.0,0.0,0.0,0.0,0.0,-1.6783,-1.7517,-1.8138,-1.8778,0.0,0.0,-2.012,-1.8837,-1.9151,-1.8704,-1.6144,0.0,0.0,0.0,0.0,0.0,0.0,0.0,0.0,0.0,0.0,0.0,0.0,0.0,0.0,0.0,0.0,0.0,0.0,0.0,0.0,0.0,0.0,0.0,0.0,0.0,0.0,0.0,0.0,0.0,0.0,0.0,0.0,0.0,0.0,0.0,0.0,0.0,0.0,0.0,0.0,0.0,0.0,0.0,0.0,0.0,0.0,0.0,0.0,0.0,0.0,0.0,0.0,0.0,-1.8446,-2.224,-2.3521,-2.4817,-2.608,-2.5689,-2.4732,-2.324,-2.2696,-2.0982,0.0,0.0,0.0,0.0,0.0,0.0,0.0,0.0,0.0,0.0,0.0,0.0,0.0,0.0,0.0,0.0,0.0,0.0,0.0,0.0,0.0,0.0,0.0,0.0,0.0,0.0,0.0,0.0,-0.6657,-0.678,-0.7537,0.0,0.0,0.0,0.0,0.0,0.0,0.0,0.0,0.0,0.0,-1.7068,-1.8162,-1.8862,0.0,0.0,-2.0887,-2.1006,-2.0075,-1.9813,-1.8929,-1.6712,-1.5262,0.0,0.0,0.0,0.0,0.0,0.0,0.0,0.0,0.0,0.0,0.0,0.0,0.0,0.0,0.0,0.0,0.0,0.0,0.0,0.0,0.0,0.0,0.0,0.0,0.0,0.0,0.0,0.0,0.0,0.0,0.0,0.0,0.0,0.0,0.0,0.0,0.0,0.0,0.0,0.0,0.0,0.0,0.0,0.0,0.0,0.0,0.0,0.0,0.0,0.0,0.0,0.0,-1.7888,-2.1474,-2.2637,-2.3898,-2.5308,-2.502,-2.4231,-2.2906,-2.2534,-2.096,0.0,0.0,0.0,0.0,0.0,0.0,0.0,0.0,0.0,0.0,0.0,0.0,0.0,0.0,0.0,0.0,0.0,0.0,0.0,0.0,0.0,0.0,0.0,0.0,0.0,0.0,0.0,0.0,-0.6827,-0.702,-0.7549,0.0,0.0,0.0,0.0,0.0,0.0,0.0,0.0,0.0,0.0,-1.7413,-1.8538,-1.9435,-2.0168,-2.0628,-2.144,-2.168,-2.0823,-2.0139,-1.9136,-1.7563,0.0,0.0,0.0,0.0,0.0,0.0,0.0,0.0,0.0,0.0,0.0,0.0,0.0,0.0,0.0,0.0,0.0,0.0,0.0,0.0,0.0,0.0,0.0,0.0,0.0,0.0,0.0,0.0,0.0,0.0,-1.021,0.0,0.0,0.0,0.0,0.0,0.0,0.0,0.0,0.0,0.0,0.0,0.0,0.0,0.0,0.0,0.0,0.0,0.0,0.0,0.0,0.0,0.0,-1.7308,-1.9738,-2.201,-2.3619,-2.4518,-2.5271,-2.4472,-2.2163,-2.2757,-2.1231,-1.7157,0.0,0.0,0.0,0.0,0.0,0.0,0.0,0.0,0.0,0.0,0.0,0.0,0.0,0.0,0.0,0.0,0.0,0.0,0.0,0.0,0.0,0.0,0.0,0.0,0.0,0.0,-0.7597,-0.7565,-0.7577,0.0,0.0,0.0,0.0,0.0,0.0,0.0,0.0,0.0,0.0,-1.6563,-1.7921,-1.8625,-1.9836,-2.0688,-2.0733,-2.1829,-2.2224,-2.0912,-2.0139,-1.945,0.0,0.0,0.0,0.0,0.0,0.0,0.0,0.0,0.0,0.0,0.0,0.0,0.0,0.0,0.0,0.0,0.0,0.0,0.0,0.0,0.0,0.0,0.0,0.0,0.0,0.0,0.0,-1.5457,-1.4705,0.0,0.0,0.0,0.0,0.0,0.0,0.0,0.0,0.0,0.0,0.0,-1.8386,-1.7853,0.0,0.0,0.0,0.0,0.0,0.0,0.0,0.0,0.0,0.0,0.0,0.0,-1.6704,-1.9619,-2.1436,-2.2987,-2.433,-2.4616,-2.3867,-2.2006,-2.2191,-2.0354,-1.6152,0.0,0.0,0.0,0.0,0.0,0.0,0.0,0.0,0.0,0.0,0.0,0.0,0.0,0.0,0.0,0.0,0.0,0.0,0.0,0.0,0.0,0.0,0.0,0.0,0.0,-0.8438,0.0,0.0,0.0,0.0,0.0,0.0,0.0,0.0,0.0,0.0,0.0,-1.3575,-1.594,-1.748,-1.8777,-1.9866,-2.0812,-2.153,0.0,0.0,0.0,0.0,0.0,0.0,0.0,0.0,0.0,0.0,0.0,0.0,0.0,0.0,-1.5854,-1.5184,-1.4761,-1.4607,-1.4865,0.0,0.0,0.0,0.0,0.0,0.0,0.0,0.0,0.0,0.0,0.0,0.0,0.0,0.0,-1.7847,0.0,-1.712,0.0,0.0,0.0,0.0,0.0,0.0,0.0,0.0,-2.1939,-2.2287,-2.1814,-2.1029,-2.079,0.0,-2.1378,-2.0627,0.0,0.0,0.0,0.0,0.0,0.0,0.0,0.0,-1.7144,-2.0043,-2.1564,-2.2955,-2.422,-2.4294,-2.3518,-2.1947,-2.1029,-1.9211,-1.6356,-1.4915,-1.3225,0.0,0.0,0.0,0.0,0.0,0.0,0.0,0.0,0.0,0.0,0.0,0.0,0.0,0.0,0.0,0.0,0.0,0.0,0.0,0.0,0.0,0.0,0.0,-0.9006,0.0,0.0,0.0,0.0,0.0,0.0,0.0,0.0,0.0,-1.1648,-1.2612,-1.42,-1.6547,-1.7719,-1.8909,-2.0479,0.0,0.0,0.0,0.0,0.0,0.0,0.0,-2.0393,-2.0397,-1.9733,-1.9401,-2.0019,-1.9754,-1.9248,-1.8721,0.0,0.0,-1.7575,-1.7013,-1.6847,-1.738,-1.6368,-1.5428,-1.5383,-1.4931,-1.4484,0.0,0.0,0.0,0.0,0.0,0.0,0.0,0.0,-2.0233,-1.9445,0.0,-1.8791,0.0,0.0,0.0,0.0,0.0,0.0,0.0,0.0,-2.4607,-2.5043,-2.5088,-2.4297,-2.4396,-2.5153,-2.4345,-2.3894,-2.3689,-2.0746,0.0,0.0,0.0,0.0,0.0,0.0,-1.852,-2.0875,-2.2356,-2.3472,-2.4248,-2.4284,-2.3537,-2.192,-1.9514,-1.8073,-1.7617,-1.5443,-1.369,-1.2631,-1.1143,0.0,0.0,0.0,0.0,0.0,0.0,0.0,0.0,0.0,0.0,0.0,0.0,0.0,0.0,0.0,0.0,0.0,0.0,0.0,0.0,-0.9815,0.0,0.0,0.0,0.0,0.0,0.0,0.0,0.0,0.0,0.0,-1.2445,-1.3316,-1.4649,-1.6593,0.0,0.0,0.0,0.0,-2.2957,-2.355,-2.4186,-2.438,-2.3729,-2.2547,-2.1724,-2.1739,0.0,0.0,-2.1289,-2.111,-2.0784,-2.0391,-2.0493,-2.0267,-1.9317,-1.8596,-1.8376,-1.9261,-1.8194,-1.7155,-1.7019,-1.6369,-1.5587,-2.74,0.0,0.0,0.0,0.0,-2.3877,-2.3698,-2.3619,-2.3367,-2.3135,-2.2873,-2.2332,0.0,0.0,0.0,0.0,0.0,0.0,-2.3786,-2.5666,-2.6459,-2.6859,-2.6848,-2.6059,-2.581,-2.6045,-2.5816,-2.5396,-2.4847,-2.4512,-2.2556,-1.9039,0.0,0.0,0.0,0.0,-1.927,-2.1585,-2.2577,-2.3419,-2.4209,-2.4228,-2.3465,-2.1874,-2.0478,-1.9073,-1.7669,-1.6425,-1.4743,-1.2637,-1.1601,0.0,0.0,0.0,0.0,0.0,0.0,0.0,0.0,0.0,0.0,0.0,0.0,0.0,0.0,0.0,0.0,0.0,0.0,0.0,-1.0491,-1.0467,-1.037,0.0,0.0,0.0,0.0,0.0,0.0,0.0,0.0,0.0,-1.4747,-1.5042,-1.5798,0.0,0.0,-1.9151,-2.1141,-2.2517,-2.358,-2.4216,0.0,0.0,0.0,-2.3251,-2.2547,-2.2981,-2.2744,-2.2649,-2.306,-2.2913,-2.2765,-2.2893,-2.2478,-2.2032,-2.1959,-2.0713,-1.9915,-2.0225,-1.965,-1.8985,-1.8853,-1.8334,-1.7752,-3.1583,-2.85,-2.7393,-2.6884,-2.6752,-2.6712,-2.6652,-2.6531,-2.6224,-2.6083,-2.5989,-2.526,-2.4486,-2.3717,-2.3466,0.0,0.0,0.0,-2.6651,-2.7918,-2.8413,-2.8628,-2.8572,-2.7765,-2.7389,-2.737,-2.7389,-2.6975,-2.6198,-2.7051,-2.5981,-2.3089,0.0,0.0,-2.0185,-2.0,-2.0765,-2.2463,-2.3132,-2.3712,-2.4199,-2.3878,-2.3107,-2.1849,-2.0884,-1.9665,-1.8127,-1.7006,-1.5345,-1.304,-1.1954,-1.071,0.0,0.0,0.0,0.0,0.0,0.0,0.0,0.0,0.0,0.0,0.0,-0.917,-0.9429,0.0,0.0,0.0,-1.0036,-1.073,-1.1124,-1.1637,0.0,0.0,0.0,0.0,0.0,0.0,0.0,-1.321,-1.4641,-1.5724,-1.6084,-1.6368,-1.6937,-1.7953,-1.8446,-1.9435,-2.1425,0.0,-2.3655,-2.4814,-2.5322,-2.5555,-2.542,-2.4522,-2.3857,-2.3866,-2.3548,-2.3444,-2.3816,-2.3524,-2.3393,-2.3642,-2.315,-2.2637,-2.2765,-2.1863,-2.124,-2.155,-2.0887,-2.0215,-2.003,-1.9434,-1.875,-3.5003,-3.398,-3.1455,-3.0182,-2.9813,-2.9805,-2.9728,-2.9563,-2.8835,-2.8481,-2.837,-2.7708,-2.6957,-2.625,-2.6625,0.0,-2.802,-2.8842,-2.9607,-3.0379,-3.0333,-3.03,-3.0261,-2.9414,-2.9013,-2.9006,-2.8994,-2.8612,-2.7943,-2.865,-2.8574,-2.774,-2.4722,-2.3045,-2.2787,-2.2531,-2.2738,-2.3372,-2.3925,-2.4226,-2.4281,-2.3511,-2.2712,-2.1904,-2.0993,-1.9964,-1.8834,-1.7265,-1.5531,-1.3672,-1.2248,-1.0786,-0.9311,0.0,0.0,0.0,0.0,0.0,0.0,0.0,0.0,0.0,0.0,0.0,0.0,0.0,0.0,0.0,-1.1002,0.0,-1.195,-1.3158,0.0,0.0,0.0,-1.2239,-1.2708,-1.3112,-1.3796,-1.4864,0.0,0.0,-1.6753,0.0,-1.8027,-1.8687,-1.8747,-1.942,-2.135,-2.2173,-2.3302,-2.5061,-2.5525,-2.5854,-2.6333,-2.5959,-2.5237,-2.4391,-2.3784,-2.3591,-2.3888,-2.3444,-2.3146,-2.3727,-2.3065,-2.2573,-2.2433,-2.2489,-2.2555,-2.2953,-2.1941,-2.0955,-2.0721,-1.9984,-1.923,-3.8182,-3.6674,-3.5349,-3.3571,-3.1674,-3.1666,-3.1581,-3.1455,-3.1239,-3.1145,-3.1099,-3.0387,-2.9658,-2.9033,-2.9234,-2.9799,-3.0612,-3.0805,-3.1334,-3.2038,-3.1465,-3.1197,-3.114,-3.03,-2.9879,-2.9898,-2.9898,-2.9784,-2.9612,-2.9784,-2.9452,-2.8612,-2.7797,-2.6715,-2.5327,-2.4515,-2.4115,-2.4128,-2.4174,-2.4493,-2.5081,-2.4337,-2.352,-2.2712,-2.1798,-2.0526,-1.8843,-1.7247,-1.5531,-1.3697,-1.2724,-1.1557,-1.0031,-0.9933,0.0,0.0,0.0,0.0,0.0,0.0,0.0,0.0,0.0,-0.981,-0.9923,0.0,-1.0584,0.0,-1.1742,-1.2979,-1.4034,-1.4449,0.0,0.0,-1.4158,-1.4164,-1.4212,-1.4977,-1.5631,-1.5846,-1.6804,-1.7621,-1.8145,-1.8356,-1.8732,-1.9346,-1.9016,-1.9256,-2.0703,-2.15,-2.2428,-2.3849,-2.4971,-2.5839,-2.6437,-2.6467,-2.5872,-2.4515,-2.4168,-2.4208,-2.4592,-2.4085,-2.3974,-2.492,-2.4303,-2.3793,-2.4086,-2.3481,-2.3048,-2.3463,-2.2729,-2.182,-2.1576,-2.1399,-2.1196,-3.8916,-3.7636,-3.6717,-3.5275,-3.3542,-3.3478,-3.3422,-3.3317,-3.2958,-3.2817,-3.2779,-3.2392,-3.201,-3.1746,-3.2627,-3.3047,-3.3165,-3.3544,-3.3555,-3.3242,-3.2413,-3.1821,-3.1427,-3.0605,-3.0204,-3.0204,-3.0204,-3.0204,-3.023,-3.0548,-3.0491,-3.0025,-3.04,-2.9708,-2.7925,-2.6197,-2.5217,-2.5006,-2.4469,-2.4586,-2.5348,-2.4612,-2.3823,-2.3024,-2.2091,-2.0726,-1.8914,-1.7263,-1.5704,-1.4255,-1.3132,-1.1985,-1.0808,-1.0728,-1.0728,0.0,0.0,0.0,0.0,0.0,0.0,0.0,0.0,0.0,0.0,0.0,-1.2127,0.0,-1.3794,-1.481,-1.6196,-1.6629,-1.6694,-1.637,-1.6326,-1.6261,-1.6139,-1.6594,-1.6973,-1.7128,-1.7516,-1.8003,-1.8578,-1.8648,-1.8887,-1.9546,-1.9358,-1.9525,-2.0479,-2.1036,-2.1814,-2.3355,-2.4492,-2.5501,-2.6437,-2.6284,-2.5682,-2.4574,-2.4246,-2.4359,-2.4796,-2.4365,-2.421,-2.5052,-2.4312,-2.3563,-2.3905,-2.3461,-2.3047,-2.3256,-2.3157,-2.2758,-2.2448,-2.2383,-2.2332,-3.8744,-3.7808,-3.7057,-3.6231,-3.5434,-3.5296,-3.5154,-3.487,-3.4168,-3.3874,-3.3892,-3.3997,-3.4013,-3.4099,-3.5749,-3.6023,-3.5267,-3.5984,-3.5553,-3.4128,-3.3272,-3.2477,-3.1713,-3.0796,-3.0357,-3.0364,-3.0249,-3.0268,-3.0376,-3.1057,-3.1439,-3.1591,-3.2317,-3.1886,-3.0217,-2.7733,-2.6166,-2.5634,-2.469,-2.4633,-2.5521,-2.4677,-2.3859,-2.3153,-2.2155,-2.0753,-1.8958,-1.7402,-1.6115,-1.5093,-1.3773,-1.2678,-1.1892,-1.184,-1.1868,0.0,-1.1706,0.0,0.0,0.0,0.0,0.0,0.0,0.0,0.0,-1.3325,-1.423,-1.6123,-1.6261,-1.684,-1.8232,-1.8975,-1.9121,-1.8589,-1.8508,-1.8421,-1.8216,-1.8141,-1.8193,-1.8439,-1.8281,-1.8327,-1.8745,-1.8765,-1.8986,-1.9579,-1.9693,-1.9936,-2.0543,-2.0632,-2.1231,-2.3116,-2.4088,-2.5083,-2.6031,-2.5854,-2.5216,-2.4566,-2.4361,-2.442,-2.497,-2.45,-2.4239,-2.4694,-2.3998,-2.3149,-2.3142,-2.3134,-2.3076,-2.325,-2.3499,-2.3536,-2.3229,-2.3157,-2.3128,-4.0138,-3.8744,-3.8582,-3.8,-3.7208,-3.7191,-3.6365,-3.5047,-3.4895,-3.4838,-3.4884,-3.5522,-3.5482,-3.502,-3.6025,-3.6023,-3.522,-3.5373,-3.5267,-3.4961,-3.414,-3.367,-3.3414,-3.1962,-3.1255,-3.1217,-3.0529,-3.0567,-3.1255,-3.1362,-3.1763,-3.2451,-3.2615,-3.2187,-3.1119,0.0,0.0,0.0,-2.4413,-2.4956,-2.6256,-2.4942,-2.4135,-2.3951,-2.2465,0.0,-1.9062,-1.8046,-1.7037,-1.6008,-1.5617,0.0,0.0,0.0,0.0,0.0,0.0,0.0,0.0,0.0,0.0,0.0,-1.4572,-1.4999,-1.4663,-1.565,-1.6702,-1.7614,-1.7714,-1.8297,-1.9738,-1.9997,-2.0256,-2.0661,-2.0694,-2.0469,-1.9861,-2.0064,-2.0067,-1.9358,-1.9463,-1.9624,-1.9677,-1.9655,-1.965,-1.9854,-1.9935,-2.0174,-2.0715,-2.0295,-2.0486,-2.1859,-2.3633,-2.4851,-2.5533,-2.5515,-2.5331,-2.5011,-2.4925,-2.5077,-2.545,-2.5056,-2.4878,-2.5429,-2.4573,-2.3838,-2.4264,-2.4041,-2.3751,-2.4331,-2.4128,-2.3759,-2.3512,-2.4113,-2.4683,-4.0157,0.0,-3.9011,-3.8495,0.0,-3.7693,-3.7208,-3.6344,-3.5963,-3.5562,-3.5257,-3.6458,-3.6571,-3.5855,-3.6301,-3.6023,-3.5182,-3.4789,-3.4598,-3.456,-3.3738,-3.3605,-3.3956,-3.2306,-3.1713,-3.2031,-3.0815,-3.0835,-3.205,-3.205,-3.2489,-3.3349,-3.3738,-3.3303,-3.2008,-2.9859,-2.7535,-2.5118,-2.4986,-2.5667,-2.7045,-2.5631,-2.4805,-2.475,0.0,0.0,0.0,0.0,0.0,0.0,0.0,0.0,0.0,0.0,0.0,-1.6311,-1.5928,-1.579,-1.6041,-1.5944,-1.5971,-1.6237,-1.7482,-1.7736,-1.6609,-1.7526,-1.844,-1.9107,-1.9188,-1.9771,-2.1163,-2.1681,-2.2151,-2.2798,-2.3219,-2.3154,-2.2474,-2.2229,-2.179,-2.0872,-2.0395,-2.0168,-2.0148,-2.0028,-1.9962,-2.0061,-2.008,-2.0304,-2.0736,-2.0501,-2.0872,-2.2817,-2.4417,-2.5563,-2.5803,-2.578,-2.5521,-2.5184,-2.5282,-2.55,-2.5745,-2.5517,-2.5429,-2.5658,-2.4772,-2.4022,-2.421,-2.3838,-2.3505,-2.3815,-2.4128,-2.4293,-2.4163,-2.4314,-2.4658,-3.9881,-3.9221,-3.9212,-3.882,-3.8171,-3.8323,-3.8362,-3.8285,0.0,0.0,0.0,-3.7254,-3.7406,-3.6519,-3.6653,-3.6156,-3.519,-3.4503,-3.4224,-3.4178,-3.3463,-3.352,-3.4128,-3.2649,-3.2298,-3.2833,-3.1389,-3.1427,-3.289,-3.2928,-3.3349,-3.4197,-3.4751,-3.4074,-3.2233,-2.9905,-2.7889,-2.6324,-2.5968,-2.6463,-2.7706,-2.6366,-2.5613,-2.5613,-2.4005,-2.242,-2.0913,-1.9834,-1.8849,-1.7968,-1.7091,-1.6588,-1.6521,-1.707,-1.7546,-1.789,-1.8358,-1.8608,-1.8576,-1.8346,-1.8422,-1.8879,-1.9846,-1.9935,-1.8748,-1.9348,-2.0061,-2.0807,-2.0872,-2.139,-2.2653,-2.3447,-2.4144,-2.4825,-2.5535,-2.5629,-2.479,-2.4225,-2.3358,-2.2186,-2.1164,-2.055,-2.0388,-2.0237,-2.0231,-2.0391,-2.0505,-2.074,-2.1318,-2.1472,-2.2048,-2.4022,-2.528,-2.6129,-2.6091,-2.5909,-2.5618,-2.5301,-2.5446,-2.5672,-2.5774,-2.5716,-2.5618,-2.5546,-2.4646,-2.4022,-2.3885,-2.3557,-2.3157,-2.3229,-2.4085,-2.4897,-2.5027,-2.4452,-2.4369,-4.0205,-4.011,-4.011,-4.0053,-3.9995,-4.0673,-4.0969,-4.0769,-3.8534,-3.7464,-3.7426,-3.8381,-3.796,-3.6538,-3.7215,-3.6661,-3.522,-3.5076,-3.5037,0.0,-3.4904,-3.4896,-3.498,-3.4082,-3.3708,-3.3738,-3.2814,-3.2852,-3.3727,-3.3823,-3.4216,-3.4846,-3.4464,-3.2963,-3.0655,-2.9315,-2.8453,-2.7939,-2.7131,-2.7078,-2.7761,-2.6906,-2.6429,-2.6355,-2.4869,-2.3593,-2.2658,-2.1059,-2.0019,-1.9638,-1.8758,-1.844,-1.8808,-1.8896,-1.9797,-2.1503,-2.1212,-2.1105,-2.1528,-2.0972,-2.0568,-2.048,-2.0532,-2.0639,-2.0871,-2.1535,-2.2281,-2.2961,-2.2977,-2.3366,-2.4126,-2.4871,-2.56,-2.6312,-2.6992,-2.6895,-2.5646,-2.5338,-2.444,-2.2395,-2.1672,-2.1203,-2.0767,-2.0525,-2.0679,-2.1368,-2.1563,-2.1901,-2.3066,-2.3354,-2.3522,-2.429,-2.5055,-2.5405,-2.5492,-2.5204,-2.5364,-2.5654,-2.5324,-2.5338,-2.5745,-2.5371,-2.5056,-2.5038,-2.4413,-2.3972,-2.39,-2.3871,-2.3905,-2.4283,-2.4733,-2.527,-2.6126,-2.5445,-2.5002,-4.032,-4.032,-4.032,-4.032,-4.0358,-4.1151,-4.1781,-4.2087,-4.0979,-3.9947,-3.9174,-3.9546,-3.903,-3.7818,-3.6795,-3.5927,-3.5163,-3.4265,-3.4093,-3.456,-3.4999,-3.545,-3.5832,-3.5507,-3.5592,-3.5905,-3.4674,-3.4495,-3.5267,-3.4904,-3.4617,-3.4483,-3.328,-3.2065,-3.0923,-2.9878,-2.9246,-2.8998,-2.8035,-2.7845,-2.8411,-2.7658,-2.7053,-2.6602,-2.5448,-2.4254,-2.3024,-2.1734,-2.0744,-2.0081,-1.9171,-1.8861,-1.9367,-1.9733,-2.071,-2.2361,-2.2607,-2.288,-2.3427,-2.3124,-2.2893,-2.2776,-2.2595,-2.2728,-2.3227,-2.272,-2.2864,-2.3917,-2.4047,-2.4517,-2.5567,-2.6328,-2.7041,-2.7774,-2.8466,-2.8271,-2.6989,-2.6409,-2.543,-2.359,-2.2404,-2.1728,-2.1495,-2.1032,-2.1031,-2.1911,-2.2657,-2.3783,-2.4771,-2.5372,-2.5735,-2.6045,-2.6263,-2.6253,-2.6082,-2.5995,-2.597,-2.5847,-2.5585,-2.5502,-2.572,-2.5255,-2.4868,-2.4834,-2.435,-2.3958,-2.39,-2.39,-2.4074,-2.4312,-2.5353,-2.6123,-2.6562,-2.6414,-2.6199,-4.032,-4.032,-4.032,-4.0511,-4.0912,-4.1514,-4.2278,-4.3042,-4.3061,-4.2259,-4.095,-4.0673,-3.9986,-3.882,-3.6719,-3.5668,-3.5297,-3.3941,-3.3738,-3.4579,-3.5209,-3.5946,-3.6691,-3.6787,-3.7101,-3.7502,-3.6375,-3.6031,-3.6366,-3.5812,-3.4857,-3.37,-3.2394,-3.1565,-3.1176,-3.0322,-2.9684,-2.9298,-2.8705,-2.8564,-2.8962,-2.8393,-2.7677,-2.6888,-2.608,-2.5007,-2.3602,-2.231,-2.1252,-2.0435,-1.9335,-1.9047,-1.973,-2.0257,-2.1275,-2.2815,-2.361,-2.4333,-2.5036,-2.497,-2.4905,-2.4995,-2.4519,-2.4579,-2.5276,-2.4129,-2.3694,-2.4776,-2.5179,-2.5729,-2.6733,-2.7527,-2.8174,-2.8757,-2.9459,-2.9183,-2.7915,-2.7235,-2.626,-2.4648,-2.3154,-2.2267,-2.2063,-2.1647,-2.1758,-2.2892,-2.4267,-2.546,-2.6161,-2.702,-2.7517,-2.7866,-2.7646,-2.7122,-2.6989,-2.664,-2.6239,-2.5676,-2.5411,-2.5226,-2.5178,-2.4766,-2.4418,-2.4297,-2.4007,-2.3673,-2.3673,-2.3804,-2.4036,-2.4495,-2.5687,-2.675,-2.7012,-2.7409,-2.7216,-4.032,-4.032,-4.032,-4.1208,-4.245,-4.2584,-4.308,-4.3777,-4.3873,-4.3414,-4.2393,-4.1743,-4.0501,-3.9011,-3.7903,-3.7024,-3.6328,-3.5392,-3.5392,-3.6156,-3.6347,-3.6814,-3.754,-3.7597,-3.7636,-3.7731,-3.7502,-3.7063,-3.6653,-3.6405,-3.5144,-3.3081,-3.2592,-3.1703,-3.0381,-2.9948,-2.9333,-2.8456,-2.8932,-2.9123,-2.8998,-2.8932,-2.8503,-2.7725,-2.6906,-2.608,-2.5081,-2.2951,-2.1598,-2.127,-1.9795,-1.942,-2.044,-2.0673,-2.1834,-2.4274,-2.4751,-2.5493,-2.6804,-2.6373,-2.6258,-2.6676,-2.551,-2.5473,-2.7143,-2.6355,-2.5895,-2.6474,-2.7041,-2.7397,-2.764,-2.8255,-2.8697,-2.8876,-2.9443,-2.9329,-2.8012,-2.7636,-2.6775,-2.4616,-2.3672,-2.2897,-2.2501,-2.2242,-2.2848,-2.4468,-2.5426,-2.6477,-2.7496,-2.7642,-2.8295,-2.9083,-2.8542,-2.7347,-2.6904,-2.6268,-2.5774,-2.5096,-2.4486,-2.4399,-2.4341,-2.3896,-2.3142,-2.365,-2.336,-2.3302,-2.3273,-2.3476,-2.437,-2.5317,-2.6245,-2.7014,-2.7521,-2.8045,-2.7845,-4.032,-4.032,-4.032,-4.095,-4.1953,-4.203,-4.2526,-4.3271,-4.3281,-4.2813,-4.2068,-4.1648,-4.1103,-4.0348,-3.8534,-3.7502,-3.7158,-3.6347,-3.6137,-3.6596,-3.7493,-3.8171,-3.8457,-3.8476,-3.8725,-3.9088,-3.8209,-3.7808,-3.7693,-3.6481,-3.4953,-3.3482,-3.2416,-3.121,-3.0021,-2.9297,-2.8698,-2.8202,-2.7943,-2.7964,-2.8312,-2.8748,-2.8601,-2.7824,-2.7016,-2.6227,-2.5319,-2.3436,-2.2365,-2.219,-2.1051,-2.0938,-2.2135,-2.2142,-2.3094,-2.5212,-2.632,-2.7327,-2.8457,-2.8266,-2.8231,-2.8508,-2.7826,-2.7743,-2.8419,-2.8275,-2.8183,-2.8227,-2.8314,-2.8498,-2.8892,-2.8871,-2.8989,-2.9313,-2.9362,-2.8838,-2.7867,-2.7721,-2.6989,-2.5349,-2.4424,-2.3892,-2.3653,-2.3553,-2.4084,-2.5306,-2.6079,-2.7005,-2.8239,-2.8283,-2.8879,-2.9993,-2.9137,-2.7775,-2.703,-2.6342,-2.565,-2.4994,-2.466,-2.453,-2.4791,-2.4447,-2.3969,-2.3563,-2.3737,-2.3751,-2.3601,-2.4375,-2.5303,-2.6295,-2.7376,-2.8182,-2.8038,-2.8196,-2.7794,-4.032,-4.032,-4.032,-4.0769,-4.1485,-4.1504,-4.1858,-4.2393,-4.245,-4.1953,-4.1208,-4.117,-4.117,-4.0864,-3.8954,-3.8056,-3.7941,-3.7196,-3.6958,-3.7283,-3.8448,-3.9126,-3.9327,-3.9365,-3.9699,-4.0014,-3.9049,-3.8648,-3.8725,-3.671,-3.5133,-3.417,-3.2507,-3.1154,-3.0185,-2.9013,-2.8175,-2.7732,-2.7066,-2.6919,-2.7258,-2.8154,-2.8393,-2.7805,-2.7236,-2.6447,-2.5429,-2.4207,-2.3445,-2.3178,-2.2489,-2.2548,-2.3502,-2.3481,-2.4199,-2.5803,-2.7281,-2.8459,-2.9334,-2.9455,-2.9679,-3.0023,-2.9712,-2.9486,-2.9736,-2.9779,-2.9775,-2.9739,-2.9444,-2.9458,-2.9718,-2.941,-2.9378,-2.9799,-2.9524,-2.9032,-2.8174,-2.8126,-2.7721,-2.6166,-2.5241,-2.4693,-2.4549,-2.4466,-2.4839,-2.6034,-2.6519,-2.7203,-2.8396,-2.863,-2.8965,-3.0283,-2.9302,-2.8226,-2.7308,-2.6325,-2.558,-2.4869,-2.4515,-2.4776,-2.5517,-2.5197,-2.4766,-2.4201,-2.4607,-2.4708,-2.4375,-2.5129,-2.6301,-2.7163,-2.8126,-2.8783,-2.8269,-2.8169,-2.7483,-4.032,-4.032,-4.032,-4.075,-4.1485,-4.1466,-4.1495,-4.1552,-4.1552,-4.1113,-4.0473,-4.0425,-4.0377,-4.0406,-3.9451,-3.8954,-3.8839,-3.8094,-3.8171,-3.8858,-3.9049,-3.9461,-4.0205,-4.0244,-4.0244,-4.0282,-3.9976,-3.9584,-3.8935,-3.7321,-3.6003,-3.5087,-3.3396,-3.1958,-3.0853,-2.9232,-2.7848,-2.7039,-2.67,-2.6336,-2.5844,-2.7082,-2.7769,-2.7725,-2.7714,-2.6935,-2.5631,-2.5301,-2.4897,-2.4153,-2.3926,-2.4074,-2.4492,-2.4463,-2.496,-2.6119,-2.7333,-2.8476,-2.9334,-2.954,-3.0091,-3.1161,-3.0368,-3.0074,-3.1082,-3.0638,-3.0446,-3.0841,-3.0365,-3.0095,-2.9935,-2.9724,-2.9751,-2.9961,-3.0425,-2.9982,-2.8935,-2.9297,-2.8762,-2.7122,-2.6102,-2.5454,-2.4709,-2.4499,-2.5567,-2.6782,-2.7057,-2.7219,-2.8369,-2.8667,-2.8762,-2.9114,-2.9029,-2.8543,-2.7644,-2.6614,-2.5285,-2.4703,-2.4723,-2.4568,-2.5009,-2.5303,-2.5013,-2.4824,-2.5027,-2.5129,-2.509,-2.577,-2.7019,-2.7883,-2.8382,-2.8667,-2.7968,-2.7612,-2.7056,-4.0319,-4.032,-4.032,-4.0482,-4.0711,-4.0731,-4.075,-4.075,-4.075,-4.0568,-4.0358,-4.032,-4.0568,-4.1055,-4.075,-4.031,-3.9843,-3.948,-3.9794,-4.052,-4.0597,-4.0769,-4.0922,-4.0024,-3.9804,-4.0167,-3.9728,-3.9317,-3.9011,-3.8362,-3.7379,-3.6016,-3.4713,-3.327,-3.1676,-2.9896,-2.827,-2.6798,-2.6158,-2.5707,-2.5429,-2.5962,-2.6513,-2.6998,-2.7034,-2.6778,-2.619,-2.5209,-2.4732,-2.4952,-2.4842,-2.5183,-2.6052,-2.6605,-2.7435,-2.8665,-2.9261,-2.9894,-3.0616,-3.0864,-3.1143,-3.1662,-3.1317,-3.1092,-3.1537,-3.1317,-3.1074,-3.1044,-3.0712,-3.0359,-3.0043,-2.9561,-2.9551,-3.0344,-3.036,-3.0279,-3.015,-3.0026,-2.9378,-2.8244,-2.7397,-2.6685,-2.6134,-2.6264,-2.6863,-2.7462,-2.7122,-2.7413,-2.8207,-2.8052,-2.7856,-2.8624,-2.8716,-2.841,-2.8053,-2.705,-2.6066,-2.56,-2.5418,-2.5664,-2.6046,-2.6141,-2.5966,-2.5458,-2.5546,-2.5872,-2.6006,-2.6642,-2.7782,-2.7584,-2.8166,-2.7995,-2.7442,-2.7046,-2.6635,-4.0319,-4.0301,-4.032,-4.032,-4.032,-4.032,-4.032,-4.032,-4.032,-4.032,-4.032,-4.032,-4.0635,-4.1055,-4.1113,-4.1208,-4.1103,-4.1113,-4.1418,-4.1858,-4.1628,-4.1504,-4.1285,-4.0062,-3.9709,-4.0091,-3.9422,-3.9011,-3.8954,-3.8707,-3.7963,-3.6849,-3.5543,-3.4073,-3.2386,-3.0404,-2.8458,-2.6801,-2.5815,-2.5311,-2.5099,-2.5274,-2.565,-2.6117,-2.6209,-2.6209,-2.619,-2.5401,-2.5199,-2.5703,-2.5912,-2.6528,-2.7643,-2.8062,-2.8802,-2.9898,-2.9998,-3.0338,-3.1043,-3.131,-3.1488,-3.1783,-3.1746,-3.1763,-3.1781,-3.1615,-3.1445,-3.1266,-3.113,-3.0829,-3.0312,-2.9826,-2.9793,-3.0474,-3.036,-3.0376,-3.0807,-3.049,-2.9793,-2.8871,-2.8061,-2.7494,-2.7187,-2.7429,-2.7737,-2.7996,-2.7462,-2.7527,-2.8029,-2.798,-2.7478,-2.8267,-2.8464,-2.8459,-2.8205,-2.7495,-2.6699,-2.6217,-2.581,-2.6261,-2.6483,-2.666,-2.6547,-2.6152,-2.6257,-2.6695,-2.7182,-2.7723,-2.7655,-2.7301,-2.706,-2.7004,-2.6666,-2.6455,-2.616,-4.031,-4.031,-4.032,-4.032,-4.032,-4.032,-4.032,-4.032,-4.032,-4.032,-4.032,-4.032,-4.0406,-4.0435,-4.0597,-4.1246,-4.2507,-4.266,-4.2775,-4.287,-4.2011,-4.1619,-4.1552,-4.0635,-4.0091,-4.0129,-3.9393,-3.8935,-3.8735,-3.8136,-3.7651,-3.7215,-3.5711,-3.4356,-3.3178,-3.0785,-2.8535,-2.6948,-2.5944,-2.5099,-2.4392,-2.4934,-2.5338,-2.5466,-2.5485,-2.554,-2.554,-2.608,-2.6374,-2.6657,-2.7281,-2.8191,-2.9044,-2.8837,-2.8797,-2.9558,-2.94,-2.9655,-3.0467,-3.0692,-3.1142,-3.1591,-3.1671,-3.1671,-3.1726,-3.1653,-3.1593,-3.1626,-3.1749,-3.1604,-3.0943,-3.0936,-3.0797,-3.0156,-3.0603,-3.0969,-3.1098,-3.0953,-3.0354,-2.9146,-2.8373,-2.7802,-2.7721,-2.7802,-2.8045,-2.8255,-2.7996,-2.7624,-2.7867,-2.8077,-2.8271,-2.802,-2.8147,-2.8423,-2.8266,-2.8008,-2.7306,-2.6663,-2.6312,-2.6285,-2.6331,-2.6402,-2.6199,-2.5923,-2.6878,-2.7304,-2.7203,-2.7668,-2.7669,-2.7329,-2.6821,-2.6315,-2.6259,-2.616,-2.5907,-4.0318,-4.0318,-4.032,-4.032,-4.032,-4.032,-4.032,-4.032,-4.032,-4.032,-4.032,-4.032,-4.0597,-4.1017,-4.1132,-4.203,-4.3558,-4.3643,-4.394,-4.415,-4.3042,-4.2393,-4.2125,-4.096,-3.9986,-3.9451,-3.9145,-3.8372,-3.7542,-3.7498,-3.731,-3.651,-3.5864,-3.4944,-3.3813,-3.1867,-2.9802,-2.7607,-2.6631,-2.5585,-2.4355,-2.4456,-2.4824,-2.5329,-2.5403,-2.5631,-2.6153,-2.5952,-2.6347,-2.7346,-2.8153,-2.9268,-3.0383,-2.9946,-2.9936,-3.0834,-3.0361,-3.0357,-3.1101,-3.1312,-3.1416,-3.162,-3.1617,-3.1596,-3.1595,-3.1614,-3.1814,-3.2154,-3.2549,-3.2691,-3.2829,-3.3048,-3.2649,-3.1484,-3.1542,-3.2037,-3.2546,-3.2158,-3.1073,-2.9864,-2.9345,-2.9038,-2.8595,-2.8466,-2.8385,-2.819,-2.7948,-2.7818,-2.7802,-2.8061,-2.8012,-2.7781,-2.8089,-2.8263,-2.7964,-2.7806,-2.7429,-2.6778,-2.6382,-2.5991,-2.601,-2.5937,-2.5749,-2.63,-2.7256,-2.767,-2.7537,-2.7569,-2.7655,-2.7074,-2.6371,-2.6146,-2.6132,-2.6006,-2.5809,-4.0626,-4.0334,-4.0319,-4.0482,-4.0692,-4.0435,-4.0482,-4.0673,-4.0416,-4.032,-4.032,-4.032,-4.0559,-4.0979,-4.1055,-4.18,-4.2975,-4.307,-4.3711,-4.4551,-4.3845,-4.3252,-4.2994,-4.1533,-4.0501,-3.9794,-3.8954,-3.7999,-3.6997,-3.6994,-3.6739,-3.6164,-3.6141,-3.5493,-3.4197,-3.2699,-3.0678,-2.8121,-2.6998,-2.5823,-2.4538,-2.4199,-2.4593,-2.5246,-2.5384,-2.5962,-2.6888,-2.6814,-2.7064,-2.7849,-2.8734,-2.9963,-3.1097,-3.0423,-3.0244,-3.0733,-3.0726,-3.0651,-3.1206,-3.1485,-3.169,-3.1598,-3.1542,-3.1656,-3.1805,-3.1912,-3.2281,-3.3261,-3.385,-3.4163,-3.4412,-3.4682,-3.4325,-3.3478,-3.2748,-3.2724,-3.3161,-3.2579,-3.1769,-3.0852,-3.0447,-3.0091,-2.9713,-2.9281,-2.907,-2.8595,-2.8535,-2.8336,-2.8304,-2.8385,-2.832,-2.823,-2.8271,-2.8136,-2.762,-2.7471,-2.7468,-2.6913,-2.6317,-2.5859,-2.5577,-2.5357,-2.5172,-2.6576,-2.7663,-2.7917,-2.7867,-2.794,-2.794,-2.6975,-2.6174,-2.6343,-2.6427,-2.6062,-2.5851,-4.1292,-4.0586,-4.049,-4.0893,-4.1332,-4.0731,-4.0731,-4.117,-4.0635,-4.032,-4.032,-4.032,-4.0339,-4.0339,-4.0435,-4.0998,-4.1533,-4.1896,-4.287,-4.3959,-4.4064,-4.3987,-4.3452,-4.2202,-4.1399,-4.0788,-3.9088,-3.7903,-3.734,-3.6691,-3.6111,-3.6021,-3.6323,-3.5988,-3.4468,-3.327,-3.1127,-2.8477,-2.7145,-2.5805,-2.4328,-2.4199,-2.4575,-2.5366,-2.554,-2.6292,-2.7695,-2.8553,-2.8737,-2.8407,-2.9637,-3.0539,-3.0747,-3.0371,-3.0163,-3.0315,-3.035,-3.0553,-3.0848,-3.1518,-3.1701,-3.156,-3.1666,-3.1708,-3.2346,-3.2684,-3.3349,-3.4652,-3.5365,-3.5769,-3.5839,-3.6046,-3.5968,-3.5538,-3.4218,-3.3234,-3.2319,-3.2222,-3.2012,-3.1817,-3.1357,-3.0888,-3.0694,-3.0166,-2.9799,-2.9572,-2.9475,-2.9119,-2.8757,-2.8692,-2.92,-2.9049,-2.8581,-2.8046,-2.7547,-2.7727,-2.7636,-2.6879,-2.6436,-2.6098,-2.565,-2.5361,-2.547,-2.6828,-2.7959,-2.818,-2.8211,-2.8254,-2.7854,-2.699,-2.6652,-2.6793,-2.6582,-2.6174,-2.5992,-4.2614,-4.2371,-4.22,-4.1915,-4.159,-4.1265,-4.0941,-4.0635,-4.0416,-4.032,-4.032,-4.032,-4.032,-4.032,-4.0339,-4.1074,-4.203,-4.2374,-4.3348,-4.4762,-4.4972,-4.4188,-4.331,-4.2698,-4.1839,-4.0769,-3.9919,-3.8667,-3.6912,-3.6435,-3.6068,-3.5788,-3.5875,-3.589,-3.5446,-3.37,-3.1685,-2.9549,-2.7548,-2.5878,-2.4538,-2.4254,-2.4603,-2.5356,-2.5952,-2.7071,-2.8638,-2.9984,-3.0948,-3.1265,-3.1529,-3.1978,-3.2197,-3.1522,-3.1097,-3.1201,-3.0906,-3.0847,-3.1379,-3.1977,-3.2089,-3.1579,-3.227,-3.2788,-3.2425,-3.3567,-3.4563,-3.5633,-3.6661,-3.7636,-3.7942,-3.8187,-3.7945,-3.699,-3.56,-3.4369,-3.3663,-3.3097,-3.2627,-3.2109,-3.1898,-3.1503,-3.0969,-3.0393,-2.9783,-2.9362,-2.9183,-2.9038,-2.8773,-2.8806,-2.9248,-2.8952,-2.8517,-2.7982,-2.7683,-2.793,-2.7721,-2.6885,-2.6599,-2.6627,-2.6276,-2.6023,-2.6433,-2.7313,-2.8426,-2.8885,-2.8596,-2.8422,-2.7696,-2.7088,-2.6947,-2.6947,-2.6554,-2.6174,-2.616,-4.3556,-4.313,-4.258,-4.2256,-4.2028,-4.1313,-4.0903,-4.075,-4.0416,-4.032,-4.032,-4.032,-4.032,-4.0339,-4.0673,-4.1094,-4.1743,-4.2106,-4.2756,-4.3587,-4.4341,-4.4341,-4.3864,-4.3539,-4.2775,-4.1829,-4.0759,-3.9252,-3.7594,-3.6596,-3.5975,-3.5768,-3.5826,-3.6056,-3.6111,-3.4596,-3.2619,-3.0705,-2.865,-2.6822,-2.5346,-2.486,-2.5154,-2.5797,-2.6447,-2.7563,-2.974,-3.1168,-3.2039,-3.2359,-3.2406,-3.2472,-3.2583,-3.2018,-3.154,-3.1406,-3.0942,-3.1025,-3.157,-3.2042,-3.2215,-3.2267,-3.2941,-3.3121,-3.3481,-3.4572,-3.5581,-3.6903,-3.8077,-3.8948,-3.9513,-3.964,-3.9132,-3.8165,-3.6992,-3.5916,-3.5114,-3.4117,-3.3582,-3.3226,-3.2805,-3.2174,-3.1438,-3.0749,-3.0075,-2.9524,-2.941,-2.9183,-2.894,-2.9086,-2.9194,-2.9103,-2.8694,-2.8136,-2.7718,-2.7829,-2.7859,-2.7086,-2.7295,-2.7275,-2.6927,-2.6728,-2.7248,-2.7924,-2.8883,-2.938,-2.8961,-2.8589,-2.8177,-2.7695,-2.7369,-2.7003,-2.6666,-2.6385,-2.6371,-4.4356,-4.3492,-4.2417,-4.2338,-4.2589,-4.1188,-4.0816,-4.1103,-4.0597,-4.032,-4.032,-4.032,-4.0396,-4.0473,-4.0922,-4.1074,-4.0778,-4.1457,-4.1648,-4.2431,-4.3386,-4.4284,-4.4685,-4.4341,-4.393,-4.3404,-4.1512,-4.0014,-3.8574,-3.7007,-3.6137,-3.5987,-3.6313,-3.6607,-3.6566,-3.5591,-3.3917,-3.1861,-3.0136,-2.8326,-2.6833,-2.6072,-2.598,-2.6098,-2.691,-2.8402,-3.0601,-3.2044,-3.2638,-3.2615,-3.2475,-3.2548,-3.2404,-3.216,-3.1805,-3.1341,-3.1533,-3.1721,-3.1866,-3.2015,-3.2179,-3.2971,-3.2859,-3.3147,-3.4415,-3.5504,-3.6734,-3.7951,-3.9158,-3.9907,-4.0226,-4.012,-3.9426,-3.8662,-3.7962,-3.7149,-3.6237,-3.5072,-3.4538,-3.4936,-3.3841,-3.2983,-3.2093,-3.1364,-3.0635,-2.9767,-2.9653,-2.954,-2.9313,-2.9264,-2.9491,-2.9686,-2.9096,-2.8337,-2.7967,-2.7713,-2.7649,-2.7412,-2.8075,-2.8193,-2.7692,-2.7625,-2.8054,-2.8654,-2.9176,-2.9371,-2.9183,-2.8812,-2.8443,-2.8146,-2.7777,-2.7355,-2.6975,-2.6736,-2.6596,-4.5608,-4.5336,-4.4281,-4.3512,-4.2909,-4.1806,-4.1054,-4.0614,-4.0434,-4.0435,-4.032,-4.032,-4.0673,-4.1189,-4.0922,-4.1113,-4.1858,-4.1724,-4.1839,-4.2622,-4.3491,-4.4025,-4.4437,-4.4609,-4.4609,-4.3986,-4.3416,-4.1466,-3.9204,-3.7996,-3.7279,-3.647,-3.6461,-3.7086,-3.7783,-3.6615,-3.5165,-3.333,-3.1678,-2.9769,-2.7989,-2.7346,-2.6759,-2.619,-2.7475,-2.9308,-3.1075,-3.257,-3.3243,-3.3284,-3.3328,-3.3495,-3.3704,-3.3702,-3.3607,-3.3596,-3.3511,-3.3289,-3.2917,-3.3239,-3.3515,-3.2961,-3.3918,-3.4776,-3.4583,-3.6525,-3.7678,-3.8596,-3.9662,-4.047,-4.0497,-3.9685,-3.9051,-3.846,-3.7534,-3.6457,-3.5685,-3.559,-3.5192,-3.4489,-3.3987,-3.3388,-3.2158,-3.1341,-3.0684,-3.0091,-2.9896,-2.9896,-2.9718,-2.9491,-2.9615,-2.982,-2.9046,-2.8291,-2.8138,-2.7827,-2.766,-2.765,-2.8232,-2.8799,-2.8311,-2.8181,-2.8522,-2.8859,-2.9249,-2.9287,-2.9287,-2.8919,-2.8552,-2.834,-2.8101,-2.7537,-2.7116,-2.6961,-2.6834,-4.6084,-4.5949,-4.4955,-4.424,-4.3639,-4.2703,-4.1977,-4.1578,-4.1485,-4.1246,-4.0922,-4.0845,-4.1113,-4.1466,-4.1113,-4.1457,-4.182,-4.1361,-4.1151,-4.18,-4.2746,-4.3405,-4.3605,-4.4284,-4.4541,-4.4378,-4.3537,-4.1648,-3.9637,-3.8164,-3.7181,-3.6618,-3.6496,-3.7264,-3.8374,-3.7477,-3.6028,-3.4472,-3.3164,-3.136,-2.931,-2.8503,-2.7838,-2.7065,-2.8411,-3.0203,-3.1732,-3.328,-3.4134,-3.4482,-3.4558,-3.4495,-3.4524,-3.4499,-3.4686,-3.4905,-3.4322,-3.4181,-3.4039,-3.3987,-3.3994,-3.3867,-3.4726,-3.495,-3.5452,-3.7053,-3.8088,-3.8665,-3.9707,-4.0728,-4.0531,-3.973,-3.8937,-3.8003,-3.7062,-3.5843,-3.4697,-3.4762,-3.4791,-3.3742,-3.3144,-3.2482,-3.1674,-3.1098,-3.0652,-3.0026,-2.9913,-2.9896,-2.9874,-2.9674,-2.9614,-2.951,-2.8776,-2.8268,-2.8171,-2.7997,-2.778,-2.7786,-2.8009,-2.8554,-2.8607,-2.8673,-2.8852,-2.9158,-2.9454,-2.9493,-2.9423,-2.904,-2.8703,-2.8464,-2.8113,-2.7593,-2.7242,-2.713,-2.7072,-4.6146,-4.6031,-4.5089,-4.4636,-4.4356,-4.3397,-4.2881,-4.2831,-4.2804,-4.2229,-4.1791,-4.1695,-4.1753,-4.1686,-4.1533,-4.1476,-4.116,-4.075,-4.053,-4.0702,-4.22,-4.2773,-4.3097,-4.3871,-4.4501,-4.4864,-4.3409,-4.1468,-3.9497,-3.7989,-3.7091,-3.6565,-3.6412,-3.721,-3.8141,-3.8013,-3.6934,-3.5508,-3.4573,-3.2986,-3.087,-2.9849,-2.9,-2.8539,-2.9138,-3.0657,-3.2088,-3.3517,-3.4721,-3.5566,-3.5731,-3.5478,-3.5186,-3.4989,-3.5029,-3.5434,-3.4765,-3.4662,-3.4814,-3.451,-3.4452,-3.5458,-3.5081,-3.5052,-3.5869,-3.7058,-3.799,-3.8755,-3.962,-4.0673,-4.0621,-3.9819,-3.8836,-3.7853,-3.6824,-3.5248,-3.3608,-3.3347,-3.3199,-3.2828,-3.2426,-3.1894,-3.1334,-3.0759,-3.0376,-3.0075,-2.9977,-2.9923,-2.9917,-2.9867,-2.9823,-2.9723,-2.9139,-2.8093,-2.7871,-2.746,-2.7333,-2.7355,-2.7541,-2.8025,-2.8477,-2.8515,-2.8595,-2.9296,-2.9574,-2.9602,-2.956,-2.9279,-2.8956,-2.8647,-2.8324,-2.7945,-2.7621,-2.734,-2.7309,-4.6113,-4.6022,-4.5098,-4.4649,-4.4421,-4.342,-4.3037,-4.287,-4.2858,-4.2605,-4.2532,-4.2475,-4.2467,-4.2345,-4.1743,-4.1151,-4.0587,-4.0282,-4.0205,-4.0461,-4.1814,-4.2644,-4.291,-4.399,-4.4554,-4.3928,-4.2875,-4.115,-3.9166,-3.7966,-3.7233,-3.6564,-3.6387,-3.7154,-3.8062,-3.8306,-3.761,-3.638,-3.5611,-3.4138,-3.2197,-3.095,-3.0235,-2.9509,-2.9891,-3.087,-3.2155,-3.3183,-3.3991,-3.4769,-3.5457,-3.6019,-3.6254,-3.6379,-3.6379,-3.6289,-3.6185,-3.5886,-3.5588,-3.5559,-3.5194,-3.5115,-3.5142,-3.5402,-3.6005,-3.7091,-3.805,-3.8683,-3.9621,-4.0583,-4.0655,-3.9836,-3.8894,-3.7874,-3.6702,-3.5193,-3.3217,-3.2382,-3.2168,-3.171,-3.1605,-3.1475,-3.0838,-3.0384,-3.0093,-2.9883,-2.9819,-3.0002,-3.0174,-3.0106,-3.0032,-2.9915,-2.9706,-2.8517,-2.7494,-2.6967,-2.6632,-2.6553,-2.6762,-2.7244,-2.7625,-2.7863,-2.8283,-2.9167,-2.9588,-2.9602,-2.9518,-2.942,-2.935,-2.9139,-2.8759,-2.8352,-2.8226,-2.8071,-2.7685,-4.6052,-4.5998,-4.5545,-4.534,-4.5163,-4.4596,-4.4273,-4.4154,-4.3982,-4.3648,-4.3243,-4.2883,-4.2713,-4.24,-4.139,-4.0587,-4.0301,-4.0157,-4.0137,-4.0478,-4.1734,-4.2601,-4.2705,-4.3956,-4.4149,-4.3705,-4.2792,-4.1194,-3.9024,-3.8195,-3.7572,-3.711,-3.6846,-3.7223,-3.7723,-3.7786,-3.7183,-3.6318,-3.5597,-3.433,-3.2056,-3.0846,-3.0021,-3.0141,-3.0446,-3.1356,-3.2748,-3.4114,-3.5023,-3.5856,-3.6616,-3.6707,-3.6635,-3.6781,-3.7059,-3.7075,-3.6898,-3.664,-3.6204,-3.6233,-3.5882,-3.5501,-3.5525,-3.5825,-3.6349,-3.7299,-3.8262,-3.919,-3.9695,-4.0485,-4.0461,-3.9698,-3.8846,-3.7872,-3.6713,-3.4958,-3.3164,-3.2138,-3.1443,-3.0836,-3.0446,-3.0309,-3.0241,-2.9894,-2.9762,-2.9697,-2.9714,-2.9981,-3.0351,-3.0268,-3.0137,-2.9761,-2.9481,-2.8585,-2.7409,-2.6689,-2.6312,-2.6165,-2.61,-2.6581,-2.7243,-2.7679,-2.8466,-2.9336,-2.9546,-2.9602,-2.9588,-2.9518,-2.9574,-2.956,-2.9055,-2.8689,-2.8844,-2.8755,-2.8323,-4.5961,-4.598,-4.598,-4.5935,-4.5854,-4.5634,-4.5454,-4.5361,-4.5074,-4.4612,-4.3988,-4.3278,-4.2853,-4.2283,-4.1159,-4.0225,-4.0166,-4.0087,-4.0067,-4.0389,-4.173,-4.2558,-4.2805,-4.3482,-4.4034,-4.3707,-4.2714,-4.1279,-3.9558,-3.8603,-3.797,-3.7419,-3.7269,-3.7293,-3.7351,-3.7343,-3.6243,-3.5469,-3.4621,-3.3405,-3.134,-2.9765,-2.9314,-3.0057,-3.0775,-3.1783,-3.3263,-3.4534,-3.562,-3.6453,-3.7158,-3.7339,-3.6399,-3.6669,-3.713,-3.7267,-3.6593,-3.6416,-3.6274,-3.6264,-3.588,-3.5561,-3.562,-3.6051,-3.6705,-3.7472,-3.8427,-3.9719,-4.0082,-4.0097,-3.9963,-3.9668,-3.9035,-3.8142,-3.6858,-3.526,-3.3705,-3.2445,-3.1219,-3.0447,-2.9603,-2.9384,-2.958,-2.9603,-2.9492,-2.9826,-2.9858,-3.0145,-3.0425,-3.0299,-3.0085,-2.9552,-2.9073,-2.8399,-2.7454,-2.6547,-2.625,-2.6163,-2.5987,-2.6145,-2.6975,-2.7791,-2.8563,-2.9279,-2.9546,-2.9602,-2.9602,-2.9571,-2.9571,-2.9414,-2.9094,-2.8979,-2.9041,-2.899,-2.8685,-4.5923,-4.5923,-4.5923,-4.588,-4.5786,-4.5533,-4.54,-4.5292,-4.5061,-4.4917,-4.4585,-4.3912,-4.314,-4.2201,-4.0831,-4.0115,-4.0027,-4.0007,-3.9975,-4.022,-4.1612,-4.2458,-4.2701,-4.4104,-4.4199,-4.3765,-4.2674,-4.1086,-3.9793,-3.9091,-3.8261,-3.754,-3.7301,-3.7163,-3.7005,-3.6812,-3.6633,-3.5612,-3.4317,-3.2525,-3.05,-2.9259,-2.961,-3.0503,-3.1062,-3.1777,-3.3266,-3.448,-3.5331,-3.6019,-3.6796,-3.7049,-3.6886,-3.6904,-3.658,-3.6192,-3.5738,-3.545,-3.5349,-3.5554,-3.5541,-3.5423,-3.546,-3.6022,-3.684,-3.7625,-3.8427,-3.9142,-3.927,-3.9246,-3.9389,-3.9662,-3.9427,-3.8702,-3.7518,-3.6192,-3.4755,-3.2665,-3.146,-3.0323,-2.9554,-2.9295,-2.9288,-2.9295,-2.9334,-2.973,-3.0093,-3.0354,-3.0488,-3.0391,-3.0333,-2.9903,-2.9429,-2.877,-2.794,-2.6972,-2.64,-2.6272,-2.6,-2.5907,-2.6736,-2.7665,-2.8396,-2.897,-2.9279,-2.956,-2.9602,-2.9571,-2.954,-2.9393,-2.9167,-2.9098,-2.9093,-2.9016,-2.887,-4.4725,-4.5209,-4.5654,-4.5814,-4.57,-4.5491,-4.5362,-4.5239,-4.5026,-4.4642,-4.4147,-4.3403,-4.2384,-4.1238,-4.0295,-4.0036,-3.9986,-3.9965,-3.9933,-4.029,-4.151,-4.2393,-4.2787,-4.3938,-4.4468,-4.3969,-4.3004,-4.1884,-4.0494,-3.9279,-3.8456,-3.7883,-3.7351,-3.6828,-3.6417,-3.5916,-3.526,-3.4255,-3.2988,-3.1492,-3.0114,-2.9288,-2.945,-3.0935,-3.0998,-3.189,-3.3248,-3.4679,-3.5351,-3.6021,-3.6906,-3.7158,-3.658,-3.6218,-3.5804,-3.446,-3.4225,-3.4425,-3.4994,-3.5304,-3.5272,-3.5287,-3.5492,-3.6146,-3.7195,-3.8024,-3.8572,-3.9044,-3.8623,-3.8461,-3.8468,-3.8674,-3.864,-3.8229,-3.7636,-3.6296,-3.4858,-3.3324,-3.1713,-3.0612,-2.9635,-2.954,-2.9484,-2.9624,-2.9852,-3.0244,-3.0519,-3.0651,-3.0704,-3.0582,-3.0513,-3.0432,-2.9976,-2.9437,-2.8547,-2.7636,-2.6833,-2.6496,-2.6028,-2.6075,-2.668,-2.7453,-2.8085,-2.8577,-2.89,-2.9181,-2.9476,-2.9571,-2.954,-2.9415,-2.9289,-2.9099,-2.894,-2.8798,-2.8456,-4.3363,-4.4059,-4.5065,-4.5583,-4.5673,-4.5485,-4.537,-4.5275,-4.5022,-4.4459,-4.358,-4.2648,-4.1383,-4.0321,-4.0043,-3.9965,-3.9984,-3.9922,-4.0071,-4.0677,-4.1567,-4.2477,-4.3123,-4.4096,-4.4608,-4.4382,-4.2515,-4.1442,-4.0363,-3.9035,-3.7848,-3.8006,-3.7344,-3.6513,-3.5626,-3.4996,-3.4292,-3.2813,-3.1597,-3.047,-2.9559,-2.8983,-2.9647,-3.0522,-3.1166,-3.1745,-3.3357,-3.4917,-3.5731,-3.6039,-3.7286,-3.7395,-3.6202,-3.5858,-3.5069,-3.3875,-3.3355,-3.347,-3.4091,-3.4513,-3.4913,-3.5194,-3.5961,-3.6924,-3.7922,-3.865,-3.8717,-3.8657,-3.8007,-3.7719,-3.7669,-3.7787,-3.8041,-3.7773,-3.7172,-3.581,-3.4502,-3.3113,-3.2122,-3.1382,-3.055,-3.0033,-3.0027,-3.0157,-3.0462,-3.0835,-3.099,-3.1021,-3.1058,-3.1037,-3.1135,-3.118,-3.0786,-3.0213,-2.9248,-2.8373,-2.7538,-2.6691,-2.6196,-2.616,-2.6694,-2.7088,-2.7565,-2.8029,-2.8519,-2.904,-2.9476,-2.9515,-2.9509,-2.9243,-2.9022,-2.883,-2.867,-2.8476,-2.7924,-4.2106,-4.2318,-4.3975,-4.5034,-4.5634,-4.5494,-4.5361,-4.5267,-4.5003,-4.4402,-4.3417,-4.2045,-4.0775,-4.0111,-3.9922,-3.9911,-3.9911,-3.99,-4.0336,-4.1075,-4.1984,-4.2773,-4.3471,-4.4102,-4.4392,-4.3755,-4.1954,-4.0508,-3.9342,-3.7593,-3.6939,-3.6937,-3.6665,-3.589,-3.5165,-3.4531,-3.3302,-3.1882,-3.0676,-2.9774,-2.9096,-2.8811,-2.944,-3.0636,-3.1111,-3.1745,-3.3339,-3.4844,-3.5641,-3.5713,-3.7142,-3.7232,-3.5928,-3.5912,-3.5072,-3.3777,-3.3205,-3.3249,-3.3476,-3.356,-3.3679,-3.4566,-3.6043,-3.7787,-3.8599,-3.8227,-3.8108,-3.8159,-3.7719,-3.7246,-3.7263,-3.7398,-3.7652,-3.7418,-3.6818,-3.5917,-3.4562,-3.3093,-3.223,-3.1932,-3.1376,-3.0657,-3.0727,-3.0912,-3.1082,-3.1449,-3.15,-3.1531,-3.189,-3.1971,-3.2052,-3.2025,-3.167,-3.0995,-2.9997,-2.9032,-2.7939,-2.6987,-2.6279,-2.6299,-2.6568,-2.6891,-2.7003,-2.7786,-2.8358,-2.8909,-2.9389,-2.9407,-2.9289,-2.8944,-2.8675,-2.8398,-2.8039,-2.7756,-2.7058,-4.1545,-4.2067,-4.2744,-4.3759,-4.499,-4.5273,-4.5351,-4.5275,-4.5003,-4.4118,-4.2799,-4.1188,-4.0222,-3.9957,-3.99,-3.99,-3.99,-3.99,-4.0487,-4.1207,-4.2022,-4.2867,-4.3617,-4.4075,-4.4112,-4.3025,-4.1077,-3.9483,-3.8574,-3.6694,-3.5794,-3.5639,-3.5602,-3.5258,-3.4627,-3.4027,-3.2723,-3.1528,-3.06,-2.9952,-2.8817,-2.8672,-2.9373,-3.0835,-3.1003,-3.1836,-3.3266,-3.4428,-3.4899,-3.5478,-3.6689,-3.6327,-3.5729,-3.6055,-3.5489,-3.4087,-3.3677,-3.3521,-3.3442,-3.3394,-3.3532,-3.5083,-3.6757,-3.8227,-3.8954,-3.87,-3.8616,-3.8379,-3.7872,-3.7398,-3.7533,-3.733,-3.711,-3.6969,-3.6508,-3.5777,-3.4728,-3.329,-3.2369,-3.2121,-3.1533,-3.0844,-3.1228,-3.1701,-3.1871,-3.204,-3.2028,-3.209,-3.2351,-3.2613,-3.2628,-3.2545,-3.218,-3.1424,-3.0437,-2.933,-2.8247,-2.7301,-2.6378,-2.6285,-2.6301,-2.612,-2.6372,-2.7264,-2.801,-2.8413,-2.8771,-2.915,-2.9085,-2.8739,-2.8287,-2.7796,-2.7443,-2.7087,-2.6298,-4.0893,-4.1641,-4.1893,-4.28,-4.4091,-4.4504,-4.4605,-4.4513,-4.4258,-4.341,-4.1946,-4.0525,-3.99,-3.99,-3.99,-3.99,-3.99,-3.9976,-4.0658,-4.1416,-4.22,-4.301,-4.3687,-4.385,-4.3482,-4.2291,-4.0517,-3.8935,-3.7807,-3.6218,-3.515,-3.4498,-3.4244,-3.4226,-3.4045,-3.3411,-3.2343,-3.1324,-3.0618,-3.0043,-2.8744,-2.8654,-2.9373,-3.0745,-3.1003,-3.1836,-3.314,-3.4226,-3.4627,-3.5186,-3.5874,-3.6146,-3.5965,-3.5858,-3.5959,-3.5128,-3.4357,-3.4213,-3.4057,-3.4148,-3.4227,-3.583,-3.7032,-3.8294,-3.9005,-3.914,-3.8886,-3.8853,-3.8328,-3.7939,-3.7939,-3.755,-3.7347,-3.7341,-3.6569,-3.5844,-3.4961,-3.378,-3.2951,-3.2319,-3.1832,-3.1597,-3.1646,-3.2074,-3.2105,-3.2228,-3.2228,-3.2259,-3.2398,-3.2659,-3.2862,-3.2765,-3.2575,-3.1671,-3.0717,-2.9451,-2.8188,-2.7334,-2.6521,-2.6019,-2.5882,-2.5702,-2.598,-2.6958,-2.7589,-2.7844,-2.8294,-2.8816,-2.8766,-2.8546,-2.7927,-2.7162,-2.6858,-2.6433,-2.5644,-4.0042,-4.0868,-4.1641,-4.2427,-4.3132,-4.3047,-4.3032,-4.3101,-4.2754,-4.2098,-4.12,-4.0222,-3.99,-3.99,-3.99,-3.99,-3.99,-3.9957,-4.0696,-4.1946,-4.2255,-4.3246,-4.3672,-4.3638,-4.2832,-4.193,-4.0115,-3.8287,-3.7122,-3.5802,-3.4573,-3.3994,-3.3973,-3.3701,-3.3429,-3.2687,-3.1854,-3.1057,-3.0382,-2.9608,-2.9106,-2.8889,-2.9699,-3.0803,-3.1202,-3.1999,-3.3194,-3.3973,-3.4335,-3.4606,-3.5747,-3.6019,-3.5693,-3.6415,-3.6371,-3.5485,-3.4569,-3.3999,-3.3618,-3.4323,-3.5215,-3.6147,-3.6992,-3.8227,-3.936,-3.9469,-3.9089,-3.914,-3.8633,-3.8193,-3.8007,-3.7898,-3.7905,-3.7638,-3.6939,-3.6088,-3.5276,-3.4321,-3.3461,-3.2733,-3.2699,-3.2621,-3.2458,-3.2398,-3.2351,-3.2367,-3.2382,-3.2428,-3.249,-3.2752,-3.3016,-3.2726,-3.2524,-3.1761,-3.0715,-2.9345,-2.8195,-2.7312,-2.6551,-2.5938,-2.5633,-2.5495,-2.6003,-2.6791,-2.7094,-2.7315,-2.7922,-2.8554,-2.8137,-2.7663,-2.7061,-2.6461,-2.6186,-2.582,-2.5171,-3.9675,-4.0004,-4.0835,-4.1364,-4.1744,-4.2657,-4.2994,-4.2784,-4.2065,-4.1182,-4.0423,-3.9957,-3.99,-3.99,-3.99,-3.99,-3.99,-3.9957,-4.079,-4.2181,-4.2219,-4.2806,-4.3227,-4.2973,-4.2069,-4.0719,-3.9054,-3.7968,-3.7013,-3.5874,-3.5439,-3.4987,-3.4157,-3.3918,-3.3538,-3.3013,-3.2614,-3.1818,-3.1075,-3.0441,-3.0133,-2.9771,-3.0133,-3.1636,-3.1727,-3.2288,-3.3302,-3.381,-3.3882,-3.4009,-3.5131,-3.5367,-3.5385,-3.6146,-3.6514,-3.5786,-3.4991,-3.4406,-3.3966,-3.4177,-3.4929,-3.5649,-3.6569,-3.7855,-3.9029,-3.914,-3.9242,-3.9529,-3.9326,-3.9157,-3.9402,-3.8853,-3.8667,-3.8456,-3.7788,-3.6848,-3.5907,-3.4848,-3.3908,-3.3278,-3.3018,-3.3053,-3.2971,-3.2548,-3.2413,-3.2398,-3.2398,-3.2398,-3.2444,-3.2859,-3.3126,-3.2654,-3.226,-3.1617,-3.0646,-2.916,-2.811,-2.734,-2.6455,-2.5647,-2.5397,-2.5285,-2.577,-2.6448,-2.661,-2.6813,-2.7458,-2.7822,-2.7175,-2.6598,-2.6223,-2.601,-2.5838,-2.5514,-2.4976,-3.8785,-3.9114,-3.9649,-4.01,-4.0507,-4.1707,-4.2016,-4.148,-4.0511,-3.9779,-3.9524,-3.9494,-3.9654,-3.9805,-3.99,-3.99,-3.99,-3.9938,-4.0468,-4.1859,-4.1793,-4.2165,-4.2393,-4.212,-4.1065,-3.9772,-3.8832,-3.7905,-3.7013,-3.649,-3.5838,-3.515,-3.4609,-3.3882,-3.3465,-3.3266,-3.294,-3.2216,-3.1564,-3.1216,-3.0853,-3.0672,-3.0835,-3.1763,-3.2234,-3.2578,-3.314,-3.3375,-3.3393,-3.3628,-3.4063,-3.4555,-3.5059,-3.5822,-3.6421,-3.5923,-3.5368,-3.4638,-3.3912,-3.4377,-3.4877,-3.4774,-3.5966,-3.7286,-3.8413,-3.8802,-3.9157,-3.9537,-3.9926,-4.0045,-3.9943,-3.9394,-3.9252,-3.9041,-3.8086,-3.7103,-3.6438,-3.5362,-3.4046,-3.3467,-3.322,-3.332,-3.3267,-3.2807,-3.2398,-3.2398,-3.2398,-3.2398,-3.2428,-3.2844,-3.3023,-3.2507,-3.2043,-3.1471,-3.0365,-2.8823,-2.7898,-2.7288,-2.6344,-2.5312,-2.5103,-2.4989,-2.5544,-2.6022,-2.6193,-2.6469,-2.6987,-2.7066,-2.6559,-2.6111,-2.5692,-2.5541,-2.5479,-2.5098,-2.4661,-3.7425,-3.8096,-3.8174,-3.8779,-3.9566,-4.0358,-4.0077,-3.9057,-3.8175,-3.8184,-3.8652,-3.8727,-3.9134,-3.9711,-3.9843,-3.99,-3.9805,-3.9805,-4.0336,-4.084,-4.0927,-4.1279,-4.1152,-4.0752,-4.0102,-3.9463,-3.8702,-3.7947,-3.7104,-3.685,-3.6091,-3.5041,-3.4443,-3.3864,-3.3592,-3.3465,-3.314,-3.2614,-3.2107,-3.1832,-3.156,-3.122,-3.1596,-3.2162,-3.2379,-3.2687,-3.3085,-3.3266,-3.3302,-3.3574,-3.4063,-3.4425,-3.5059,-3.6073,-3.6127,-3.5887,-3.5334,-3.441,-3.3827,-3.453,-3.4799,-3.4728,-3.5814,-3.6941,-3.777,-3.8396,-3.8853,-3.9317,-3.9706,-3.9943,-4.0011,-3.9868,-3.9749,-3.8974,-3.7992,-3.732,-3.6822,-3.5701,-3.4234,-3.3567,-3.3403,-3.3367,-3.327,-3.289,-3.2398,-3.2398,-3.2398,-3.2398,-3.2475,-3.2736,-3.2765,-3.2182,-3.1735,-3.1321,-3.0096,-2.8538,-2.7615,-2.6991,-2.5891,-2.4948,-2.4806,-2.4759,-2.5165,-2.5518,-2.5792,-2.618,-2.6706,-2.6606,-2.6128,-2.5694,-2.5218,-2.5157,-2.509,-2.4747,-2.4315,-3.7058,-3.7323,-3.7941,-3.8702,-3.9444,-3.9583,-3.9362,-3.901,-3.8685,-3.8395,-3.7799,-3.8443,-3.8765,-3.9077,-3.9635,-3.9786,-3.9654,-3.9494,-3.9654,-3.986,-3.991,-3.9857,-3.9826,-3.976,-3.9307,-3.8844,-3.8331,-3.8043,-3.7683,-3.7357,-3.6488,-3.5566,-3.4917,-3.4338,-3.3939,-3.3939,-3.3541,-3.3067,-3.2542,-3.2433,-3.2343,-3.2089,-3.2451,-3.2687,-3.2397,-3.2723,-3.314,-3.285,-3.2886,-3.3447,-3.3592,-3.3918,-3.4715,-3.5059,-3.5044,-3.4976,-3.4546,-3.4055,-3.3722,-3.4534,-3.5046,-3.4839,-3.5504,-3.6231,-3.7043,-3.7753,-3.8396,-3.8886,-3.9503,-3.9825,-3.9995,-3.9961,-3.9738,-3.9025,-3.7972,-3.7073,-3.6454,-3.519,-3.3756,-3.2994,-3.286,-3.3045,-3.2952,-3.2813,-3.2398,-3.2398,-3.2398,-3.2398,-3.2432,-3.2662,-3.2555,-3.1974,-3.1352,-3.0921,-2.9793,-2.8291,-2.7454,-2.66,-2.5574,-2.4786,-2.4607,-2.4625,-2.4813,-2.5205,-2.5754,-2.6109,-2.6443,-2.6166,-2.5739,-2.5183,-2.4729,-2.4734,-2.4643,-2.4399,-2.4189,-3.6419,-3.6497,-3.698,-3.7872,-3.8897,-3.9461,-3.9613,-3.935,-3.841,-3.7643,-3.7449,-3.759,-3.8083,-3.869,-3.885,-3.9001,-3.9304,-3.8565,-3.8452,-3.8607,-3.8707,-3.8639,-3.8665,-3.8733,-3.859,-3.8254,-3.8118,-3.7973,-3.7593,-3.6635,-3.5711,-3.5786,-3.5519,-3.4775,-3.425,-3.4214,-3.3997,-3.3451,-3.3049,-3.3067,-3.2995,-3.2922,-3.314,-3.3103,-3.2596,-3.2723,-3.3176,-3.2596,-3.2669,-3.3248,-3.3375,-3.3574,-3.4117,-3.4139,-3.4443,-3.4491,-3.4691,-3.4357,-3.4195,-3.5037,-3.5197,-3.5166,-3.5312,-3.5791,-3.6366,-3.6992,-3.7719,-3.8379,-3.9148,-3.9715,-3.9826,-3.9893,-3.9523,-3.9129,-3.7932,-3.6756,-3.5584,-3.436,-3.3325,-3.2353,-3.2225,-3.2425,-3.2444,-3.2382,-3.2398,-3.2398,-3.237,-3.2342,-3.2315,-3.2379,-3.2244,-3.1841,-3.1087,-3.0417,-2.9249,-2.8198,-2.7257,-2.6404,-2.5555,-2.4895,-2.4588,-2.4532,-2.4679,-2.5236,-2.5869,-2.6085,-2.6186,-2.5802,-2.5348,-2.4838,-2.4454,-2.4438,-2.4445,-2.4351,-2.4212,-3.5723,-3.5742,-3.5781,-3.678,-3.8108,-3.9546,-4.0114,-3.9824,-3.7757,-3.6853,-3.723,-3.6604,-3.7135,-3.7931,-3.795,-3.8111,-3.8186,-3.7742,-3.7344,-3.7323,-3.725,-3.7243,-3.7352,-3.7429,-3.7533,-3.7836,-3.781,-3.7268,-3.6614,-3.5802,-3.5333,-3.5679,-3.5128,-3.4661,-3.471,-3.4911,-3.4713,-3.4108,-3.3831,-3.3755,-3.3411,-3.3357,-3.3375,-3.323,-3.2741,-3.2415,-3.2904,-3.285,-3.2506,-3.3067,-3.3505,-3.3596,-3.3671,-3.3544,-3.3939,-3.431,-3.4662,-3.4659,-3.47,-3.5411,-3.5707,-3.5676,-3.5616,-3.5667,-3.6045,-3.6603,-3.7347,-3.7787,-3.8447,-3.9199,-3.9471,-3.9143,-3.877,-3.8117,-3.7086,-3.5998,-3.4939,-3.3699,-3.2552,-3.1763,-3.1597,-3.1797,-3.1921,-3.189,-3.2115,-3.2262,-3.2514,-3.2474,-3.2479,-3.2422,-3.2105,-3.1804,-3.0896,-3.0133,-2.9336,-2.8281,-2.7113,-2.6206,-2.5472,-2.4833,-2.4389,-2.438,-2.4514,-2.5104,-2.5678,-2.5794,-2.58,-2.5461,-2.5087,-2.455,-2.4261,-2.419,-2.4154,-2.4095,-2.4212,-3.5704,-3.5762,-3.6358,-3.7135,-3.8,-3.8939,-3.9651,-3.9993,-3.8743,-3.78,-3.7325,-3.6661,-3.6386,-3.687,-3.7192,-3.7438,-3.7438,-3.6908,-3.6548,-3.6402,-3.6233,-3.6171,-3.6146,-3.6435,-3.651,-3.6368,-3.6311,-3.6313,-3.5878,-3.5191,-3.4922,-3.5564,-3.5299,-3.5301,-3.5337,-3.5627,-3.5477,-3.4679,-3.4545,-3.4087,-3.3454,-3.3378,-3.3357,-3.2958,-3.2415,-3.227,-3.2437,-3.205,-3.2405,-3.3089,-3.3915,-3.4207,-3.4246,-3.3665,-3.3373,-3.3575,-3.4388,-3.4586,-3.4793,-3.5373,-3.5843,-3.5756,-3.56,-3.56,-3.5876,-3.6474,-3.6931,-3.7246,-3.7719,-3.8464,-3.8863,-3.843,-3.7909,-3.7085,-3.6228,-3.5269,-3.4268,-3.3027,-3.1774,-3.1378,-3.112,-3.1197,-3.134,-3.1562,-3.1784,-3.216,-3.2671,-3.2872,-3.2951,-3.2908,-3.2403,-3.1916,-3.0716,-2.9889,-2.923,-2.8307,-2.716,-2.6298,-2.5612,-2.4904,-2.4256,-2.4327,-2.4528,-2.4962,-2.5371,-2.544,-2.5414,-2.5193,-2.4778,-2.4345,-2.4051,-2.3971,-2.3807,-2.3725,-2.3967,-3.5704,-3.5814,-3.6541,-3.7012,-3.7471,-3.8497,-3.9204,-3.9352,-3.8919,-3.8443,-3.7818,-3.6813,-3.6206,-3.6064,-3.631,-3.6661,-3.6642,-3.5988,-3.5704,-3.5531,-3.5499,-3.5441,-3.5472,-3.5584,-3.5787,-3.567,-3.5255,-3.5115,-3.504,-3.4898,-3.4796,-3.5501,-3.5738,-3.5993,-3.6012,-3.619,-3.5882,-3.5017,-3.4936,-3.4246,-3.343,-3.3587,-3.3596,-3.3121,-3.2306,-3.2184,-3.2231,-3.1971,-3.2368,-3.3238,-3.4166,-3.4377,-3.4184,-3.3582,-3.3082,-3.325,-3.3829,-3.4485,-3.454,-3.5063,-3.5798,-3.5611,-3.5583,-3.5577,-3.5452,-3.598,-3.6415,-3.673,-3.6966,-3.7624,-3.7942,-3.7711,-3.7152,-3.641,-3.5465,-3.4502,-3.3469,-3.2341,-3.1424,-3.0859,-3.0786,-3.1001,-3.1236,-3.1661,-3.1855,-3.2092,-3.2587,-3.2879,-3.3048,-3.3412,-3.2901,-3.2225,-3.1141,-3.0233,-2.965,-2.856,-2.7221,-2.6429,-2.5747,-2.5232,-2.4713,-2.4519,-2.4555,-2.5025,-2.5201,-2.4999,-2.4931,-2.485,-2.4658,-2.4309,-2.3982,-2.3717,-2.3531,-2.3323,-2.332,-3.5704,-3.5809,-3.6382,-3.6598,-3.6719,-3.8014,-3.8671,-3.8729,-3.8709,-3.8709,-3.8443,-3.704,-3.6415,-3.5912,-3.5363,-3.5609,-3.5647,-3.5382,-3.5059,-3.4945,-3.4783,-3.4862,-3.4934,-3.4949,-3.4991,-3.4829,-3.4456,-3.4281,-3.4157,-3.4265,-3.4735,-3.5475,-3.607,-3.6556,-3.6429,-3.6016,-3.5442,-3.4846,-3.4393,-3.3728,-3.3684,-3.3942,-3.3735,-3.2987,-3.2169,-3.2014,-3.2318,-3.24,-3.2463,-3.333,-3.4287,-3.4467,-3.4169,-3.3538,-3.2847,-3.2824,-3.3331,-3.3692,-3.3914,-3.4878,-3.526,-3.5408,-3.5475,-3.5507,-3.5438,-3.5528,-3.594,-3.6148,-3.6384,-3.6544,-3.6852,-3.6662,-3.6098,-3.5556,-3.4576,-3.3638,-3.2598,-3.162,-3.099,-3.035,-3.04,-3.0615,-3.1052,-3.1518,-3.1835,-3.207,-3.2364,-3.2595,-3.293,-3.3487,-3.3543,-3.2853,-3.1925,-3.1057,-3.0127,-2.883,-2.7459,-2.6627,-2.5986,-2.5568,-2.5197,-2.4957,-2.4906,-2.5128,-2.517,-2.4841,-2.4665,-2.4614,-2.4409,-2.4236,-2.3867,-2.3522,-2.3142,-2.2912,-2.259,-3.5704,-3.5718,-3.5795,-3.6085,-3.6508,-3.6897,-3.7614,-3.8597,-3.8671,-3.8709,-3.8443,-3.7704,-3.687,-3.6168,-3.5287,-3.5135,-3.523,-3.4965,-3.4946,-3.4898,-3.4699,-3.4574,-3.4427,-3.4293,-3.3884,-3.3701,-3.3586,-3.3425,-3.3701,-3.4112,-3.4686,-3.5409,-3.6319,-3.6609,-3.6469,-3.6093,-3.5784,-3.5084,-3.4686,-3.4271,-3.3732,-3.3707,-3.3312,-3.2787,-3.2352,-3.2517,-3.2613,-3.2122,-3.284,-3.3699,-3.4386,-3.4645,-3.4315,-3.3595,-3.2686,-3.2351,-3.2886,-3.288,-3.3335,-3.4467,-3.4897,-3.483,-3.5048,-3.5683,-3.5519,-3.5285,-3.5538,-3.5515,-3.5639,-3.5577,-3.563,-3.5009,-3.4432,-3.406,-3.332,-3.2484,-3.1552,-3.0857,-3.0216,-2.9794,-2.9596,-2.995,-3.0411,-3.0934,-3.1445,-3.1798,-3.2404,-3.2631,-3.2856,-3.3469,-3.4138,-3.3366,-3.2567,-3.1406,-3.0261,-2.908,-2.7857,-2.7,-2.6308,-2.5955,-2.5662,-2.5408,-2.5351,-2.5295,-2.4966,-2.4619,-2.4494,-2.4317,-2.4337,-2.4179,-2.3741,-2.3315,-2.2925,-2.2434,-2.2026]},{"header":{"parameterUnit":"m.s-1","parameterCategory":1,"la1":31.0,"la2":29.5877,"lo1":-88.7671,"lo2":-86.6584,"dy":0.0162,"dx":0.0185,"nx":115,"ny":88,"refTime":"2026-03-21T00:00:00:Z","depth":0,"parameterNumber":3,"parameterNumberName":"V-component_of_WINDS"},"data":[0.0,0.0,0.0,0.0,0.0,0.0,0.0,0.0,0.0,0.0,0.0,0.0,0.0,0.0,0.0,0.0,0.0,0.0,0.0,0.0,0.0,0.0,0.0,0.0,0.0,0.0,0.0,0.0,0.0,0.0,0.0,0.0,0.0,0.0,0.0,0.0,0.0,0.0,0.0,0.0,0.0,0.0,0.0,0.0,0.0,0.0,0.0,0.0,0.0,0.0,0.0,0.0,0.0,0.0,0.0,0.0,0.0,0.0,0.0,0.0,0.0,0.0,0.0,0.0,0.0,0.0,0.0,0.0,0.0,0.0,0.0,0.0,0.0,0.0,0.0,0.0,0.0,0.0,0.0,0.0,0.0,0.0,0.0,0.0,0.0,0.0,0.0,0.0,0.0,0.0,0.0,0.0,0.0,0.0,0.0,0.0,0.0,0.0,0.0,0.0,0.0,0.0,0.0,0.0,0.0,0.0,0.0,0.0,0.0,0.0,0.0,0.0,0.0,0.0,0.0,0.0,0.0,0.0,0.0,0.0,0.0,0.0,0.0,0.0,0.0,0.0,0.0,0.0,0.0,0.0,0.0,0.0,0.0,0.0,0.0,0.0,0.0,0.0,0.0,0.0,0.0,0.0,0.0,0.0,0.0,0.0,0.0,0.0,0.0,0.0,0.0,0.0,0.0,0.0,0.0,0.0,0.0,0.0,0.0,0.0,0.0,0.0,0.0,0.0,0.0,0.0,0.0,0.0,0.0,0.0,0.0,0.0,0.0,0.0,0.0,0.0,0.0,0.0,0.0,0.0,0.0,0.0,0.0,0.0,0.0,0.0,0.0,0.0,0.0,0.0,0.0,0.0,0.0,0.0,0.0,0.0,0.0,0.0,0.0,0.0,0.0,0.0,0.0,0.0,0.0,0.0,0.0,0.0,0.0,0.0,0.0,0.0,0.0,0.0,0.0,0.0,0.0,0.0,0.0,0.0,0.0,0.0,0.0,0.0,0.0,0.0,0.0,0.0,0.0,0.0,0.0,0.0,0.0,0.0,0.0,0.0,0.0,0.0,0.0,0.0,0.0,0.0,0.0,0.0,0.0,0.0,0.0,0.0,0.0,0.0,0.0,0.0,0.0,0.0,0.0,0.0,0.0,0.0,0.0,0.0,0.0,0.0,0.0,0.0,0.0,0.0,0.0,0.0,0.0,0.0,0.0,0.0,0.0,0.0,0.0,0.0,0.0,0.0,0.0,0.0,0.0,0.0,0.0,0.0,0.0,0.0,0.0,0.0,0.0,0.0,0.0,0.0,0.0,0.0,0.0,0.0,0.0,0.0,0.0,0.0,0.0,0.0,0.0,0.0,0.0,0.0,0.0,0.0,0.0,0.0,0.0,0.0,0.0,0.0,0.0,0.0,0.0,0.0,0.0,0.0,0.0,0.0,0.0,0.0,0.0,0.0,0.0,0.0,0.0,0.0,0.0,0.0,0.0,0.0,0.0,0.0,0.0,0.0,0.0,0.0,0.0,0.0,0.0,0.0,0.0,0.0,0.0,0.0,0.0,0.0,0.0,0.0,0.0,0.0,0.0,0.0,0.0,0.0,0.0,0.0,0.0,0.0,0.0,0.0,0.0,0.0,0.0,0.0,0.0,0.0,0.0,0.0,0.0,0.0,0.0,0.0,0.0,0.0,0.0,0.0,0.0,0.0,0.0,0.0,0.0,0.0,0.0,0.0,0.0,0.0,0.0,0.0,0.0,0.0,0.0,0.0,0.0,0.0,0.0,0.0,0.0,0.0,0.0,0.0,0.0,0.0,0.0,0.0,0.0,0.0,0.0,0.0,0.0,0.0,0.0,0.0,0.0,0.0,0.0,0.0,0.0,0.0,0.0,0.0,0.0,0.0,0.0,0.0,0.0,0.0,0.0,0.0,0.0,0.0,0.0,0.0,0.0,0.0,0.0,0.0,0.0,0.0,0.0,0.0,0.0,0.0,0.0,0.0,0.0,0.0,0.0,0.0,0.0,0.0,0.0,0.0,0.0,0.0,0.0,0.0,0.0,0.0,0.0,0.0,0.0,0.0,0.0,0.0,0.0,0.0,0.0,0.0,0.0,0.0,0.0,0.0,0.0,0.0,0.0,0.0,0.0,0.0,0.0,0.0,0.0,0.0,0.0,0.0,0.0,0.0,0.0,0.0,0.0,0.0,0.0,0.0,0.0,0.0,0.0,0.0,0.0,0.0,0.0,0.0,0.0,0.0,0.0,0.0,0.0,0.0,0.0,0.0,0.0,0.0,0.0,0.0,0.0,0.0,0.0,0.0,0.0,0.0,0.0,0.0,0.0,0.0,0.0,0.0,0.0,0.0,0.0,0.0,0.0,0.0,0.0,0.0,0.0,0.0,0.0,0.0,0.0,0.0,0.0,0.0,0.0,0.0,0.0,0.0,0.0,0.0,0.0,0.0,0.0,0.0,0.0,0.0,0.0,0.0,0.0,0.0,0.0,0.0,0.0,0.0,0.0,0.0,0.0,0.0,0.0,0.0,0.0,0.0,0.0,0.0,0.0,0.0,0.0,0.0,0.0,0.0,0.0,0.0,0.0,0.0,0.0,0.0,0.0,0.0,0.0,0.0,0.0,0.0,0.0,0.0,0.0,0.0,0.0,0.0,0.0,0.0,0.0,0.0,0.0,0.0,0.0,0.0,0.0,0.0,0.0,0.0,0.0,0.0,0.0,0.0,0.0,0.0,0.0,0.0,0.0,0.0,0.0,0.0,0.0,0.0,0.0,0.0,0.0,0.0,0.0,0.0,0.0,0.0,0.0,0.0,0.0,0.0,0.0,0.0,0.0,0.0,0.0,0.0,0.0,0.0,0.0,0.0,0.0,0.0,0.0,0.0,0.0,0.0,0.0,0.0,0.0,0.0,0.0,0.0,0.0,0.0,0.0,0.0,0.0,0.0,0.0,0.0,0.0,0.0,0.0,0.0,0.0,0.0,0.0,0.0,0.0,0.0,0.0,0.0,0.0,0.0,0.0,0.0,0.0,0.0,0.0,0.0,0.0,0.0,0.0,0.0,0.0,0.0,0.0,0.0,0.0,0.0,0.0,0.0,0.0,0.0,0.0,0.0,0.0,0.0,0.0,0.0,0.0,0.0,0.0,0.0,0.0,0.0,0.0,0.0,0.0,0.0,0.0,0.0,0.0,0.0,0.0,0.0,0.0,0.0,0.0,0.0,0.0,0.0,0.0,0.0,0.0,0.0,0.0,0.0,0.0,0.0,0.0,0.0,0.0,0.0,0.0,0.0,0.0,0.0,0.0,0.0,0.0,0.0,0.0,0.0,0.0,0.0,0.0,0.0,0.0,0.0,0.0,0.0,0.0,0.0,0.0,0.0,0.0,0.0,0.0,0.0,0.0,0.0,0.0,0.0,0.0,0.0,0.0,0.0,0.0,0.0,0.0,0.0,0.0,0.0,0.0,0.0,0.0,0.0,0.0,0.0,0.0,0.0,0.0,0.0,0.0,0.0,0.0,0.0,0.0,0.0,0.0,0.0,0.0,0.0,0.0,0.0,0.0,0.0,0.0,0.0,0.0,0.0,0.0,0.0,0.0,0.0,0.0,0.0,0.0,0.0,0.0,0.0,0.0,0.0,0.0,0.0,0.0,0.0,0.0,0.0,0.0,0.0,0.0,0.0,0.0,0.0,0.0,0.0,0.0,0.0,0.0,0.0,0.0,0.0,0.0,0.0,0.0,0.0,0.0,0.0,0.0,0.0,0.0,0.0,0.0,0.0,0.0,0.0,0.0,0.0,0.0,0.0,0.0,0.0,0.0,0.0,0.0,0.0,0.0,0.0,0.0,0.0,0.0,0.0,0.0,0.0,0.0,0.0,0.0,0.0,0.0,0.0,0.0,0.0,0.0,0.0,0.0,0.0,0.0,0.0,0.0,0.0,0.0,0.0,0.0,0.0,0.0,0.0,0.0,0.0,0.0,0.0,0.0,0.0,0.0,0.0,0.0,0.0,0.0,0.0,0.0,0.0,0.0,0.0,0.0,0.0,0.0,0.0,0.0,0.0,0.0,0.0,0.0,0.0,0.0,0.0,0.0,0.0,0.0,0.0,0.0,0.0,0.0,0.0,0.0,0.0,0.0,0.0,0.0,0.0,0.0,0.0,0.0,0.0,0.0,0.0,0.0,0.0,0.0,0.0,0.0,0.0,0.0,0.0,0.0,0.0,0.0,0.0,0.0,0.0,0.0,0.0,0.0,0.0,0.0,0.0,0.0,0.0,0.0,0.0,0.5002,0.0,0.0,0.0,0.0,0.0,0.0,0.0,0.0,0.0,0.0,0.0,0.0,0.0,0.0,0.0,0.0,0.0,0.0,0.0,0.0,0.0,0.0,0.0,0.0,0.0,0.0,0.0,0.0,0.0,0.0,0.0,0.0,0.0,0.0,0.0,0.0,0.0,0.0,0.0,0.0,0.0,0.0,0.0,0.0,0.0,0.0,0.0,0.0,0.0,0.0,0.0,0.0,0.0,0.0,0.0,0.0,0.0,0.0,0.0,0.0,0.0,0.0,0.0,0.0,0.0,0.0,0.0,0.0,0.0,0.0,0.0,0.0,0.0,0.0,0.0,0.0,0.0,0.0,0.0,0.0,0.0,0.0,0.0,0.0,0.0,0.0,0.0,0.0,0.0,0.0,0.0,0.0,0.0,0.0,0.0,0.0,0.0,0.0,0.0,0.0,0.0,0.0,0.0,0.0,0.0,0.0,0.0,0.0,0.0,0.0,0.5002,0.5007,0.5007,0.495,0.4836,0.0,0.0,0.0,0.0,0.0,0.0,0.0,0.0,0.0,0.0,0.0,0.0,0.0,0.0,0.0,0.0,0.0,0.0,0.0,0.0,0.0,0.0,0.0,0.0,0.0,0.0,0.0,0.0,0.0,0.0,0.0,0.0,0.0,0.0,0.0,0.0,0.0,0.0,0.0,0.0,0.0,0.0,0.0,0.0,0.0,0.0,0.0,0.0,0.0,0.0,0.0,0.0,0.0,0.0,0.0,0.0,0.0,0.0,0.0,0.0,0.0,0.0,0.0,0.0,0.0,0.0,0.0,0.0,0.0,0.0,0.0,0.0,0.0,0.0,0.0,0.0,0.0,0.0,0.0,0.0,0.0,0.0,0.0,0.0,0.0,0.0,0.0,0.0,0.0,0.0,0.0,0.0,0.0,0.0,0.0,0.0,0.0,0.0,0.0,0.0,0.0,0.0,0.0,0.0,0.0,0.0,0.0,0.0,0.0,0.0,0.0,0.0,0.4914,0.4836,0.4647,0.0,0.0,0.0,0.0,0.0,0.0,0.0,0.0,0.0,0.0,0.0,0.0,0.0,0.0,0.0,0.0,0.0,0.0,0.0,0.0,0.0,0.0,0.0,0.0,0.0,0.0,0.0,0.0,0.0,0.0,0.0,0.0,0.0,0.0,0.0,0.0,0.0,0.0,0.0,0.0,0.0,0.0,0.0,0.0,0.0,0.0,0.0,0.0,0.0,0.0,0.0,0.0,0.0,0.0,0.0,0.0,0.0,0.0,0.0,0.0,0.0,0.0,0.0,0.0,0.0,0.0,0.0,0.0,0.0,0.0,0.0,0.0,0.0,0.0,0.0,0.0,0.0,0.0,0.0,0.0,0.0,0.0,0.0,0.0,0.0,0.0,0.0,0.0,0.0,0.0,0.0,0.0,0.0,0.0,0.0,0.0,0.0,0.0,0.0,0.0,0.0,0.0,0.0,0.0,0.0,0.0,0.0,0.0,0.0,0.0,0.4641,0.4717,0.4717,0.0,0.4437,0.0,0.0,0.0,0.0,0.0,0.0,0.0,0.0,0.0,0.0,0.0,0.0,0.0,0.0,0.0,0.0,0.0,0.0,0.0,0.0,0.0,0.0,0.0,0.0,0.0,0.0,0.0,0.0,0.0,0.0,0.0,0.0,0.0,0.0,0.0,0.0,0.0,0.0,0.0,0.0,0.0,0.0,0.0,0.0,0.0,0.0,0.0,0.0,0.0,0.0,0.0,0.0,0.0,0.0,0.0,0.0,0.0,0.0,0.0,0.0,0.0,0.0,0.0,0.0,0.0,0.0,0.0,0.0,0.0,0.0,0.0,0.0,0.0,0.0,0.0,0.0,0.0,0.0,0.0,0.0,0.0,0.0,0.0,0.0,0.0,0.0,0.0,0.0,0.0,0.0,0.0,0.0,0.0,0.0,0.0,0.0,0.0,0.0,0.0,0.0,0.0,0.0,0.0,0.0,0.0,0.0,0.0,0.0,0.0,0.0,0.4297,0.4684,0.4585,0.4409,0.0,0.0,0.0,0.0,0.0,0.0,0.0,0.0,0.0,0.0,0.0,0.0,0.0,0.0,0.0,0.0,0.0,0.0,0.0,0.0,0.0,0.0,0.0,0.0,0.0,0.0,0.0,0.0,0.0,0.0,0.0,0.0,0.0,0.0,0.0,0.0,0.0,0.0,0.0,0.0,0.0,0.0,0.0,0.0,0.0,0.0,0.0,0.0,0.0,0.0,0.0,0.0,0.0,0.0,0.0,0.0,0.0,0.0,0.0,0.0,0.0,0.0,0.0,0.0,0.0,0.0,0.0,0.0,0.0,0.0,0.0,0.0,0.0,0.0,0.0,0.0,0.0,0.0,0.0,0.0,0.0,0.0,0.0,0.0,0.0,0.0,0.0,0.0,0.0,0.0,0.0,0.0,0.0,0.0,0.0,0.0,0.0,0.0,0.0,0.0,0.0,0.0,0.0,0.0,0.0,0.0,0.0,0.0,0.0,0.0,0.3493,0.4097,0.464,0.4428,0.4172,0.3908,0.0,0.0,0.0,0.0,0.0,0.0,0.0,0.0,0.0,0.0,0.0,0.0,0.0,0.0,0.0,0.0,0.0,0.0,0.0,0.0,0.0,0.0,0.0,0.0,0.0,0.0,0.0,0.0,0.0,0.0,0.0,0.0,0.0,0.0,0.0,0.0,0.0,0.0,0.0,0.0,0.0,0.0,0.0,0.0,0.0,0.0,0.0,0.0,0.0,0.0,0.0,0.0,0.0,0.0,0.0,0.0,0.0,0.0,0.0,0.0,0.0,0.0,0.0,0.0,0.0,0.0,0.0,0.0,0.0,0.0,0.0,0.0,0.0,0.0,0.0,0.0,0.0,0.0,0.0,0.0,0.0,0.0,0.0,0.0,0.0,0.0,0.0,0.0,0.0,0.0,0.0,0.0,0.0,0.0,0.0,0.0,0.0,0.0,0.0,0.0,0.0,0.0,0.0,0.0,0.0,0.0,0.0,0.0,0.247,0.3392,0.4139,0.466,0.4243,0.392,0.0,0.0,0.0,0.0,0.0,0.0,0.0,0.0,0.0,0.0,0.0,0.0,0.0,0.0,0.0,0.0,0.0,0.0,0.0,0.0,0.0,0.0,0.0,0.0,0.0,0.0,0.0,0.0,0.0,0.0,0.0,0.0,0.0,0.0,0.0,0.0,0.0,0.0,0.0,0.0,0.0,0.0,0.0,0.0,0.0,0.0,0.0,0.0,0.0,0.0,0.0,0.0,0.0,0.0,0.0,0.0,0.0,0.0,0.0,0.0,0.0,0.0,0.0,0.0,0.0,0.0,0.0,0.0,0.0,0.0,0.0,0.0,0.0,0.0,0.0,0.0,0.0,0.0,0.0,0.0,0.0,0.0,0.0,0.0,0.0,0.0,0.0,0.0,0.0,0.0,0.0,0.0,0.0,0.0,0.0,0.0,0.0,0.0,0.0,0.0,0.0,0.0,0.0,0.0,0.0,0.0,0.0,0.0,0.0,0.2326,0.3222,0.3772,0.3903,0.3848,0.3604,0.0,0.0,0.0,0.0,0.0,0.0,0.0,0.0,0.0,0.0,0.0,0.0,0.0,0.0,0.0,0.0,0.0,0.0,0.0,0.0,0.0,0.0,0.0,0.0,0.0,0.0,0.0,0.0,0.0,0.0,0.0,0.0,0.0,0.0,0.0,0.0,0.0,0.0,0.0,0.0,0.0,0.0,0.0,0.0,0.0,0.0,0.0,0.0,0.0,0.0,0.0,0.0,0.0,0.0,0.0,0.0,0.0,0.0,0.0,0.0,0.0,0.0,0.0,0.0,0.0,0.0,0.0,0.0,0.0,0.0,0.0,0.0,0.0,0.0,0.0,0.0,0.0,0.0,0.0,0.0,0.0,0.0,0.0,0.0,0.0,0.0,0.0,0.0,0.0,0.0,0.0,0.0,0.0,0.0,0.0,0.0,0.0,0.0,0.0,0.0,0.0,0.0,0.0,0.0,0.0,0.0,0.0,0.0,0.0,0.2689,0.0,0.3677,0.3867,0.3705,0.34,0.0,0.0,0.0,0.0,0.0,0.0,0.0,0.0,0.0,0.0,0.0,0.0,0.0,0.0,0.0,0.0,0.0,0.0,0.0,0.0,0.0,0.0,0.0,0.0,0.0,0.0,0.0,0.0,0.0,0.0,0.0,0.0,0.0,0.0,0.0,0.0,0.0,0.0,0.0,0.0,0.0,0.0,0.0,0.0,0.0,0.0,0.0,0.0,0.0,0.0,0.0,0.0,0.0,0.0,0.0,0.0,0.0,0.0,0.0,0.0,0.0,0.0,0.0,0.0,0.0,0.0,0.0,0.0,0.0,0.0,0.0,0.0,0.0,0.0,0.0,0.0,0.0,0.0,0.0,0.0,0.0,0.0,0.0,0.0,0.0,0.0,0.0,0.0,0.0,0.0,0.0,0.0,0.0,0.0,0.0,0.0,0.0,0.0,0.0,0.0,0.0,0.0,0.0,0.0,0.0,0.0,0.0,0.0,0.3027,0.3648,0.3628,0.3923,0.4627,0.3837,0.3397,0.0,0.0,0.0,0.0,0.0,0.0,0.0,0.0,0.0,0.0,0.0,0.0,0.0,0.0,0.0,0.0,0.0,0.0,0.0,0.0,0.0,0.0,0.0,0.0,0.0,0.0,0.0,0.0,0.0,0.0,0.0,0.0,0.0,0.0,0.0,0.0,0.0,0.0,0.0,0.0,0.0,0.0,0.0,0.0,0.0,0.0,0.0,0.0,0.0,0.0,0.0,0.0,0.0,0.0,0.0,0.0,0.0,0.0,0.0,0.0,0.0,0.0,0.0,0.0,0.0,0.0,0.0,0.0,0.0,0.0,0.0,0.0,0.0,0.0,0.0,0.0,0.0,0.0,0.0,0.0,0.0,0.0,0.0,0.0,0.0,0.0,0.0,0.0,0.0,0.0,0.0,0.0,0.0,0.0,0.0,0.0,0.0,0.0,0.0,0.0,0.0,0.0,0.0,0.0,0.0,0.0,0.0,0.0,0.0,0.3412,0.3731,0.388,0.3858,0.3565,0.3279,0.0,0.0,0.0,0.0,0.0,0.0,0.0,0.0,0.0,0.0,0.0,0.0,0.0,0.0,0.0,0.0,0.0,0.0,0.0,0.0,0.0,0.0,0.0,0.0,0.0,0.0,0.0,0.0,0.0,0.0,0.0,0.0,0.0,0.0,0.0,0.0,0.0,0.0,0.0,0.0,0.0,0.0,0.0,0.0,0.0,0.0,0.0,0.0,0.0,0.0,0.0,0.0,0.0,0.0,0.0,0.0,0.0,0.0,0.0,0.0,0.0,0.0,0.0,0.0,0.0,0.0,0.0,0.0,0.0,0.0,0.0,0.0,0.0,0.0,0.0,0.0,0.0,0.0,0.0,0.0,0.0,0.0,0.0,0.0,0.0,0.0,0.0,0.0,0.0,0.0,0.0,0.0,0.0,0.0,0.0,0.0,0.0,0.0,0.0,0.0,0.0,0.0,0.0,0.0,0.0,0.0,0.0,0.0,0.0,0.3795,0.4073,0.4163,0.4053,0.3721,0.3344,0.3025,0.0,0.0,0.0,0.0,0.0,0.0,0.0,0.0,0.0,0.0,0.0,0.0,0.0,0.0,0.0,0.0,0.0,0.0,0.0,0.0,0.0,0.0,0.0,0.0,0.0,0.0,0.0,0.0,0.0,0.0,0.0,0.0,0.0,0.0,0.0,0.0,0.0,0.0,0.0,0.0,0.0,0.0,0.0,0.0,0.0,0.0,0.0,0.0,0.0,0.0,0.0,0.0,0.0,0.0,0.0,0.0,0.0,0.0,0.0,0.0,0.0,0.0,0.0,0.0,0.0,0.0,0.0,0.0,0.0,0.0,0.0,0.0,0.0,0.0,0.0,0.0,0.0,0.0,0.0,0.0,0.0,0.0,0.0,0.0,0.0,0.0,0.0,0.0,0.0,0.0,0.0,0.0,0.0,0.0,0.0,0.0,0.0,0.0,0.0,0.0,0.0,0.0,0.0,0.0,0.0,0.0,0.0,0.0,0.4636,0.4671,0.4807,0.498,0.4187,0.3651,0.0,0.0,0.0,0.0,0.0,0.0,0.0,0.0,0.0,0.0,0.0,0.0,0.0,0.0,0.0,0.0,0.0,0.0,0.0,0.0,0.0,0.0,0.0,0.0,0.0,0.0,0.0,0.0,0.0,0.0,0.0,0.0,0.0,0.0,0.0,0.0,0.0,0.0,0.0,0.0,0.0,0.0,0.0,0.0,0.0,0.0,0.0,0.0,0.0,0.0,0.0,0.0,0.0,0.0,0.0,0.0,0.0,0.0,0.0,0.0,0.0,0.0,0.0,0.0,0.0,0.0,0.0,0.0,0.0,0.0,0.0,0.0,0.0,0.0,0.0,0.0,0.0,0.0,0.0,0.0,0.0,0.0,0.0,0.0,0.0,0.0,0.0,0.0,0.0,0.0,0.0,0.0,0.0,0.0,0.0,0.0,0.0,0.0,0.0,0.0,0.0,0.0,0.0,0.0,0.0,0.0,0.0,0.0,0.0,0.5195,0.5583,0.5605,0.5239,0.4575,0.403,0.0,0.0,0.0,0.0,0.0,0.0,0.0,0.0,0.0,0.0,0.0,0.0,0.0,0.0,0.0,0.0,0.0,0.0,0.0,0.0,0.0,0.0,0.0,0.0,0.0,0.0,0.0,0.0,0.0,0.0,0.0,0.0,0.0,0.0,0.0,0.0,0.0,0.0,0.0,0.0,0.0,0.0,0.0,0.0,0.0,0.0,0.0,0.0,0.0,0.0,0.0,0.0,0.0,0.0,0.0,0.0,0.0,0.0,0.0,0.0,0.0,0.0,0.0,0.0,0.0,0.0,0.0,0.0,0.0,0.0,0.0,0.0,0.0,0.0,0.0,0.0,0.0,0.0,0.0,0.0,0.0,0.0,0.0,0.0,0.0,0.0,0.0,0.0,0.0,0.0,0.0,0.0,0.0,0.0,0.0,0.0,0.0,0.0,0.0,0.0,0.0,0.0,0.0,0.0,0.0,0.0,0.0,0.0,0.4923,0.5386,0.6085,0.6247,0.5821,0.5064,0.4432,0.0,0.0,0.0,0.0,0.0,0.0,0.0,0.0,0.0,0.0,0.0,0.0,0.0,0.0,0.0,0.0,0.0,0.0,0.0,0.0,0.0,0.0,0.0,0.0,0.0,0.0,0.0,0.0,0.0,0.0,0.0,0.0,0.0,0.0,0.0,0.0,0.0,0.0,0.0,0.0,0.0,0.0,0.0,0.0,0.0,0.0,0.0,0.0,0.0,0.0,0.0,0.0,0.0,0.0,0.0,0.0,0.0,0.0,0.0,0.0,0.0,0.0,0.0,0.0,0.0,0.0,0.0,0.0,0.0,0.0,0.0,0.0,0.0,0.0,0.0,0.0,0.0,0.0,0.0,0.0,0.0,0.0,0.0,0.0,0.0,0.0,0.0,0.0,0.0,0.0,0.0,0.0,0.0,0.0,0.0,0.0,0.0,0.0,0.0,0.0,0.0,0.0,0.0,0.0,0.0,0.0,0.0,0.0,0.5005,0.5499,0.6379,0.6765,0.6548,0.5613,0.4888,0.0,0.0,0.0,0.0,0.0,0.0,0.0,0.0,0.0,0.0,0.0,0.0,0.0,0.0,0.0,0.0,0.0,0.0,0.0,0.0,0.0,0.0,0.0,0.0,0.0,0.0,0.0,0.0,0.0,0.0,0.0,0.0,0.0,0.0,0.0,0.0,0.0,0.0,0.0,0.0,0.0,0.0,0.0,0.0,0.0,0.0,0.0,0.0,0.0,0.0,0.0,0.0,0.0,0.0,0.0,0.0,0.0,0.0,0.0,0.0,0.0,0.0,0.0,0.0,0.0,0.0,0.0,0.0,0.0,0.0,0.0,0.0,0.0,0.0,0.0,0.0,0.0,0.0,0.0,0.0,0.0,0.0,0.0,0.0,0.0,0.0,0.0,0.0,0.0,0.0,0.0,0.0,0.0,0.0,0.0,0.0,0.0,0.0,0.0,0.0,0.0,0.0,0.0,0.0,0.0,0.0,0.0,0.0,0.5595,0.6162,0.6773,0.71,0.7052,0.6171,0.5368,0.0,0.0,0.0,0.0,0.0,0.0,0.0,0.0,0.0,0.0,0.0,0.0,0.0,0.0,0.0,0.0,0.0,0.0,0.0,0.0,0.0,0.0,0.0,0.0,0.0,0.0,0.0,0.0,0.0,0.0,0.0,0.0,0.0,0.0,0.0,0.0,0.0,0.0,0.0,0.0,0.0,0.0,0.0,0.0,0.0,0.0,0.0,0.0,1.0122,0.0,0.0,0.0,0.0,0.0,0.0,0.0,0.0,0.0,0.0,0.0,0.0,0.0,0.0,0.0,0.0,0.0,0.0,0.0,0.0,0.0,0.0,0.0,0.0,0.0,0.0,0.0,0.0,0.0,0.0,0.0,0.0,0.0,0.0,0.0,0.0,0.0,0.0,0.0,0.0,0.0,0.0,0.0,0.0,0.0,0.0,0.0,0.0,0.0,0.0,0.0,0.0,0.0,0.0,0.0,0.0,0.0,0.0,0.0,0.6323,0.6804,0.7242,0.7437,0.7323,0.6691,0.5963,0.0,0.0,0.0,0.0,0.0,0.0,0.0,0.0,0.0,0.0,0.0,0.0,0.0,0.0,0.0,0.0,0.0,0.0,0.0,0.0,0.0,0.0,0.0,0.0,0.0,0.0,0.0,0.0,0.0,0.0,0.0,0.0,0.0,0.0,0.0,0.0,0.0,0.0,0.0,0.0,0.0,0.0,0.0,0.0,0.0,0.0,0.0,0.0,0.0,0.0,0.0,0.0,0.0,0.0,0.0,0.0,0.0,0.0,0.0,0.0,0.0,0.0,0.0,0.0,0.0,0.0,0.0,0.0,0.0,0.0,0.0,0.0,0.0,0.0,0.0,0.0,0.0,0.0,0.0,0.0,0.0,0.0,0.0,0.0,0.0,0.0,0.0,0.0,0.0,0.0,0.0,0.0,0.0,0.0,0.0,0.0,0.0,0.0,0.0,0.0,0.0,0.0,0.0,0.0,0.0,0.0,0.0,0.6202,0.7005,0.7391,0.7707,0.7784,0.7606,0.7097,0.6497,0.5744,0.0,0.0,0.0,0.0,0.0,0.0,0.0,0.0,0.0,0.0,0.0,0.0,0.0,0.0,0.0,0.0,0.0,0.0,0.0,0.0,0.0,0.0,0.0,0.0,0.0,0.0,0.0,0.0,0.0,0.0,0.0,0.0,0.0,0.0,0.0,0.0,0.0,0.0,0.7236,0.8863,0.0,0.0,0.0,0.0,0.0,0.0,0.0,0.0,0.9691,0.0,0.0,0.0,0.0,0.0,0.0,0.0,0.0,0.0,0.0,0.0,0.0,0.0,0.0,0.0,0.0,0.0,0.0,0.0,0.0,0.0,0.0,0.0,0.0,0.0,0.0,0.0,0.0,0.0,0.0,0.0,0.0,0.0,0.0,0.0,0.0,0.0,0.0,0.0,0.0,0.0,0.0,0.0,0.0,0.0,0.0,0.0,0.0,0.0,0.0,0.0,0.0,0.0,0.0,0.0,0.0,0.5488,0.6692,0.7476,0.7879,0.8099,0.8171,0.8069,0.742,0.6817,0.6335,0.0,0.0,0.0,0.0,0.0,0.0,0.0,0.0,0.0,0.0,0.0,0.0,0.0,0.0,0.0,0.0,0.0,0.0,0.0,0.0,0.0,0.0,0.0,0.0,0.0,0.0,0.0,0.0,0.0,0.0,0.0,0.0,0.0,0.0,0.0,0.0,0.0,0.0,0.0,1.0687,1.1728,0.0,0.0,0.0,0.0,0.0,0.0,0.0,0.0,1.0288,0.0,0.0,0.0,0.0,0.0,0.0,0.0,0.0,0.0,0.0,0.0,0.0,0.0,0.0,0.0,0.0,0.0,0.0,0.0,0.0,0.0,0.0,0.0,0.0,0.0,0.0,0.0,0.0,0.0,0.0,0.0,0.0,0.0,0.0,0.0,0.0,0.0,0.0,0.0,0.0,0.0,0.0,0.0,0.0,0.0,0.0,0.0,0.0,0.0,0.0,0.0,0.0,0.0,0.0,0.0,0.6156,0.7351,0.8142,0.8563,0.8447,0.8299,0.8186,0.7612,0.7008,0.0,0.0,0.0,0.0,0.0,0.0,0.0,0.0,0.0,0.0,0.0,0.0,0.0,0.0,0.0,0.0,0.0,0.0,0.0,0.0,0.0,0.0,0.0,0.0,0.0,0.0,0.0,0.0,0.0,0.0,0.0,0.0,0.0,0.0,0.0,0.0,0.0,0.0,0.0,0.0,1.1603,1.2399,1.2121,0.0,0.0,0.0,0.0,0.0,0.0,1.0787,1.0511,0.0,0.0,0.0,0.0,0.0,0.0,0.0,0.0,0.0,0.0,0.0,0.0,0.0,0.0,0.0,0.0,0.0,0.0,0.0,0.0,0.0,0.0,0.0,0.0,0.0,0.0,0.0,0.0,0.0,0.0,0.0,0.0,0.0,0.0,0.0,0.0,0.0,0.0,0.0,0.0,0.0,0.0,0.0,0.0,0.0,0.0,0.0,0.0,0.0,0.0,0.0,0.0,0.0,0.0,0.0,0.6693,0.7933,0.8753,0.912,0.8756,0.843,0.8229,0.7767,0.7095,0.0,0.0,0.0,0.0,0.0,0.0,0.0,0.0,0.0,0.0,0.0,0.0,0.0,0.0,0.0,0.0,0.0,0.0,0.0,0.0,0.0,0.0,0.0,0.0,0.0,0.0,0.0,0.0,0.0,0.0,0.0,0.0,0.0,0.0,0.0,0.0,0.0,0.0,0.0,0.0,0.0,1.2897,1.2902,1.2637,0.0,0.0,0.0,0.0,1.1726,1.155,0.0,0.0,0.0,0.0,0.0,0.0,0.0,0.0,0.0,0.0,0.0,0.0,0.0,0.0,0.0,0.0,0.0,0.0,0.0,0.0,0.0,0.0,0.0,0.0,0.0,0.0,0.0,0.0,0.0,0.0,0.0,0.0,0.0,0.0,0.0,0.0,0.0,0.0,0.0,0.0,0.0,0.0,0.0,0.0,0.0,0.0,0.0,0.0,0.0,0.0,0.0,0.0,0.0,0.0,0.0,0.0,0.6698,0.8045,0.8975,0.9309,0.9077,0.8726,0.8379,0.7875,0.7164,0.0,0.0,0.0,0.0,0.0,0.0,0.0,0.0,0.0,0.0,0.0,0.0,0.0,0.0,0.0,0.0,0.0,0.0,0.0,0.0,0.0,0.0,0.0,0.0,0.0,0.0,0.0,0.0,0.0,0.0,0.0,0.0,0.0,0.0,0.0,0.0,0.0,0.0,0.0,0.0,0.0,1.3612,1.3976,1.4072,1.4069,0.0,0.0,1.338,1.2467,1.3103,0.0,0.0,0.0,0.0,0.0,0.0,0.0,0.0,0.0,0.0,0.0,0.0,0.0,0.0,0.0,0.0,0.0,0.0,0.0,0.0,0.0,0.0,0.0,0.0,0.0,0.0,0.0,0.0,0.0,0.0,0.0,0.0,0.0,0.0,0.0,0.0,0.0,0.0,0.0,0.0,0.0,0.0,0.0,0.0,0.0,0.0,0.0,0.0,0.0,0.0,0.0,0.0,0.0,0.0,0.0,0.5502,0.6811,0.7949,0.8734,0.9211,0.8821,0.8475,0.8243,0.7858,0.722,0.0,0.0,0.0,0.0,0.0,0.0,0.0,0.0,0.0,0.0,0.0,0.0,0.0,0.0,0.0,0.0,0.0,0.0,0.0,0.0,0.0,0.0,0.0,0.0,0.0,0.0,0.0,0.0,0.0,0.0,0.0,0.0,0.0,0.0,0.0,0.0,0.0,0.0,0.0,0.0,0.0,0.0,1.4123,1.4541,0.0,0.0,0.0,1.4733,1.3941,0.0,0.0,0.0,0.0,0.0,0.0,0.0,0.0,0.0,0.0,0.0,0.0,0.0,0.0,0.0,0.0,0.0,0.0,0.0,0.0,0.0,0.0,0.0,0.0,0.0,0.0,0.0,0.0,0.0,0.0,0.0,0.0,0.0,0.0,0.0,0.0,0.0,0.0,0.0,0.0,0.0,0.0,0.0,0.0,0.0,0.0,0.0,0.0,0.0,0.0,0.0,0.0,0.0,0.0,0.0,0.0,0.0,0.6712,0.7752,0.8513,0.8969,0.862,0.8257,0.7984,0.7828,0.0,0.0,0.0,0.0,0.0,0.0,0.0,0.0,0.0,0.0,0.0,0.0,0.0,0.0,0.0,0.0,0.0,0.0,0.0,0.0,0.0,0.0,0.0,0.0,0.0,0.0,0.0,0.4705,0.0,0.0,0.0,0.0,0.0,0.0,0.0,0.0,0.0,0.0,0.0,0.0,0.0,0.0,1.378,1.4303,1.4923,1.5317,0.0,0.0,1.5902,1.5211,1.5211,1.4695,0.0,0.0,0.0,0.0,0.0,0.0,0.0,0.0,0.0,0.0,0.0,0.0,0.0,0.0,0.0,0.0,0.0,0.0,0.0,0.0,0.0,0.0,0.0,0.0,0.0,0.0,0.0,0.0,0.0,0.0,0.0,0.0,0.0,0.0,0.0,0.0,0.0,0.0,0.0,0.0,0.0,0.0,0.0,0.0,0.0,0.0,0.0,0.0,0.0,0.0,0.0,0.0,0.0,0.0,0.0,0.626,0.7607,0.8417,0.8716,0.8698,0.8347,0.7681,0.7816,0.7182,0.0,0.0,0.0,0.0,0.0,0.0,0.0,0.0,0.0,0.0,0.0,0.0,0.0,0.0,0.0,0.0,0.0,0.0,0.0,0.0,0.0,0.0,0.0,0.0,0.0,0.0,0.0,0.0,0.0,0.0,0.0,0.0,0.0,0.0,0.0,0.0,0.0,0.0,0.0,0.0,0.0,1.4303,1.4796,1.5423,1.5967,0.0,0.0,1.692,1.5806,1.607,1.566,1.3516,0.0,0.0,0.0,0.0,0.0,0.0,0.0,0.0,0.0,0.0,0.0,0.0,0.0,0.0,0.0,0.0,0.0,0.0,0.0,0.0,0.0,0.0,0.0,0.0,0.0,0.0,0.0,0.0,0.0,0.0,0.0,0.0,0.0,0.0,0.0,0.0,0.0,0.0,0.0,0.0,0.0,0.0,0.0,0.0,0.0,0.0,0.0,0.0,0.0,0.0,0.0,0.0,0.0,0.5181,0.6194,0.7303,0.8063,0.8411,0.8285,0.8006,0.7607,0.7511,0.697,0.0,0.0,0.0,0.0,0.0,0.0,0.0,0.0,0.0,0.0,0.0,0.0,0.0,0.0,0.0,0.0,0.0,0.0,0.0,0.0,0.0,0.0,0.0,0.0,0.0,0.0,0.0,0.0,0.42,0.4298,0.4744,0.0,0.0,0.0,0.0,0.0,0.0,0.0,0.0,0.0,0.0,1.4449,1.5273,1.5897,0.0,0.0,1.7526,1.7626,1.6882,1.6588,1.5848,1.4054,1.2835,0.0,0.0,0.0,0.0,0.0,0.0,0.0,0.0,0.0,0.0,0.0,0.0,0.0,0.0,0.0,0.0,0.0,0.0,0.0,0.0,0.0,0.0,0.0,0.0,0.0,0.0,0.0,0.0,0.0,0.0,0.0,0.0,0.0,0.0,0.0,0.0,0.0,0.0,0.0,0.0,0.0,0.0,0.0,0.0,0.0,0.0,0.0,0.0,0.0,0.0,0.0,0.0,0.5003,0.6031,0.7056,0.7794,0.8193,0.8069,0.7844,0.7498,0.7376,0.6912,0.0,0.0,0.0,0.0,0.0,0.0,0.0,0.0,0.0,0.0,0.0,0.0,0.0,0.0,0.0,0.0,0.0,0.0,0.0,0.0,0.0,0.0,0.0,0.0,0.0,0.0,0.0,0.0,0.4297,0.4429,0.4763,0.0,0.0,0.0,0.0,0.0,0.0,0.0,0.0,0.0,0.0,1.4676,1.5555,1.6308,1.6923,1.7348,1.799,1.8191,1.7511,1.6898,1.6057,1.4802,0.0,0.0,0.0,0.0,0.0,0.0,0.0,0.0,0.0,0.0,0.0,0.0,0.0,0.0,0.0,0.0,0.0,0.0,0.0,0.0,0.0,0.0,0.0,0.0,0.0,0.0,0.0,0.0,0.0,0.0,0.1823,0.0,0.0,0.0,0.0,0.0,0.0,0.0,0.0,0.0,0.0,0.0,0.0,0.0,0.0,0.0,0.0,0.0,0.0,0.0,0.0,0.0,0.0,0.4902,0.5707,0.6966,0.7703,0.7907,0.8181,0.7922,0.7255,0.7449,0.7027,0.5845,0.0,0.0,0.0,0.0,0.0,0.0,0.0,0.0,0.0,0.0,0.0,0.0,0.0,0.0,0.0,0.0,0.0,0.0,0.0,0.0,0.0,0.0,0.0,0.0,0.0,0.0,0.4759,0.4773,0.4792,0.0,0.0,0.0,0.0,0.0,0.0,0.0,0.0,0.0,0.0,1.3714,1.5104,1.5663,1.6681,1.7398,1.7436,1.8317,1.8607,1.7586,1.6898,1.6321,0.0,0.0,0.0,0.0,0.0,0.0,0.0,0.0,0.0,0.0,0.0,0.0,0.0,0.0,0.0,0.0,0.0,0.0,0.0,0.0,0.0,0.0,0.0,0.0,0.0,0.0,0.0,0.318,0.3059,0.0,0.0,0.0,0.0,0.0,0.0,0.0,0.0,0.0,0.0,0.0,0.4055,0.3652,0.0,0.0,0.0,0.0,0.0,0.0,0.0,0.0,0.0,0.0,0.0,0.0,0.481,0.5835,0.6965,0.7747,0.8229,0.8296,0.8073,0.7417,0.7479,0.7058,0.6099,0.0,0.0,0.0,0.0,0.0,0.0,0.0,0.0,0.0,0.0,0.0,0.0,0.0,0.0,0.0,0.0,0.0,0.0,0.0,0.0,0.0,0.0,0.0,0.0,0.0,0.5108,0.0,0.0,0.0,0.0,0.0,0.0,0.0,0.0,0.0,0.0,0.0,1.092,1.2965,1.4506,1.5756,1.6706,1.7463,1.8066,0.0,0.0,0.0,0.0,0.0,0.0,0.0,0.0,0.0,0.0,0.0,0.0,0.0,0.0,1.7076,1.6498,1.5691,1.5027,1.48,0.0,0.0,0.0,0.0,0.0,0.0,0.0,0.0,0.0,0.0,0.0,0.0,0.0,0.0,0.4388,0.0,0.4071,0.0,0.0,0.0,0.0,0.0,0.0,0.0,0.0,0.5166,0.5222,0.4836,0.4398,0.4206,0.0,0.4349,0.422,0.0,0.0,0.0,0.0,0.0,0.0,0.0,0.0,0.4977,0.6056,0.7137,0.7904,0.8369,0.8395,0.8127,0.753,0.7318,0.7064,0.665,0.635,0.5975,0.0,0.0,0.0,0.0,0.0,0.0,0.0,0.0,0.0,0.0,0.0,0.0,0.0,0.0,0.0,0.0,0.0,0.0,0.0,0.0,0.0,0.0,0.0,0.56,0.0,0.0,0.0,0.0,0.0,0.0,0.0,0.0,0.0,0.8818,0.9965,1.1576,1.358,1.4737,1.5902,1.7222,0.0,0.0,0.0,0.0,0.0,0.0,0.0,1.7112,1.7077,1.6742,1.668,1.725,1.7787,1.8305,1.8844,0.0,0.0,1.9734,1.8689,1.7831,1.7725,1.6584,1.5563,1.5552,1.5665,1.5841,0.0,0.0,0.0,0.0,0.0,0.0,0.0,0.0,0.5826,0.5668,0.0,0.5255,0.0,0.0,0.0,0.0,0.0,0.0,0.0,0.0,0.5936,0.6041,0.5677,0.5275,0.5186,0.5289,0.5147,0.5106,0.5035,0.4127,0.0,0.0,0.0,0.0,0.0,0.0,0.542,0.6407,0.748,0.814,0.8408,0.8421,0.8133,0.7548,0.703,0.6983,0.7433,0.6755,0.6366,0.6401,0.5708,0.0,0.0,0.0,0.0,0.0,0.0,0.0,0.0,0.0,0.0,0.0,0.0,0.0,0.0,0.0,0.0,0.0,0.0,0.0,0.0,0.6148,0.0,0.0,0.0,0.0,0.0,0.0,0.0,0.0,0.0,0.0,0.9767,1.0711,1.2076,1.3739,0.0,0.0,0.0,0.0,1.9221,1.9761,2.0339,2.0503,1.9911,1.892,1.8229,1.8242,0.0,0.0,1.8588,1.8966,1.9381,1.9821,2.0718,2.1639,2.2518,2.1204,2.0142,2.0253,1.884,1.7726,1.7586,1.7477,1.7503,0.6515,0.0,0.0,0.0,0.0,0.6119,0.6489,0.6912,0.6866,0.6826,0.6748,0.6298,0.0,0.0,0.0,0.0,0.0,0.0,0.5328,0.569,0.6078,0.617,0.5952,0.5628,0.5486,0.5506,0.5458,0.5369,0.5225,0.5015,0.4538,0.3895,0.0,0.0,0.0,0.0,0.5845,0.6884,0.7801,0.8408,0.8692,0.8699,0.8396,0.78,0.758,0.7537,0.766,0.7334,0.6973,0.6561,0.6055,0.0,0.0,0.0,0.0,0.0,0.0,0.0,0.0,0.0,0.0,0.0,0.0,0.0,0.0,0.0,0.0,0.0,0.0,0.0,0.6651,0.6797,0.6767,0.0,0.0,0.0,0.0,0.0,0.0,0.0,0.0,0.0,1.2049,1.2427,1.3168,0.0,0.0,1.607,1.7739,1.8894,1.9786,2.0365,0.0,0.0,0.0,1.951,1.892,1.9284,1.9382,1.9732,2.0537,2.0904,2.1322,2.2011,2.2185,2.2518,2.3292,2.2212,2.1032,2.0762,2.004,1.9488,1.948,1.9704,2.0021,0.7328,0.6351,0.6545,0.6734,0.7012,0.7314,0.7674,0.808,0.8017,0.7943,0.7915,0.7422,0.6935,0.6494,0.5498,0.0,0.0,0.0,0.5665,0.5998,0.6202,0.6314,0.6204,0.5965,0.5853,0.5849,0.5853,0.5734,0.5539,0.5657,0.5434,0.4855,0.0,0.0,0.4776,0.5499,0.6299,0.7217,0.8107,0.8631,0.8778,0.8691,0.841,0.7925,0.7834,0.7845,0.7929,0.7661,0.7299,0.6843,0.6306,0.565,0.0,0.0,0.0,0.0,0.0,0.0,0.0,0.0,0.0,0.0,0.0,0.4927,0.5187,0.0,0.0,0.0,0.6348,0.7002,0.7328,0.772,0.0,0.0,0.0,0.0,0.0,0.0,0.0,1.0437,1.1962,1.3135,1.3496,1.3735,1.4212,1.5097,1.5512,1.6308,1.7978,0.0,1.9849,2.0867,2.1295,2.1443,2.133,2.0577,2.0063,2.0294,2.0246,2.0515,2.1303,2.1509,2.1766,2.2386,2.2307,2.2246,2.2865,2.2055,2.1379,2.1456,2.0932,2.0526,2.0651,2.0841,2.1146,0.788,0.7533,0.7697,0.7946,0.8338,0.8582,0.8912,0.925,0.9092,0.898,0.8877,0.8438,0.7953,0.7372,0.6055,0.0,0.5796,0.5966,0.6125,0.625,0.6378,0.644,0.6432,0.6286,0.62,0.6232,0.6196,0.6114,0.5971,0.6122,0.6106,0.5896,0.5058,0.4872,0.5313,0.609,0.6789,0.7453,0.8326,0.8818,0.8838,0.8557,0.8295,0.7945,0.7875,0.799,0.8262,0.78,0.7408,0.7193,0.6461,0.5675,0.4912,0.0,0.0,0.0,0.0,0.0,0.0,0.0,0.0,0.0,0.0,0.0,0.0,0.0,0.0,0.0,0.7299,0.0,0.806,0.8854,0.0,0.0,0.0,0.8294,0.9023,0.9926,1.0925,1.209,0.0,0.0,1.4308,0.0,1.516,1.568,1.5731,1.6296,1.7915,1.8606,1.9509,2.1029,2.1418,2.1694,2.2096,2.1782,2.1365,2.1063,2.063,2.0643,2.1368,2.1248,2.1256,2.1981,2.1603,2.1327,2.1475,2.1388,2.1403,2.2117,2.1561,2.1001,2.1178,2.129,2.1451,0.8247,0.7921,0.812,0.8253,0.8339,0.8522,0.8832,0.9131,0.9105,0.9078,0.9028,0.8606,0.8016,0.7239,0.6381,0.6164,0.6472,0.6408,0.6553,0.681,0.6688,0.6631,0.6619,0.644,0.6351,0.6355,0.6355,0.6331,0.6294,0.6331,0.6294,0.6114,0.5908,0.5922,0.6197,0.6684,0.7229,0.7781,0.8442,0.8884,0.9098,0.8858,0.859,0.8295,0.8231,0.8215,0.8291,0.7792,0.7408,0.7188,0.673,0.6097,0.5306,0.524,0.0,0.0,0.0,0.0,0.0,0.0,0.0,0.0,0.0,0.5664,0.5859,0.0,0.6759,0.0,0.7809,0.8734,0.9511,0.9769,0.0,0.0,0.9572,0.9667,0.9975,1.1184,1.213,1.252,1.3852,1.4885,1.5293,1.5437,1.5718,1.6233,1.5957,1.6158,1.741,1.8041,1.8819,2.0012,2.0953,2.1681,2.2184,2.2209,2.1854,2.1217,2.0962,2.1183,2.2046,2.1734,2.1681,2.2586,2.2075,2.1707,2.2023,2.1469,2.1074,2.1547,2.1475,2.1349,2.1623,2.2208,2.283,0.8272,0.8,0.8182,0.8266,0.8208,0.8541,0.876,0.8927,0.8831,0.8755,0.8745,0.8528,0.8055,0.7402,0.7047,0.6949,0.7049,0.7053,0.7094,0.7066,0.6926,0.68,0.668,0.6505,0.642,0.642,0.642,0.642,0.6391,0.6493,0.6481,0.6416,0.6531,0.6586,0.6672,0.6897,0.729,0.7854,0.8425,0.8858,0.9163,0.8958,0.8671,0.8409,0.8342,0.8243,0.8175,0.7709,0.7407,0.7342,0.6836,0.6289,0.5716,0.5659,0.5659,0.0,0.0,0.0,0.0,0.0,0.0,0.0,0.0,0.0,0.0,0.0,0.797,0.0,0.9238,0.9966,1.095,1.1217,1.126,1.1042,1.1038,1.1098,1.1275,1.2084,1.2819,1.3322,1.4184,1.5006,1.5658,1.5787,1.5989,1.651,1.6279,1.6384,1.7222,1.7652,1.8304,1.9597,2.0552,2.1446,2.2184,2.2153,2.1837,2.1268,2.117,2.1456,2.2228,2.189,2.1799,2.2557,2.189,2.1263,2.1525,2.1171,2.0843,2.1078,2.136,2.1643,2.1964,2.2529,2.3126,0.8235,0.8036,0.8088,0.8115,0.8099,0.8433,0.8602,0.8613,0.844,0.8328,0.8254,0.8319,0.8087,0.7716,0.7762,0.7698,0.7496,0.769,0.7557,0.7215,0.711,0.6903,0.6741,0.6546,0.6453,0.6419,0.6395,0.6399,0.6457,0.6637,0.6718,0.6751,0.6906,0.696,0.6907,0.6882,0.7164,0.7807,0.8321,0.8784,0.9257,0.8951,0.8684,0.8456,0.8338,0.8175,0.7974,0.7589,0.745,0.7504,0.6999,0.6565,0.6257,0.6229,0.6261,0.0,0.6356,0.0,0.0,0.0,0.0,0.0,0.0,0.0,0.0,0.8778,0.9464,1.085,1.0994,1.1359,1.2298,1.2769,1.2867,1.2538,1.2484,1.2542,1.2667,1.291,1.337,1.4181,1.4574,1.5074,1.5764,1.5921,1.6144,1.6502,1.6488,1.6654,1.7237,1.7313,1.7815,1.9397,2.0213,2.1094,2.1939,2.1936,2.1631,2.1308,2.1364,2.1652,2.2385,2.206,2.1825,2.2283,2.1655,2.0935,2.0883,2.0922,2.0869,2.1026,2.1392,2.1756,2.214,2.2608,2.3027,0.8532,0.8235,0.8245,0.8164,0.8036,0.8117,0.8145,0.8212,0.8176,0.8163,0.8134,0.8323,0.8151,0.7804,0.7781,0.7698,0.7526,0.7559,0.7496,0.7431,0.7257,0.7118,0.7102,0.6794,0.6643,0.6635,0.6489,0.6497,0.6643,0.6702,0.6788,0.6935,0.7007,0.6952,0.6899,0.0,0.0,0.0,0.8228,0.8807,0.9524,0.9078,0.8784,0.8717,0.8344,0.0,0.7774,0.7521,0.7496,0.7722,0.7723,0.0,0.0,0.0,0.0,0.0,0.0,0.0,0.0,0.0,0.0,0.0,0.9441,0.9787,0.9659,1.0432,1.1213,1.1853,1.1948,1.2342,1.3314,1.3488,1.3663,1.3936,1.3991,1.3872,1.3619,1.4114,1.4546,1.4587,1.5378,1.5926,1.6077,1.6166,1.6234,1.6293,1.6287,1.6519,1.7152,1.6954,1.7152,1.8342,1.9874,2.0945,2.1711,2.1792,2.1827,2.1838,2.1907,2.2235,2.2815,2.261,2.24,2.2897,2.2126,2.1511,2.1943,2.1695,2.1433,2.1956,2.1773,2.1628,2.1925,2.2882,2.3784,0.8536,0.0,0.8292,0.8182,0.0,0.8012,0.8036,0.8057,0.7973,0.7884,0.7816,0.8083,0.8024,0.7826,0.7799,0.7698,0.7518,0.7395,0.7354,0.7346,0.7171,0.7143,0.7179,0.6867,0.6741,0.6845,0.655,0.6554,0.6849,0.6849,0.6943,0.7126,0.7171,0.7155,0.695,0.6894,0.7185,0.789,0.83,0.8963,0.981,0.9297,0.8998,0.8978,0.0,0.0,0.0,0.0,0.0,0.0,0.0,0.0,0.0,0.0,0.0,0.8926,0.8852,0.8979,0.9402,0.9604,0.9859,1.0319,1.138,1.1739,1.1072,1.1738,1.2409,1.2888,1.2942,1.3335,1.4275,1.459,1.4941,1.5378,1.5662,1.5654,1.523,1.5242,1.5293,1.52,1.5579,1.5935,1.5991,1.611,1.6129,1.61,1.6044,1.6296,1.6942,1.7013,1.7513,1.9145,2.0671,2.1736,2.2087,2.2263,2.2234,2.2232,2.2417,2.276,2.313,2.2975,2.2897,2.3052,2.2256,2.1629,2.1799,2.1511,2.121,2.1537,2.1773,2.197,2.2141,2.2525,2.3044,0.8522,0.8337,0.838,0.8251,0.8113,0.8146,0.8154,0.8138,0.0,0.0,0.0,0.7918,0.7951,0.7804,0.7833,0.7726,0.748,0.7334,0.7236,0.7265,0.7151,0.7163,0.7215,0.694,0.6902,0.7016,0.6672,0.668,0.7029,0.7037,0.7126,0.7269,0.7387,0.7282,0.6925,0.7042,0.7375,0.7954,0.8375,0.9112,1.005,0.9564,0.9291,0.9291,0.8797,0.8355,0.7923,0.7788,0.788,0.8189,0.8038,0.8225,0.8784,0.9124,0.9477,0.9865,1.015,1.0501,1.0833,1.0915,1.1206,1.1768,1.2796,1.3195,1.2616,1.3019,1.3499,1.4034,1.4078,1.4428,1.5279,1.5778,1.6247,1.6705,1.7224,1.7328,1.6721,1.6302,1.5979,1.568,1.5661,1.5697,1.5715,1.5846,1.5949,1.5967,1.5948,1.6313,1.7186,1.7739,1.8542,2.0291,2.1496,2.2366,2.2531,2.2621,2.2715,2.2483,2.2761,2.3065,2.3156,2.3104,2.3067,2.3001,2.2191,2.1629,2.1459,2.1211,2.0896,2.0962,2.1734,2.2467,2.2584,2.2259,2.2379,0.8592,0.8571,0.8571,0.8559,0.8547,0.8645,0.8662,0.8666,0.8191,0.7963,0.7955,0.8158,0.8069,0.7808,0.791,0.7793,0.7526,0.7456,0.7447,0.0,0.7419,0.7457,0.7435,0.7244,0.7126,0.7171,0.7012,0.702,0.713,0.7151,0.7273,0.7407,0.7326,0.6969,0.6551,0.6903,0.7458,0.8143,0.8522,0.9126,1.007,0.9793,0.9619,0.9593,0.9051,0.8616,0.8331,0.7978,0.8063,0.8666,0.8623,0.9019,0.9974,1.01,1.0693,1.1888,1.1728,1.188,1.2555,1.223,1.2146,1.252,1.2955,1.3403,1.4044,1.4526,1.4993,1.5451,1.5462,1.5724,1.6273,1.6776,1.7267,1.7748,1.8206,1.8141,1.7339,1.7131,1.668,1.5791,1.5927,1.5869,1.5507,1.5537,1.5689,1.5812,1.6139,1.692,1.8471,1.9294,1.9825,2.07,2.1399,2.189,2.2356,2.2299,2.2589,2.2998,2.2752,2.2765,2.313,2.2844,2.261,2.2544,2.1982,2.1538,2.1472,2.1446,2.1525,2.1864,2.2269,2.2753,2.3524,2.3113,2.296,0.8616,0.8616,0.8616,0.8616,0.8624,0.8747,0.8881,0.8946,0.871,0.8491,0.8371,0.8406,0.8296,0.8082,0.7821,0.7677,0.7514,0.7322,0.7286,0.7346,0.7439,0.7575,0.7657,0.7588,0.7565,0.7591,0.737,0.7371,0.7496,0.7419,0.7358,0.733,0.7074,0.6779,0.6608,0.707,0.7666,0.8349,0.8772,0.9418,1.0341,1.0067,0.9846,0.9715,0.9231,0.8798,0.8409,0.818,0.825,0.8627,0.8611,0.9047,1.0001,1.0355,1.1099,1.2395,1.2435,1.2748,1.3525,1.3385,1.3317,1.3516,1.3779,1.4306,1.512,1.5109,1.5386,1.6094,1.6182,1.6498,1.7245,1.7759,1.8239,1.869,1.92,1.9069,1.8247,1.7813,1.7274,1.6365,1.5981,1.575,1.5439,1.5246,1.528,1.5629,1.6499,1.78,1.918,2.0091,2.098,2.1952,2.248,2.2821,2.3075,2.3202,2.323,2.3221,2.2986,2.2962,2.3158,2.274,2.244,2.2361,2.1877,2.1525,2.1472,2.1472,2.1629,2.189,2.2778,2.3469,2.3916,2.3992,2.4112,0.8616,0.8616,0.8616,0.8657,0.8743,0.8824,0.8986,0.9149,0.9153,0.8982,0.8751,0.8645,0.8499,0.8251,0.7805,0.7581,0.7543,0.7253,0.7171,0.735,0.7484,0.7682,0.7841,0.7861,0.7886,0.7971,0.7732,0.7659,0.7771,0.7653,0.7449,0.7163,0.6922,0.6781,0.6733,0.7315,0.7919,0.8505,0.9051,0.9731,1.0541,1.0334,1.0074,0.9786,0.9492,0.9071,0.8591,0.8369,0.8345,0.8491,0.8432,0.8882,0.9891,1.0405,1.1283,1.2582,1.292,1.3349,1.4093,1.4091,1.4127,1.4286,1.4443,1.4915,1.5756,1.5632,1.5832,1.6672,1.6983,1.7355,1.8032,1.8567,1.9004,1.9397,1.9824,1.9638,1.8829,1.837,1.7755,1.6861,1.6137,1.5701,1.5448,1.5122,1.5271,1.6103,1.727,1.8455,1.9447,2.0547,2.1692,2.2971,2.3508,2.3577,2.3878,2.3829,2.3574,2.3119,2.283,2.2714,2.2621,2.2349,2.2035,2.1877,2.1616,2.1315,2.1315,2.1433,2.1642,2.2008,2.3078,2.4086,2.4321,2.4842,2.4939,0.8616,0.8616,0.8616,0.8759,0.9023,0.9051,0.9157,0.9355,0.9375,0.9277,0.9011,0.8873,0.8609,0.8292,0.8057,0.787,0.7763,0.7563,0.7563,0.7726,0.7767,0.7825,0.7979,0.7992,0.8,0.802,0.7971,0.7878,0.7833,0.778,0.751,0.7069,0.7114,0.7065,0.6979,0.7606,0.8169,0.8598,0.9366,1.0028,1.0555,1.0566,1.0374,1.0057,0.9793,0.9492,0.9098,0.8495,0.8264,0.8513,0.825,0.8723,0.9997,1.0363,1.1396,1.3455,1.3439,1.3626,1.4364,1.4134,1.4183,1.4559,1.4286,1.4707,1.6068,1.6389,1.6857,1.7647,1.8239,1.848,1.8643,1.9058,1.9311,1.9431,1.9813,1.9736,1.8895,1.8684,1.8145,1.6839,1.6384,1.5959,1.5537,1.543,1.5961,1.7053,1.7762,1.8712,1.984,2.05,2.1614,2.3238,2.3686,2.3616,2.3855,2.36,2.3156,2.2596,2.2047,2.1969,2.1917,2.1564,2.0883,2.1341,2.108,2.1027,2.1001,2.1184,2.1943,2.2846,2.3683,2.4377,2.4835,2.5363,2.5292,0.8616,0.8616,0.8616,0.8751,0.8917,0.8934,0.9039,0.9198,0.9249,0.91,0.8942,0.8852,0.869,0.8576,0.8191,0.7971,0.7898,0.7767,0.7722,0.782,0.8012,0.8113,0.8174,0.8178,0.8231,0.8308,0.8122,0.8036,0.8012,0.7796,0.7469,0.7155,0.7186,0.7205,0.7311,0.7782,0.8331,0.8892,0.9248,0.9731,1.027,1.0499,1.0445,1.0127,0.9833,0.9546,0.9184,0.8646,0.8445,0.8629,0.8532,0.9104,1.0528,1.0829,1.1894,1.3939,1.4477,1.4876,1.5331,1.5109,1.505,1.5278,1.5266,1.5616,1.6284,1.7031,1.7739,1.8287,1.883,1.9222,1.9442,1.9473,1.9507,1.9725,1.9758,1.9452,1.8796,1.8698,1.8247,1.7219,1.6669,1.6306,1.6067,1.6074,1.6475,1.7352,1.7882,1.8604,1.9636,2.0081,2.1126,2.2704,2.2918,2.3049,2.3653,2.3459,2.2944,2.2505,2.2204,2.2086,2.2322,2.2061,2.1629,2.1263,2.142,2.1433,2.125,2.1995,2.2833,2.3832,2.514,2.5937,2.5805,2.595,2.5637,0.8616,0.8616,0.8616,0.8666,0.8771,0.8775,0.8897,0.9011,0.9023,0.8917,0.8759,0.8751,0.8751,0.8686,0.828,0.8089,0.8065,0.7906,0.7898,0.7967,0.8216,0.8316,0.8404,0.8412,0.8438,0.8551,0.83,0.8215,0.8231,0.7845,0.7468,0.7302,0.7318,0.7444,0.7701,0.808,0.8513,0.9078,0.9221,0.9467,0.9854,1.0247,1.0334,1.012,0.9913,0.9626,0.9224,0.8871,0.8678,0.8724,0.883,0.9513,1.0834,1.12,1.2263,1.412,1.5161,1.5735,1.5968,1.5827,1.5822,1.6006,1.609,1.6219,1.6653,1.7366,1.8023,1.8493,1.903,1.9544,1.9998,1.9791,1.9769,2.0053,1.9867,1.9583,1.9004,1.8971,1.8698,1.7649,1.7065,1.6656,1.652,1.6503,1.6754,1.7601,1.793,1.8348,1.9199,1.9723,2.0471,2.1951,2.2031,2.2402,2.3272,2.3035,2.2581,2.2294,2.2073,2.2309,2.2975,2.2688,2.2349,2.1838,2.2205,2.2296,2.1995,2.2676,2.3942,2.5054,2.617,2.684,2.6303,2.621,2.5685,0.8616,0.8616,0.8616,0.8662,0.8771,0.8767,0.882,0.8832,0.8832,0.8739,0.8649,0.8593,0.8629,0.8589,0.8385,0.828,0.8256,0.8097,0.8113,0.826,0.83,0.8433,0.8592,0.86,0.86,0.8608,0.8543,0.8414,0.8276,0.7975,0.7694,0.7498,0.7633,0.7857,0.8159,0.8451,0.878,0.9179,0.9324,0.9358,0.9342,0.9824,1.0107,1.0057,1.0087,0.977,0.9297,0.9178,0.9031,0.8791,0.9065,0.9757,1.0873,1.1407,1.2445,1.4071,1.5229,1.5825,1.5968,1.5956,1.6169,1.6612,1.619,1.6159,1.6964,1.7202,1.7578,1.8257,1.8928,1.9498,1.9955,1.9955,2.002,2.0162,2.0522,2.0271,1.9517,1.9715,1.9355,1.8294,1.7606,1.7169,1.6667,1.6525,1.7245,1.8065,1.825,1.8359,1.9135,1.9565,2.0046,2.0767,2.1285,2.1803,2.2687,2.258,2.2029,2.1951,2.2163,2.2073,2.2518,2.2833,2.2571,2.2401,2.2584,2.2676,2.269,2.351,2.4922,2.5944,2.6525,2.685,2.631,2.5805,2.5341,0.8432,0.8616,0.8616,0.8605,0.8653,0.8658,0.8662,0.8662,0.8662,0.8669,0.8624,0.8616,0.8669,0.8727,0.8662,0.8568,0.8514,0.8437,0.8459,0.8613,0.8629,0.8666,0.8698,0.8507,0.8506,0.8584,0.849,0.8357,0.8292,0.8154,0.7988,0.782,0.8094,0.8411,0.871,0.8962,0.9254,0.9457,0.9392,0.9261,0.9224,0.9417,0.9617,0.9826,0.984,0.9746,0.9532,0.9144,0.8971,0.9051,0.935,1.0142,1.1497,1.3084,1.4549,1.5726,1.6262,1.6571,1.684,1.6671,1.6646,1.6835,1.6652,1.6575,1.6945,1.7226,1.7581,1.8104,1.8774,1.9341,1.965,1.9706,1.9932,2.0467,2.0478,2.0424,2.0336,2.0205,1.9769,1.9006,1.848,1.7999,1.7628,1.7715,1.8119,1.8523,1.8294,1.849,1.9026,1.901,1.9055,1.9765,2.0248,2.0641,2.1092,2.1807,2.2018,2.2352,2.2587,2.2957,2.335,2.3537,2.338,2.2923,2.3001,2.3398,2.357,2.4466,2.5851,2.6005,2.6612,2.6509,2.6155,2.5665,2.5331,0.8432,0.8612,0.8616,0.8616,0.8616,0.8616,0.8616,0.8616,0.8616,0.8616,0.8616,0.8616,0.8637,0.8727,0.8739,0.8759,0.8784,0.8739,0.8804,0.8897,0.8848,0.8775,0.8775,0.8515,0.8486,0.8567,0.8424,0.8292,0.828,0.8316,0.8243,0.8127,0.8574,0.8971,0.9287,0.9441,0.9556,0.9623,0.9364,0.915,0.9104,0.9137,0.9304,0.9506,0.9539,0.9539,0.9532,0.9245,0.9172,0.9387,0.9721,1.0617,1.2199,1.4145,1.5638,1.6402,1.6585,1.6817,1.7075,1.6912,1.6787,1.6899,1.6968,1.6978,1.6943,1.721,1.752,1.7915,1.8612,1.9217,1.945,1.9695,2.0096,2.0555,2.0478,2.0489,2.0829,2.0566,2.0096,1.9473,1.8927,1.8545,1.8338,1.8501,1.8709,1.8884,1.8523,1.8567,1.8905,1.8873,1.8534,1.9111,1.9654,2.0206,2.0823,2.153,2.196,2.2293,2.2734,2.3285,2.3741,2.3952,2.3903,2.3496,2.3642,2.4089,2.4744,2.5571,2.5902,2.5964,2.5905,2.5851,2.5639,2.5492,2.5207,0.8568,0.8568,0.8616,0.8616,0.8616,0.8616,0.8616,0.8616,0.8616,0.8616,0.8616,0.8616,0.8589,0.8641,0.8629,0.8767,0.9035,0.9068,0.9092,0.9112,0.893,0.8799,0.8832,0.8637,0.8567,0.8575,0.8373,0.8276,0.8277,0.8367,0.8476,0.872,0.9111,0.9568,0.9986,0.9854,0.9756,0.9675,0.9411,0.9104,0.8878,0.9044,0.9191,0.9237,0.9244,0.9264,0.9264,0.9492,0.9599,0.9735,1.0132,1.1247,1.2893,1.4299,1.5191,1.5841,1.6213,1.6438,1.6542,1.6578,1.6689,1.6886,1.7107,1.7107,1.7047,1.7141,1.7332,1.7757,1.8562,1.9225,1.9476,2.0283,2.0773,2.0292,2.0642,2.0938,2.1025,2.0927,2.0522,1.9659,1.9093,1.8753,1.8698,1.8753,1.8916,1.9058,1.8884,1.8632,1.8796,1.8938,1.9069,1.8988,1.939,2.0087,2.0773,2.1443,2.1769,2.2126,2.2572,2.3051,2.3501,2.3772,2.3589,2.3341,2.4148,2.4639,2.4982,2.5745,2.6029,2.6048,2.5731,2.5412,2.5358,2.5263,2.5018,0.834,0.834,0.8524,0.8616,0.8616,0.8616,0.8616,0.8616,0.8616,0.8616,0.8616,0.8616,0.8629,0.8718,0.8743,0.8934,0.9259,0.9326,0.934,0.9384,0.9149,0.9011,0.8954,0.8706,0.8499,0.8385,0.8321,0.82,0.8065,0.8356,0.8656,0.8976,0.961,1.0144,1.058,1.0508,1.0334,0.998,0.9693,0.9312,0.8864,0.8871,0.9004,0.9157,0.9183,0.9297,0.9519,0.9446,0.9557,0.9953,1.0421,1.1603,1.3488,1.4565,1.5501,1.6395,1.6614,1.6784,1.693,1.6868,1.688,1.7079,1.7166,1.7245,1.7289,1.7254,1.7499,1.8053,1.8935,1.9692,2.0514,2.1513,2.1764,2.1187,2.1275,2.166,2.1953,2.1691,2.0959,2.0096,1.9747,1.954,1.9288,1.92,1.9146,1.9015,1.8851,1.8763,1.8753,1.8927,1.8895,1.8783,1.9441,1.9975,2.0457,2.1192,2.1867,2.2172,2.2582,2.2794,2.3215,2.3354,2.3184,2.3681,2.4488,2.5078,2.5455,2.5765,2.6072,2.5862,2.541,2.5249,2.5236,2.5113,2.4924,0.7897,0.8069,0.8432,0.8605,0.8649,0.8641,0.8605,0.8645,0.8637,0.8616,0.8616,0.8616,0.8621,0.871,0.8727,0.8885,0.9184,0.9204,0.9291,0.947,0.9319,0.9194,0.9188,0.8828,0.8609,0.8459,0.828,0.8077,0.7906,0.8371,0.8863,0.9311,1.015,1.0767,1.1111,1.11,1.0788,1.0166,0.9826,0.9399,0.8931,0.8778,0.8951,0.9158,0.9176,0.9417,0.9786,0.976,0.9817,1.0171,1.0707,1.1916,1.3562,1.443,1.5327,1.6084,1.6596,1.6816,1.6899,1.6917,1.7072,1.7201,1.7304,1.7502,1.7675,1.7644,1.7986,1.8674,1.9494,2.0275,2.1036,2.2042,2.2451,2.2211,2.1933,2.2073,2.2368,2.1974,2.1428,2.0761,2.0489,2.0249,2.0041,1.9704,1.9562,1.9288,1.9202,1.9113,1.9091,1.9146,1.9102,1.9131,1.9521,1.9884,2.0067,2.089,2.1849,2.2284,2.2627,2.2678,2.2879,2.2831,2.2715,2.3929,2.4853,2.5358,2.576,2.5997,2.6226,2.5654,2.5276,2.5439,2.552,2.5168,2.4964,0.742,0.7797,0.8376,0.8645,0.8738,0.8658,0.8658,0.8751,0.8637,0.8616,0.8616,0.8616,0.862,0.862,0.8641,0.8714,0.8828,0.8905,0.9112,0.9344,0.9416,0.94,0.9286,0.897,0.88,0.867,0.8308,0.8057,0.798,0.8471,0.9045,0.9778,1.0716,1.1476,1.1659,1.1659,1.1099,1.033,0.988,0.9392,0.8825,0.8778,0.8945,0.917,0.9264,0.9537,1.008,1.0463,1.053,1.0409,1.1191,1.2107,1.3091,1.4082,1.4834,1.5446,1.6265,1.6546,1.6575,1.698,1.7257,1.727,1.7643,1.7849,1.8068,1.8304,1.8676,1.9307,2.0111,2.0703,2.1163,2.2143,2.2859,2.3023,2.2756,2.2364,2.18,2.1734,2.1592,2.1461,2.12,2.0883,2.0752,2.0347,2.0053,1.99,1.9834,1.9595,1.9397,1.9353,1.9649,1.9732,1.9689,1.9775,1.9968,2.1037,2.1982,2.2355,2.2728,2.2938,2.2944,2.2885,2.3085,2.4262,2.5341,2.5766,2.6078,2.6347,2.626,2.5837,2.5738,2.5873,2.567,2.5276,2.51,0.6988,0.7376,0.8298,0.8623,0.8556,0.8677,0.8702,0.8637,0.8637,0.8616,0.8616,0.8616,0.8616,0.8616,0.862,0.8731,0.8934,0.9007,0.9214,0.9514,0.9559,0.9393,0.9206,0.9076,0.8893,0.8666,0.8531,0.8219,0.793,0.8621,0.937,1.0178,1.1054,1.1965,1.2596,1.2141,1.1454,1.0755,1.0027,0.9419,0.8931,0.8798,0.8924,0.9198,0.9446,0.9853,1.0459,1.1099,1.1533,1.169,1.1985,1.2717,1.3625,1.4241,1.4832,1.5641,1.6132,1.6618,1.6949,1.7362,1.7605,1.764,1.8165,1.8598,1.8485,1.8847,1.9307,1.9955,2.0636,2.1293,2.2016,2.3059,2.3826,2.4194,2.3675,2.3127,2.2706,2.2324,2.2007,2.1658,2.1516,2.1299,2.0938,2.05,2.0042,1.9758,1.9638,1.954,1.9408,1.943,1.9682,1.9667,1.9645,1.973,2.0113,2.119,2.2001,2.241,2.2869,2.3402,2.3504,2.3638,2.4116,2.4919,2.6105,2.6759,2.6725,2.6854,2.6455,2.6102,2.6022,2.6022,2.5643,2.5276,2.5263,0.6121,0.6735,0.7652,0.8214,0.836,0.864,0.8694,0.8662,0.8637,0.8616,0.8616,0.8616,0.8616,0.862,0.8645,0.8735,0.8873,0.895,0.9088,0.9215,0.9425,0.9425,0.9324,0.9254,0.9092,0.8939,0.8803,0.8567,0.8464,0.8955,0.9724,1.0595,1.1468,1.2327,1.3054,1.2592,1.1913,1.1176,1.0428,0.9796,0.9225,0.9018,0.9124,0.9357,0.9626,1.01,1.0972,1.1614,1.2019,1.222,1.248,1.2955,1.3663,1.4088,1.4624,1.536,1.5808,1.6453,1.7007,1.7488,1.7903,1.8209,1.8685,1.8882,1.9039,1.9411,1.9927,2.0403,2.0944,2.1589,2.2299,2.3292,2.4098,2.4607,2.4368,2.3941,2.3629,2.3012,2.2652,2.2411,2.2127,2.1701,2.1255,2.074,2.0238,1.9867,1.9791,1.9638,1.9475,1.9573,1.9692,1.9723,1.9767,1.9884,2.0231,2.1162,2.236,2.2778,2.3884,2.429,2.4298,2.4546,2.5077,2.5813,2.6875,2.7517,2.7363,2.7189,2.6856,2.657,2.6373,2.6077,2.5751,2.548,2.5466,0.5103,0.6016,0.6861,0.7561,0.8134,0.8473,0.8629,0.869,0.8629,0.8616,0.8616,0.8616,0.8633,0.8649,0.8698,0.8731,0.8714,0.8812,0.8852,0.9019,0.9222,0.9413,0.9498,0.9425,0.9388,0.9325,0.9108,0.9008,0.9083,0.9485,1.0234,1.1088,1.193,1.2649,1.3174,1.2998,1.2345,1.1597,1.0969,1.0345,0.9766,0.9457,0.9424,0.9499,0.9894,1.0478,1.1403,1.206,1.2366,1.2316,1.2629,1.3027,1.3381,1.3859,1.4327,1.4865,1.5765,1.6513,1.7033,1.77,1.8206,1.8749,1.8828,1.8993,1.957,1.9985,2.0467,2.0767,2.1206,2.1668,2.2183,2.2931,2.369,2.4335,2.4418,2.4414,2.427,2.3656,2.3296,2.3509,2.2826,2.2248,2.1647,2.1155,2.0664,2.0031,1.9954,1.9878,1.9725,1.9693,1.9845,1.9976,2.0044,2.0073,2.0553,2.1121,2.234,2.336,2.4948,2.5665,2.5431,2.5648,2.6047,2.672,2.7506,2.7811,2.7754,2.7521,2.7228,2.7002,2.6766,2.6416,2.605,2.5819,2.5739,0.4794,0.5466,0.6568,0.7184,0.747,0.8174,0.8446,0.8355,0.8548,0.8641,0.8616,0.8616,0.8645,0.8755,0.8698,0.8739,0.8897,0.8869,0.8893,0.906,0.9294,0.9408,0.9445,0.9482,0.9482,0.95,0.9725,0.9668,0.9638,1.0181,1.0998,1.1762,1.2288,1.2996,1.3658,1.3327,1.2799,1.2131,1.153,1.0835,1.0187,0.9953,0.974,0.9532,1.017,1.0958,1.1696,1.2543,1.2969,1.3027,1.3128,1.3448,1.3918,1.4176,1.4744,1.5622,1.639,1.7053,1.7594,1.8472,1.9058,1.8886,1.9533,2.0078,1.9866,2.056,2.0939,2.1175,2.1423,2.1859,2.2217,2.251,2.306,2.3626,2.3854,2.3902,2.39,2.4006,2.3793,2.3263,2.2925,2.2521,2.1691,2.119,2.0697,2.0249,2.0118,2.0118,1.9998,1.9845,1.9976,2.0161,2.015,2.0273,2.1011,2.174,2.3005,2.3983,2.5476,2.6622,2.6401,2.6568,2.689,2.7386,2.7939,2.8098,2.8098,2.7805,2.7453,2.7308,2.7077,2.6592,2.6185,2.6036,2.6027,0.4133,0.4728,0.552,0.6168,0.6765,0.7626,0.8112,0.8318,0.8676,0.8767,0.8698,0.8682,0.8739,0.8767,0.8739,0.8812,0.8889,0.8792,0.8747,0.8885,0.9135,0.9226,0.9318,0.9413,0.9518,0.9534,0.9901,0.9999,1.0159,1.0674,1.1456,1.2252,1.2611,1.3196,1.3919,1.3641,1.3113,1.2589,1.2071,1.1375,1.0668,1.0374,1.0201,0.9985,1.0622,1.1405,1.2221,1.2984,1.3532,1.3714,1.3787,1.3893,1.408,1.4246,1.4858,1.5861,1.6509,1.7322,1.8147,1.8936,1.9479,1.9504,2.0049,2.0128,2.0314,2.0857,2.1167,2.1212,2.1503,2.1998,2.2236,2.2193,2.248,2.2722,2.299,2.3055,2.3129,2.3558,2.3688,2.2974,2.2567,2.2013,2.1465,2.1025,2.0675,2.0205,2.0129,2.0118,2.0151,2.0063,2.0117,2.0234,2.0196,2.0538,2.1422,2.247,2.3831,2.4745,2.5721,2.6627,2.697,2.727,2.762,2.8035,2.8319,2.8419,2.8351,2.8044,2.7718,2.7488,2.7149,2.6647,2.6307,2.6199,2.6315,0.3632,0.4078,0.4491,0.5234,0.6184,0.7165,0.7851,0.8326,0.8952,0.9121,0.8931,0.891,0.8922,0.8861,0.8828,0.8816,0.8796,0.8755,0.8754,0.8884,0.9163,0.9287,0.9357,0.9475,0.9611,0.969,1.0022,1.0243,1.0537,1.1073,1.1873,1.259,1.285,1.3405,1.3929,1.3883,1.3534,1.3056,1.2712,1.2047,1.1236,1.0901,1.0663,1.067,1.1076,1.1806,1.2599,1.3287,1.3852,1.437,1.4482,1.4379,1.4216,1.4181,1.4599,1.5684,1.635,1.7235,1.8268,1.908,1.9741,2.042,2.0254,2.0186,2.0449,2.0966,2.1221,2.1372,2.1624,2.2141,2.2113,2.2072,2.2028,2.2131,2.2181,2.2133,2.2192,2.2652,2.2764,2.2615,2.2234,2.1766,2.1235,2.0796,2.0489,2.0238,2.0172,2.0183,2.0227,2.0336,2.0401,2.0716,2.0833,2.1363,2.222,2.294,2.4342,2.4902,2.5795,2.6421,2.7023,2.7238,2.7493,2.8229,2.856,2.8587,2.8546,2.8275,2.7963,2.7664,2.7352,2.6986,2.6674,2.6402,2.6603,0.4034,0.4381,0.479,0.5285,0.5996,0.7266,0.7976,0.843,0.9354,0.9592,0.9381,0.9368,0.9221,0.9049,0.8873,0.8841,0.8859,0.8884,0.8959,0.9155,0.9462,0.96,0.966,0.9752,0.9826,0.994,1.0244,1.0546,1.0862,1.1562,1.2322,1.2948,1.3154,1.3615,1.4089,1.4274,1.4015,1.3512,1.3226,1.2594,1.1759,1.1303,1.1154,1.1143,1.1512,1.2121,1.2747,1.3281,1.3733,1.4048,1.4326,1.4553,1.4648,1.4652,1.5115,1.5826,1.6586,1.7358,1.8133,1.9156,1.9659,1.9918,2.0187,2.0439,2.0683,2.1146,2.1473,2.1663,2.1906,2.2264,2.2132,2.2082,2.2005,2.1977,2.189,2.1778,2.1468,2.1637,2.2057,2.1998,2.1772,2.1582,2.1096,2.0687,2.049,2.0347,2.0303,2.038,2.0545,2.0643,2.0785,2.1191,2.1682,2.238,2.3173,2.3754,2.4564,2.4707,2.534,2.591,2.6445,2.6789,2.7253,2.8166,2.8573,2.8587,2.8505,2.841,2.8343,2.8139,2.7773,2.7379,2.7257,2.7108,2.7029,0.4485,0.4632,0.4837,0.5266,0.6046,0.7213,0.8056,0.8683,0.97,1.0027,0.9785,0.9605,0.9469,0.9254,0.8845,0.8766,0.8888,0.9087,0.9174,0.9345,0.9635,0.9786,0.9859,0.9997,0.9939,1.004,1.0422,1.0845,1.1006,1.1814,1.2663,1.3278,1.3548,1.3824,1.4104,1.4269,1.4041,1.3624,1.3265,1.275,1.1747,1.1303,1.1224,1.157,1.1916,1.2431,1.3107,1.374,1.415,1.4487,1.4794,1.4831,1.4801,1.4907,1.5209,1.5928,1.6477,1.7183,1.7952,1.9012,1.9584,1.9831,2.0304,2.0684,2.0986,2.1372,2.1813,2.2116,2.2174,2.2441,2.2485,2.2289,2.209,2.1865,2.168,2.1265,2.0824,2.0871,2.1109,2.1442,2.1319,2.1174,2.093,2.0642,2.0455,2.041,2.0422,2.0653,2.0908,2.1096,2.1249,2.1673,2.2215,2.2891,2.3513,2.3979,2.4536,2.4721,2.4931,2.5501,2.6194,2.6671,2.743,2.8329,2.8532,2.8587,2.8573,2.8505,2.856,2.8546,2.8058,2.7705,2.7854,2.789,2.7773,0.4983,0.4985,0.4985,0.5386,0.6189,0.7279,0.8219,0.9023,1.0096,1.0453,1.0206,0.9892,0.9648,0.9422,0.9078,0.8872,0.9043,0.9301,0.9388,0.9557,0.9826,0.9972,1.003,1.0139,1.0267,1.0292,1.0898,1.1206,1.1343,1.2079,1.2889,1.3573,1.3981,1.4082,1.4151,1.4335,1.3822,1.3438,1.303,1.249,1.1601,1.1129,1.1216,1.184,1.22,1.268,1.3397,1.3953,1.4392,1.4728,1.4966,1.5039,1.4706,1.4769,1.519,1.5675,1.5911,1.6596,1.7497,1.8527,1.9178,1.956,2.0256,2.0761,2.1191,2.158,2.2074,2.2529,2.2562,2.2456,2.2495,2.25,2.231,2.2021,2.1549,2.1029,2.0806,2.0719,2.0811,2.0975,2.0921,2.096,2.0954,2.0921,2.0843,2.1079,2.1102,2.1305,2.1552,2.1662,2.1858,2.2218,2.2714,2.3306,2.3761,2.3903,2.4372,2.4666,2.4823,2.5138,2.5993,2.6779,2.7583,2.8275,2.8532,2.8587,2.8587,2.8619,2.8619,2.8529,2.8157,2.8107,2.8352,2.8488,2.8436,0.5486,0.5486,0.5486,0.5837,0.6537,0.7773,0.8619,0.9266,1.0507,1.0939,1.0652,1.0441,1.0059,0.9695,0.938,0.9354,0.9471,0.9559,0.9689,0.9842,1.0231,1.0389,1.0548,1.0894,1.0918,1.0963,1.1584,1.1684,1.1929,1.2607,1.3361,1.4036,1.4225,1.4312,1.4344,1.4408,1.4384,1.3938,1.3388,1.2607,1.167,1.1305,1.1589,1.2092,1.2432,1.2799,1.344,1.3931,1.4275,1.4553,1.482,1.4922,1.4856,1.4863,1.4779,1.4853,1.5078,1.5599,1.6577,1.7678,1.8649,1.9283,2.0062,2.0693,2.1269,2.1668,2.2074,2.2202,2.2331,2.2374,2.2399,2.2669,2.2648,2.2457,2.2045,2.1639,2.1298,2.081,2.0872,2.1085,2.1227,2.1284,2.1328,2.1284,2.1264,2.155,2.1814,2.2053,2.2201,2.2334,2.2445,2.279,2.3148,2.3716,2.3915,2.4073,2.4297,2.4607,2.4781,2.4963,2.5819,2.6657,2.7362,2.7976,2.8275,2.8546,2.8587,2.8619,2.8651,2.8634,2.8475,2.8657,2.8967,2.9016,2.8996,0.5938,0.6002,0.6061,0.6337,0.6983,0.8124,0.892,0.9616,1.0654,1.1079,1.0803,1.047,1.0029,0.9615,0.9442,0.9519,0.9646,0.9733,0.9864,1.0045,1.0398,1.057,1.0767,1.1312,1.1604,1.1884,1.2433,1.3106,1.3157,1.3286,1.3807,1.44,1.4478,1.4368,1.4345,1.4284,1.3978,1.3493,1.287,1.2246,1.1748,1.15,1.1675,1.2381,1.2485,1.2884,1.3433,1.4011,1.4328,1.4599,1.4911,1.4966,1.4779,1.4633,1.4511,1.4186,1.4395,1.4969,1.5948,1.7124,1.8021,1.896,1.9927,2.0869,2.1475,2.1953,2.2214,2.2372,2.2243,2.2094,2.2042,2.2272,2.2253,2.2183,2.2114,2.1809,2.1466,2.123,2.109,2.1286,2.1581,2.1809,2.2016,2.2122,2.2241,2.2533,2.2686,2.2836,2.2928,2.2993,2.315,2.3352,2.3684,2.4105,2.4166,2.4236,2.4373,2.4654,2.4808,2.5126,2.5765,2.6511,2.7121,2.7596,2.7908,2.818,2.8465,2.8619,2.8651,2.878,2.8908,2.9099,2.9257,2.9369,2.9403,0.6094,0.6192,0.6333,0.6711,0.7285,0.8379,0.9076,0.9727,1.0757,1.1085,1.0815,1.0436,0.9935,0.9587,0.966,0.9733,0.9738,0.9907,1.0037,1.0189,1.0412,1.064,1.0952,1.1558,1.2214,1.2517,1.3049,1.3716,1.4096,1.4159,1.4104,1.4732,1.471,1.4475,1.4168,1.4006,1.3768,1.3049,1.2407,1.1964,1.1718,1.1527,1.1866,1.2254,1.2592,1.2826,1.3477,1.4152,1.4482,1.4607,1.5065,1.5109,1.4673,1.4533,1.4347,1.4118,1.4244,1.4814,1.5761,1.6787,1.7693,1.8762,2.0088,2.1318,2.1894,2.2314,2.2353,2.2262,2.1943,2.1777,2.1748,2.1816,2.1963,2.1918,2.1787,2.1517,2.1299,2.1197,2.1463,2.2025,2.2349,2.2683,2.2885,2.3036,2.3216,2.3501,2.3619,2.3643,2.3724,2.3815,2.3944,2.4142,2.4107,2.4357,2.4272,2.434,2.4524,2.4673,2.4859,2.5207,2.5778,2.6158,2.6619,2.7067,2.76,2.8044,2.8465,2.8565,2.8683,2.8926,2.9149,2.9338,2.9495,2.9682,2.9749,0.5918,0.5947,0.6229,0.668,0.7279,0.8329,0.9126,0.9673,1.0752,1.1071,1.0825,1.0434,1.0119,0.9954,0.9907,0.9951,0.9951,0.9994,1.0104,1.0289,1.0516,1.0664,1.1091,1.1766,1.2624,1.3065,1.3531,1.4096,1.4514,1.4337,1.4458,1.4783,1.4674,1.4455,1.4163,1.3908,1.3455,1.28,1.2238,1.1916,1.1719,1.1641,1.1857,1.2339,1.257,1.2826,1.347,1.4122,1.4445,1.4474,1.5006,1.5043,1.4516,1.4555,1.4393,1.4251,1.4395,1.5021,1.5923,1.6732,1.7532,1.8816,2.034,2.1816,2.2285,2.207,2.2002,2.2031,2.1777,2.1504,2.1514,2.1592,2.1738,2.1712,2.1579,2.1528,2.1388,2.1337,2.1688,2.2567,2.3006,2.3154,2.3738,2.3881,2.4012,2.4241,2.4335,2.4359,2.4692,2.481,2.4929,2.4964,2.4688,2.4599,2.4345,2.4469,2.4719,2.4783,2.4884,2.5231,2.5712,2.6025,2.6133,2.7009,2.7625,2.8039,2.8442,2.8648,2.8908,2.9198,2.9435,2.973,3.0068,3.0357,3.025,0.5839,0.5912,0.6007,0.6491,0.7226,0.834,0.9072,0.9727,1.0752,1.1,1.0721,1.0317,1.0075,1.0009,0.9994,0.9994,0.9994,0.9994,1.0142,1.0322,1.0526,1.0688,1.1229,1.2016,1.2962,1.3514,1.3944,1.4468,1.5049,1.4547,1.4326,1.4399,1.4384,1.4245,1.4034,1.3748,1.3221,1.2738,1.2324,1.2102,1.1679,1.1621,1.1867,1.2419,1.2526,1.2862,1.344,1.3954,1.4144,1.4379,1.4823,1.4677,1.4435,1.4567,1.461,1.4469,1.4731,1.5365,1.6265,1.7061,1.8018,1.9698,2.1061,2.207,2.249,2.2344,2.2295,2.2158,2.1865,2.1592,2.167,2.1553,2.1426,2.1398,2.1451,2.1497,2.149,2.1464,2.1936,2.2806,2.3121,2.3295,2.4016,2.4712,2.4844,2.4976,2.5023,2.5071,2.5276,2.548,2.5492,2.5599,2.5368,2.522,2.4979,2.4995,2.4991,2.4962,2.4922,2.5218,2.551,2.5445,2.5746,2.6733,2.7646,2.8044,2.8459,2.8771,2.9085,2.9373,2.9808,3.0267,3.0613,3.0955,3.0656,0.5702,0.5852,0.5888,0.6301,0.7033,0.8098,0.8822,0.9462,1.0421,1.0773,1.0507,1.0151,0.9994,0.9994,0.9994,0.9994,0.9994,1.0013,1.0184,1.0374,1.0619,1.0923,1.1502,1.2315,1.3294,1.3946,1.4248,1.4654,1.5131,1.4633,1.4201,1.3938,1.3836,1.3828,1.3755,1.3499,1.3067,1.2616,1.2332,1.2138,1.165,1.1613,1.1867,1.2383,1.2526,1.2862,1.3389,1.3828,1.4034,1.4216,1.4494,1.4604,1.4531,1.4533,1.4803,1.4866,1.5028,1.5637,1.6519,1.7729,1.8826,2.0479,2.1327,2.2109,2.2519,2.2598,2.2451,2.2432,2.2129,2.1904,2.1904,2.168,2.1562,2.1613,2.1541,2.1537,2.1634,2.1676,2.233,2.3,2.3341,2.3918,2.4337,2.5059,2.5083,2.518,2.518,2.5204,2.5312,2.5516,2.5732,2.5888,2.597,2.5877,2.5774,2.5602,2.5437,2.5157,2.5112,2.5072,2.5213,2.5202,2.5754,2.6958,2.7709,2.8088,2.8605,2.9132,2.9401,2.956,3.0146,3.0837,3.1102,3.1362,3.0902,0.5583,0.5744,0.5852,0.6152,0.6591,0.759,0.8316,0.8867,0.9821,1.0301,1.0272,1.0075,0.9994,0.9994,0.9994,0.9994,0.9994,1.0009,1.0194,1.0507,1.0879,1.1335,1.2009,1.2771,1.3608,1.4284,1.4502,1.4601,1.4951,1.4465,1.4012,1.3778,1.3726,1.3616,1.3506,1.3206,1.287,1.2548,1.2237,1.1963,1.1797,1.1709,1.1999,1.2445,1.2606,1.2928,1.3411,1.3726,1.3872,1.3982,1.4443,1.4553,1.4421,1.4666,1.488,1.4926,1.5031,1.5494,1.626,1.8154,1.9621,2.0712,2.1357,2.207,2.2725,2.273,2.2568,2.2598,2.2305,2.2051,2.1943,2.1936,2.1885,2.184,2.1759,2.1737,2.183,2.1918,2.2517,2.3294,2.4141,2.4862,2.5075,2.5312,2.5276,2.5288,2.53,2.5336,2.5384,2.5588,2.5853,2.6031,2.622,2.6474,2.6349,2.6077,2.5836,2.5525,2.5307,2.5268,2.53,2.5439,2.6174,2.7262,2.7813,2.8224,2.8914,2.9634,2.9976,3.0388,3.0925,3.1466,3.1695,3.1743,3.1363,0.5532,0.5578,0.5694,0.5859,0.6099,0.709,0.7775,0.8365,0.9325,0.9934,1.0078,1.0009,0.9994,0.9994,0.9994,0.9994,0.9994,1.0009,1.0217,1.0615,1.1017,1.162,1.2293,1.3087,1.3872,1.432,1.4504,1.467,1.4907,1.4494,1.4318,1.4136,1.3844,1.3704,1.355,1.3338,1.3177,1.2855,1.2555,1.2299,1.2175,1.2028,1.2175,1.2782,1.2819,1.3045,1.3455,1.366,1.3689,1.374,1.4194,1.4289,1.4296,1.4604,1.4892,1.4915,1.4988,1.5589,1.6704,1.822,1.9412,2.0323,2.1113,2.1855,2.2477,2.2598,2.2656,2.2822,2.2705,2.2607,2.2691,2.2432,2.2324,2.2259,2.2203,2.2141,2.222,2.2254,2.2657,2.3573,2.4432,2.5134,2.5529,2.5373,2.5324,2.5312,2.5312,2.5312,2.5348,2.5673,2.5997,2.609,2.6299,2.6766,2.6935,2.6604,2.6559,2.6459,2.594,2.548,2.5564,2.5674,2.6512,2.7568,2.798,2.8379,2.9381,3.0296,3.0851,3.135,3.1741,3.2192,3.2555,3.2437,3.204,0.5408,0.5454,0.5572,0.5591,0.5783,0.6606,0.7361,0.811,0.8935,0.9504,0.9809,0.9847,0.9933,0.9971,0.9994,0.9994,0.9994,1.0004,1.0137,1.0534,1.1101,1.1743,1.2507,1.3331,1.404,1.4476,1.4761,1.4884,1.4907,1.4743,1.4479,1.4201,1.4027,1.3689,1.3521,1.344,1.3309,1.3016,1.2753,1.2572,1.2426,1.2353,1.2419,1.2833,1.3023,1.3162,1.3389,1.3484,1.3492,1.3587,1.3762,1.4005,1.4165,1.4518,1.4808,1.4788,1.515,1.574,1.677,1.8135,1.9184,1.9925,2.0713,2.1473,2.2178,2.2402,2.2607,2.2769,2.2994,2.3062,2.3003,2.2744,2.2834,2.2768,2.2772,2.2737,2.3102,2.3185,2.329,2.4148,2.475,2.5395,2.5816,2.5517,2.5312,2.5312,2.5312,2.5312,2.5336,2.5661,2.6033,2.6148,2.6532,2.7118,2.7281,2.7055,2.7118,2.7347,2.6633,2.5758,2.5825,2.599,2.6918,2.7783,2.8211,2.8886,3.0104,3.0999,3.1511,3.1959,3.2372,3.2838,3.3355,3.308,3.2578,0.526,0.5396,0.5407,0.545,0.5605,0.6257,0.7112,0.8168,0.8551,0.9035,0.9592,0.9611,0.9757,0.9947,0.998,0.9994,0.9971,0.9971,1.0104,1.042,1.1014,1.1788,1.2631,1.3438,1.425,1.4804,1.5099,1.5043,1.4944,1.4842,1.4582,1.4157,1.3916,1.3682,1.3572,1.3521,1.3389,1.3177,1.2972,1.282,1.2711,1.2614,1.2726,1.2994,1.3082,1.3206,1.3367,1.344,1.3455,1.3565,1.3762,1.3909,1.4165,1.4575,1.4596,1.4773,1.5181,1.5818,1.659,1.7927,1.9042,1.9849,2.0625,2.1328,2.1807,2.2168,2.2432,2.2643,2.2867,2.3003,2.3042,2.325,2.3414,2.3418,2.3453,2.3718,2.4199,2.4365,2.4419,2.4838,2.5286,2.5719,2.5877,2.5697,2.5312,2.5312,2.5312,2.5312,2.5372,2.5576,2.5888,2.6177,2.6688,2.7528,2.7578,2.7439,2.7434,2.7586,2.6694,2.5948,2.6084,2.6263,2.6927,2.7665,2.8394,2.9332,3.0587,3.1497,3.2122,3.252,3.2791,3.3158,3.3599,3.3368,3.2934,0.5208,0.5287,0.5375,0.5439,0.5631,0.6402,0.7118,0.7715,0.8135,0.8732,0.938,0.954,0.962,0.9743,0.9928,0.9966,0.9933,0.9847,0.9933,1.0309,1.0881,1.1853,1.2748,1.369,1.455,1.5057,1.5293,1.5226,1.5177,1.5046,1.4696,1.437,1.4152,1.3917,1.3756,1.3756,1.3594,1.336,1.3148,1.3104,1.3067,1.2965,1.3111,1.3206,1.3089,1.3221,1.3389,1.3272,1.3287,1.3514,1.3572,1.3704,1.4026,1.4165,1.4203,1.4265,1.4887,1.5654,1.6493,1.7834,1.9078,1.9811,2.0498,2.0918,2.1387,2.1797,2.2168,2.2451,2.275,2.2935,2.3149,2.3363,2.3701,2.3973,2.4075,2.4422,2.4821,2.4928,2.4978,2.492,2.5385,2.5529,2.5745,2.5636,2.5312,2.5312,2.5312,2.5312,2.5395,2.5576,2.5838,2.6124,2.6777,2.7598,2.7904,2.7862,2.7815,2.7666,2.689,2.6291,2.6272,2.6522,2.696,2.7687,2.8665,2.9838,3.1098,3.1813,3.2359,3.2745,3.304,3.3426,3.3686,3.3429,3.3293,0.5118,0.5129,0.5197,0.5449,0.5987,0.6781,0.7476,0.8006,0.8208,0.869,0.925,0.9329,0.9451,0.9602,0.9686,0.9724,0.98,0.9615,0.9587,0.985,1.0689,1.1629,1.2656,1.3669,1.4572,1.5117,1.5352,1.5294,1.5141,1.4801,1.4428,1.4504,1.4486,1.4138,1.3925,1.391,1.3822,1.3557,1.3353,1.336,1.3331,1.3301,1.3389,1.3375,1.317,1.3221,1.3404,1.317,1.3199,1.3433,1.3484,1.3565,1.3784,1.3836,1.3916,1.4111,1.4994,1.5839,1.677,1.8094,1.921,1.9947,2.0439,2.0664,2.0996,2.1357,2.1777,2.2158,2.2545,2.293,2.3168,2.344,2.3983,2.451,2.4751,2.4967,2.5149,2.531,2.5227,2.5051,2.512,2.5276,2.5348,2.53,2.5312,2.5312,2.5347,2.5382,2.5418,2.5525,2.5821,2.6131,2.6905,2.7689,2.7939,2.826,2.8226,2.8068,2.7524,2.6991,2.6716,2.6714,2.711,2.8028,2.9112,3.0273,3.1416,3.1934,3.2444,3.2812,3.3123,3.3329,3.3492,3.344,3.3324,0.5021,0.5023,0.5029,0.562,0.6463,0.7196,0.807,0.8874,0.863,0.8805,0.9239,0.9084,0.9216,0.9413,0.9418,0.9502,0.9521,0.9366,0.9268,0.9349,1.0243,1.1253,1.2272,1.3254,1.422,1.4952,1.5228,1.5057,1.4747,1.4465,1.432,1.4506,1.4461,1.4313,1.4245,1.4372,1.429,1.3911,1.3711,1.3638,1.3499,1.3477,1.3484,1.3426,1.3228,1.3097,1.3294,1.3272,1.3133,1.336,1.3579,1.3616,1.369,1.3638,1.3756,1.4343,1.5207,1.6162,1.7159,1.8434,1.9539,2.0236,2.0615,2.0644,2.081,2.1133,2.1562,2.1816,2.2197,2.2574,2.2846,2.3172,2.3642,2.4283,2.4721,2.5206,2.5677,2.551,2.4921,2.476,2.4687,2.4843,2.4939,2.4915,2.5261,2.5263,2.5575,2.5658,2.5777,2.5848,2.6056,2.6392,2.7095,2.7855,2.8329,2.8591,2.8634,2.8412,2.7919,2.7339,2.6792,2.6958,2.7285,2.825,2.9281,3.047,3.1507,3.2081,3.2621,3.3027,3.324,3.3219,3.3245,3.324,3.3324,0.5018,0.5026,0.5272,0.5882,0.6743,0.7569,0.8383,0.9187,0.9301,0.9293,0.9263,0.9098,0.9072,0.915,0.923,0.9291,0.9291,0.9159,0.907,0.9329,0.9963,1.0886,1.1875,1.2902,1.3833,1.4417,1.4717,1.4764,1.4587,1.4307,1.4243,1.4686,1.4712,1.4758,1.4773,1.494,1.4741,1.432,1.4133,1.3859,1.3601,1.3528,1.3477,1.3316,1.3097,1.3038,1.3147,1.3112,1.3175,1.3411,1.3918,1.4082,1.4141,1.3859,1.3952,1.4425,1.5536,1.659,1.7585,1.8759,1.9817,2.0333,2.0605,2.0605,2.0713,2.1005,2.1268,2.1504,2.1777,2.2207,2.2608,2.292,2.3402,2.4083,2.4667,2.539,2.6117,2.5457,2.4713,2.446,2.4314,2.4374,2.454,2.4826,2.5113,2.5581,2.6163,2.6442,2.6624,2.6708,2.677,2.7079,2.7475,2.8117,2.8662,2.9058,2.9126,2.8699,2.8135,2.7538,2.6939,2.7137,2.7482,2.8402,2.9444,3.0588,3.1594,3.2391,3.2881,3.3203,3.3103,3.2993,3.2918,3.2881,3.314,0.5018,0.5073,0.5502,0.6152,0.7029,0.7789,0.8602,0.9357,0.9568,0.954,0.9385,0.9136,0.8985,0.8992,0.9053,0.9098,0.9094,0.8973,0.8902,0.9106,0.9761,1.0667,1.1611,1.2557,1.3648,1.4321,1.4513,1.4545,1.4469,1.4455,1.4547,1.4887,1.5078,1.5278,1.5333,1.5315,1.5139,1.4729,1.4516,1.4141,1.3762,1.3741,1.3616,1.3382,1.3053,1.3044,1.3186,1.3202,1.3366,1.3768,1.4283,1.4283,1.4291,1.4211,1.4385,1.5065,1.6045,1.7241,1.8076,1.9087,2.0099,2.0508,2.0751,2.08,2.0935,2.1194,2.1184,2.142,2.1558,2.1942,2.2517,2.294,2.3726,2.4501,2.4775,2.5182,2.5393,2.5098,2.4496,2.4109,2.4107,2.4275,2.4514,2.5016,2.5338,2.5699,2.6329,2.6744,2.7001,2.7481,2.7546,2.7828,2.8287,2.869,2.9265,2.9574,2.9707,2.916,2.8408,2.79,2.7447,2.7411,2.7693,2.8788,2.9769,3.0598,3.1554,3.2458,3.2947,3.3229,3.3008,3.2718,3.2612,3.2472,3.2619,0.5018,0.5112,0.564,0.6371,0.7221,0.7907,0.875,0.9522,0.9606,0.9606,0.954,0.9192,0.9037,0.8954,0.8817,0.8878,0.8888,0.8822,0.8741,0.8956,0.9565,1.0492,1.1435,1.2419,1.3432,1.416,1.4449,1.4463,1.4455,1.4501,1.4744,1.515,1.5497,1.58,1.5651,1.5474,1.5227,1.4881,1.4599,1.4317,1.4168,1.4059,1.3844,1.3453,1.3079,1.3097,1.3386,1.3545,1.3696,1.4105,1.4598,1.4675,1.4724,1.4757,1.5056,1.5656,1.6709,1.7633,1.8462,1.9583,2.0255,2.0701,2.0896,2.1072,2.1188,2.1189,2.1223,2.1293,2.1432,2.185,2.2473,2.3076,2.3949,2.4781,2.4948,2.5005,2.4957,2.4816,2.4321,2.3872,2.3966,2.4135,2.459,2.5071,2.555,2.5912,2.6325,2.6691,2.7145,2.7789,2.8209,2.8685,2.9254,2.9666,2.9866,3.0182,3.0363,2.9508,2.8797,2.8333,2.7984,2.7963,2.84,2.9421,3.0331,3.0952,3.1713,3.2589,3.2986,3.3282,3.285,3.2449,3.2073,3.1974,3.1964,0.5018,0.506,0.5469,0.6241,0.7179,0.7717,0.8554,0.9489,0.9597,0.9606,0.954,0.9357,0.915,0.8976,0.8798,0.876,0.8784,0.8718,0.8713,0.8822,0.9501,1.0364,1.1352,1.2397,1.3262,1.3873,1.43,1.4231,1.4479,1.4611,1.4858,1.5351,1.551,1.5823,1.6047,1.5787,1.542,1.5119,1.4858,1.4636,1.4405,1.4265,1.4097,1.3833,1.3608,1.3719,1.3843,1.3801,1.4109,1.4435,1.4862,1.5199,1.5413,1.5532,1.5854,1.6484,1.7486,1.7992,1.886,1.995,2.0607,2.0567,2.0851,2.1387,2.1395,2.1254,2.1248,2.1287,2.1573,2.2123,2.2699,2.3117,2.3831,2.486,2.5395,2.5265,2.5154,2.471,2.4197,2.3912,2.3753,2.4092,2.4516,2.505,2.5691,2.6154,2.6831,2.7199,2.7448,2.8084,2.8836,2.952,3.0171,3.0065,3.0064,3.0779,3.0871,2.9987,2.9218,2.8826,2.8564,2.8529,2.9099,2.9946,3.0625,3.1229,3.1993,3.2714,3.3039,3.3203,3.2677,3.2238,3.1772,3.1379,3.131]}]]